GFSGL_250_spd_000.txt.gz
Wind_Speed
111 116 114 107 97 85 76 71 68 67 68 68 69 70 73 76 80 82 84 86 87 89 91 94 99 106 112 116 112 110 127 152 161 157 153 144 137 136 133 131 129 131 125
113 118 122 104 93 83 76 72 69 67 67 67 68 70 73 75 78 80 83 86 88 89 92 96 98 102 102 104 98 95 98 110 124 151 158 155 147 147 139 135 133 129 130
120 123 117 98 89 80 75 72 70 68 68 67 67 69 72 75 77 80 81 81 83 83 84 86 87 92 90 92 91 87 87 98 110 116 141 156 161 156 145 139 134 131 129
118 122 112 97 87 78 72 69 68 67 68 68 70 71 72 72 73 74 74 73 73 74 75 76 77 80 81 83 79 75 81 86 100 108 113 137 156 161 159 145 141 135 127
122 121 107 94 82 74 70 69 68 67 68 70 70 70 68 69 70 67 66 65 65 65 65 65 65 67 70 72 72 67 72 76 89 104 106 119 139 151 159 155 153 141 131
124 117 105 90 79 74 70 69 69 69 70 70 67 66 67 66 62 61 59 58 58 58 59 59 59 59 61 64 65 66 67 71 80 93 103 108 122 138 153 154 154 144 138
123 113 99 85 77 72 70 69 69 69 69 66 64 63 60 59 57 55 53 53 54 55 55 55 55 56 56 58 60 61 63 67 73 85 98 100 110 119 139 151 153 147 141
122 105 92 79 74 71 69 69 69 68 64 62 60 57 55 53 51 49 49 50 50 50 49 49 51 50 51 52 55 57 60 63 70 77 88 97 103 112 121 143 153 150 144
112 97 86 77 72 70 70 69 68 64 61 58 54 53 50 47 47 45 44 44 45 46 45 44 44 46 45 46 51 53 57 62 68 74 80 92 97 105 109 129 146 152 145
101 91 82 76 71 69 69 68 65 60 56 54 50 48 45 44 41 39 38 40 41 42 41 41 40 42 42 42 48 51 54 59 61 67 74 84 89 97 106 116 131 148 151
93 84 79 74 70 69 68 65 61 57 52 49 46 44 43 41 36 34 35 37 39 39 40 39 38 39 39 39 44 48 51 54 59 63 68 74 82 86 97 103 116 134 146
89 81 76 72 70 67 64 62 57 54 50 46 43 41 40 36 34 34 33 33 34 34 34 35 35 35 36 35 39 43 46 49 53 57 61 64 73 82 88 94 101 114 137
83 77 72 70 69 65 60 58 53 50 47 44 41 39 36 34 32 32 30 29 29 27 27 28 30 31 31 32 34 36 40 44 49 52 54 57 62 74 82 83 92 102 115
77 72 69 69 67 62 56 54 50 48 44 42 39 37 33 31 30 27 25 24 23 24 25 25 25 27 27 26 27 31 36 39 44 47 48 49 50 60 71 79 85 91 102
72 70 68 66 63 60 53 51 47 44 41 39 37 34 31 28 25 22 22 20 18 16 17 19 22 24 23 22 23 26 30 34 37 41 45 46 45 49 59 69 74 82 89
70 68 66 62 61 56 51 46 44 41 39 36 34 31 27 25 21 19 19 15 16 13 12 13 15 17 17 17 20 23 26 29 32 36 40 42 43 44 49 57 64 72 80
68 67 62 59 57 53 48 45 42 39 36 33 30 27 24 21 18 16 16 16 14 12 11 10 10 10 11 14 17 20 22 25 28 31 34 38 40 40 43 49 56 62 70
66 63 59 57 54 49 47 44 41 37 33 30 27 23 20 17 16 15 12 14 13 12 10 8 7 7 9 11 13 16 19 22 24 26 30 33 35 38 40 45 50 56 63
63 59 56 52 50 47 44 41 38 34 30 27 24 21 18 15 15 14 13 13 13 13 11 8 7 8 9 9 11 13 16 18 21 23 25 29 33 36 39 44 47 50 53
60 57 52 48 48 45 41 38 35 31 28 25 22 19 17 14 14 14 11 14 14 10 7 9 9 8 9 9 12 13 14 17 20 21 23 27 29 35 39 43 46 50 52
58 53 48 46 45 42 39 34 32 27 25 22 20 18 16 13 13 15 14 15 14 11 11 9 10 9 8 9 9 8 9 13 17 21 24 26 29 32 36 41 44 48 52
53 49 46 43 42 40 36 31 29 25 22 20 19 16 16 13 13 16 16 15 16 13 11 11 9 8 8 11 10 9 10 11 12 16 20 24 28 32 35 38 41 44 46
50 48 44 40 39 37 33 29 27 23 20 18 18 16 15 15 14 15 18 16 16 15 12 12 13 12 10 8 8 11 11 9 13 15 17 20 24 29 34 37 41 44 48
47 44 42 38 37 34 31 28 24 22 19 17 17 17 16 16 16 16 18 19 18 16 17 17 13 12 14 14 13 13 13 14 15 17 18 19 22 27 31 33 36 39 43
44 42 40 36 35 32 30 27 23 21 19 17 17 16 17 17 16 17 18 19 20 20 19 19 20 18 16 15 15 16 17 18 20 20 21 23 24 26 28 30 35 40 44
42 40 37 35 33 30 28 26 22 20 19 18 17 16 17 17 18 18 19 20 20 21 22 22 22 21 20 20 20 20 21 22 23 24 26 28 31 33 33 34 36 39 42

GFSGL_250_spd_003.txt.gz
Wind_Speed
100 103 106 111 114 111 105 101 93 82 76 71 67 67 68 70 73 76 77 79 80 82 86 92 99 108 117 124 132 139 141 146 148 160 168 163 157 148 145 137 131 121 120
108 110 113 116 119 113 108 98 87 80 73 69 67 67 68 70 71 74 77 79 80 81 83 85 85 92 96 103 110 116 120 123 123 122 129 152 169 165 162 151 148 139 127
113 114 117 120 122 110 103 92 83 77 72 69 67 67 68 69 70 71 71 72 74 76 79 81 83 87 87 91 95 99 102 103 103 106 111 113 125 141 155 163 158 150 140
117 118 119 123 115 109 96 86 81 75 70 69 67 66 65 64 64 65 68 68 70 72 75 76 77 77 78 80 82 84 87 88 88 92 98 100 106 113 114 124 139 153 149
118 117 119 121 112 103 90 83 79 74 70 68 66 64 62 61 63 64 64 65 67 71 72 73 74 73 73 74 74 77 78 77 76 79 83 89 92 100 101 106 117 133 147
120 120 118 117 109 95 87 81 76 71 68 67 64 61 61 62 63 62 62 62 64 64 65 66 66 66 66 67 67 70 72 72 71 72 75 79 83 91 95 98 105 111 126
124 120 120 112 101 91 84 79 75 70 68 65 63 60 60 61 60 58 58 57 57 57 57 58 58 58 59 60 60 62 64 66 67 67 69 73 81 87 95 96 100 104 107
128 126 116 105 93 88 81 76 72 69 66 64 61 60 59 58 55 54 53 51 50 51 52 53 54 54 54 55 55 57 59 61 63 64 63 72 78 87 97 97 95 102 102
127 123 107 96 92 85 79 74 71 67 65 61 59 56 56 54 51 49 47 46 47 47 47 47 47 48 48 47 49 51 53 56 59 61 63 71 78 84 91 95 94 98 99
123 113 100 92 89 81 75 72 69 66 62 59 57 54 51 49 45 44 43 43 42 42 41 41 40 40 41 41 41 43 47 50 54 58 62 67 75 80 87 91 91 95 96
119 104 94 90 83 77 72 70 67 62 60 56 54 50 46 44 41 40 39 39 39 38 38 37 39 40 38 37 38 41 43 44 47 53 58 63 69 76 81 87 87 90 93
105 95 91 84 78 72 68 67 64 58 57 54 50 46 43 41 40 37 36 36 35 35 34 34 36 37 36 35 35 36 38 38 42 48 52 57 62 68 76 83 83 84 89
96 91 85 78 72 69 66 64 60 57 53 50 47 43 40 38 36 35 33 33 33 32 33 33 32 32 32 31 29 31 33 35 39 43 46 49 55 62 69 75 75 76 82
91 85 78 73 70 67 64 60 57 54 50 47 43 40 38 36 33 32 31 30 30 31 29 30 31 29 26 25 26 27 30 33 37 40 42 45 48 53 59 63 69 71 74
84 78 73 70 66 65 61 57 55 50 47 44 40 37 35 31 31 29 28 27 27 25 24 25 26 25 23 22 22 23 27 30 32 35 37 40 43 45 49 56 62 64 69
77 73 70 67 65 62 58 55 50 48 45 41 37 34 32 28 28 27 26 24 21 20 22 19 18 20 20 18 19 21 23 26 28 30 33 34 36 39 42 48 53 53 59
72 70 67 64 61 59 55 50 47 45 41 37 34 31 29 26 25 25 25 21 19 19 16 15 15 16 16 16 16 17 20 23 25 27 29 31 33 35 37 42 45 49 53
69 66 64 61 57 56 50 47 45 42 38 33 30 28 26 24 24 23 22 20 18 17 15 13 12 11 11 12 13 15 17 19 22 23 25 27 30 33 36 37 43 48 51
66 63 61 57 55 52 48 45 41 38 35 30 28 25 23 23 22 22 20 18 18 17 15 13 13 11 10 10 10 10 13 15 18 20 22 24 27 31 34 38 41 44 48
63 62 57 54 50 49 45 41 38 35 31 28 25 23 21 21 22 20 21 17 18 16 12 12 12 11 11 9 6 7 8 10 14 17 21 23 25 28 32 35 39 43 47
60 56 55 50 48 45 40 38 35 32 28 25 23 21 19 20 20 19 20 18 17 16 13 12 13 13 11 9 9 6 6 8 9 12 17 21 24 28 31 35 39 42 45
56 53 50 47 43 41 38 35 32 29 26 24 21 20 18 20 20 19 20 19 16 15 14 13 12 12 11 10 8 8 7 6 7 10 12 15 20 25 28 33 38 41 44
53 50 47 42 40 39 36 33 30 26 24 22 20 19 18 19 20 19 19 20 19 14 15 15 12 12 12 11 9 8 10 8 9 11 11 14 17 21 26 30 34 39 43
49 46 42 40 39 37 34 31 28 24 22 21 20 18 18 18 20 20 20 21 20 19 18 17 15 13 12 12 12 11 11 10 11 11 12 13 14 18 22 27 31 35 40
46 43 40 39 37 35 32 29 25 22 20 20 20 19 18 19 19 21 21 21 21 20 21 20 18 15 15 15 13 13 14 15 15 14 17 18 19 20 22 25 28 33 38
43 40 39 38 36 33 30 26 23 22 19 18 19 19 19 19 19 20 21 22 22 22 22 22 21 20 19 18 17 18 19 19 19 18 19 21 22 25 26 27 29 32 36

GFSGL_250_spd_006.txt.gz
Wind_Speed
95 99 105 110 115 118 122 119 119 114 111 103 93 86 81 76 71 69 68 67 68 70 73 77 82 87 91 96 102 111 120 126 130 151 163 158 156 155 147 144 139 131 125
99 104 110 117 119 125 126 119 117 112 106 98 87 85 79 74 70 67 66 67 69 71 73 75 77 83 86 91 95 98 102 110 114 123 139 149 162 170 159 155 146 142 137
104 112 115 122 127 130 129 115 113 108 100 89 85 83 77 72 68 67 65 66 67 69 71 73 75 79 80 85 89 90 95 98 100 101 110 118 128 138 152 168 163 157 149
116 118 119 129 133 133 120 114 109 103 93 86 84 79 74 69 67 65 65 65 65 67 70 72 75 76 77 80 82 85 89 91 93 93 94 102 107 113 124 135 146 164 167
123 124 129 133 139 125 115 109 103 97 89 86 80 74 69 65 66 65 64 66 66 67 68 69 70 71 73 74 76 80 82 84 87 89 91 94 99 106 111 116 118 124 136
126 130 135 135 135 114 109 105 99 92 87 80 75 69 65 64 65 64 63 62 63 63 62 63 64 65 66 67 68 72 75 77 79 82 83 87 90 95 103 110 109 108 103
134 136 136 136 117 109 106 101 94 88 82 75 71 66 65 65 62 61 60 58 57 56 55 56 57 57 58 59 61 63 65 67 70 73 76 81 83 87 93 97 101 100 96
139 140 139 121 113 108 102 94 89 83 76 72 68 65 64 62 58 57 55 53 52 51 49 49 49 50 51 52 55 56 58 61 62 63 66 71 73 77 83 90 92 94 93
139 137 129 117 109 102 94 89 84 77 73 70 67 64 60 59 54 52 50 49 47 47 46 45 45 47 47 47 49 51 53 57 58 60 63 65 66 66 73 80 84 87 89
135 130 116 111 101 92 88 84 77 73 70 67 66 60 57 54 50 49 47 45 45 44 43 42 42 42 42 41 42 43 46 50 51 54 59 61 63 64 67 69 75 78 82
122 111 110 100 92 88 83 77 73 71 69 66 63 58 53 49 48 46 44 43 43 42 39 38 37 37 37 37 37 38 41 44 46 47 51 54 58 60 64 66 69 72 76
105 104 98 91 86 82 77 73 71 69 67 63 59 54 49 47 46 43 41 40 38 37 34 33 32 31 33 33 33 34 36 38 39 41 43 46 52 56 59 59 64 69 72
101 94 88 84 83 78 72 69 68 67 64 59 55 49 46 45 42 40 39 36 34 32 30 29 28 27 27 28 28 28 30 32 35 39 42 44 49 52 51 51 56 65 70
89 85 83 81 78 72 69 66 64 63 60 56 51 47 44 42 39 38 36 33 31 29 28 28 25 25 26 26 25 25 26 28 31 34 37 40 42 44 46 47 52 60 65
84 83 80 76 71 69 67 64 63 59 56 51 48 44 42 38 37 35 33 30 28 27 29 25 25 25 23 21 20 21 23 24 26 30 32 34 35 36 39 44 49 53 58
83 79 74 70 68 66 64 64 58 57 51 49 45 41 38 35 34 32 30 28 26 26 24 24 24 21 18 17 17 17 18 19 23 26 27 29 30 31 34 38 42 47 50
78 74 68 67 65 63 61 59 59 51 48 45 41 37 34 33 31 29 27 26 25 24 22 21 22 18 16 15 14 14 15 17 18 21 22 24 26 29 31 33 39 42 46
73 68 65 65 62 60 58 56 52 48 44 41 37 34 31 30 28 27 25 24 23 21 19 21 20 17 16 14 12 10 11 13 14 15 18 20 23 25 28 31 35 38 42
67 65 63 60 59 57 55 50 48 43 40 37 34 30 29 28 26 25 23 23 21 18 18 19 14 16 15 14 12 10 8 9 10 11 13 16 19 23 24 27 32 36 38
62 61 60 59 56 54 49 46 43 39 37 34 30 28 28 26 25 24 21 21 18 16 16 15 14 12 11 10 9 8 9 9 9 10 10 12 15 18 21 25 30 34 38
60 58 57 55 53 49 45 42 40 37 34 31 28 26 26 25 24 23 21 21 17 13 14 14 13 12 12 13 10 9 7 8 9 8 8 9 12 15 19 22 27 33 36
58 57 55 52 48 45 42 40 37 35 32 29 26 25 25 24 23 22 22 20 17 12 15 16 16 14 10 9 10 11 9 8 8 9 9 9 11 13 16 20 24 29 34
56 53 51 47 44 41 39 37 35 32 30 27 24 23 23 23 23 22 22 21 18 14 14 16 15 15 13 12 12 10 8 9 10 10 11 11 10 12 15 17 20 25 31
53 50 46 43 41 39 38 36 32 29 27 25 22 22 22 22 22 22 22 21 20 18 17 17 17 15 13 14 12 11 11 11 10 9 12 13 16 16 16 17 19 21 26
49 46 43 40 39 38 35 32 29 27 24 23 22 21 20 21 21 22 22 21 21 20 19 18 18 16 15 14 14 14 15 14 12 11 13 14 15 17 18 21 22 23 25
45 42 40 40 37 34 31 28 26 24 22 21 22 20 20 20 20 20 22 22 21 21 21 21 20 19 17 16 17 17 17 17 16 15 14 15 17 20 22 24 25 27 29

GFSGL_250_spd_009.txt.gz
Wind_Speed
96 100 105 107 107 112 114 116 121 124 123 120 117 111 100 94 86 78 74 72 68 66 64 62 64 66 65 71 76 81 85 88 93 111 118 122 126 138 137 136 135 132 128
104 107 109 112 114 118 121 125 129 128 124 116 112 103 97 88 79 75 72 69 66 63 63 63 64 66 66 68 73 77 81 84 85 95 108 117 122 122 130 141 140 137 137
112 111 113 116 122 124 127 128 129 126 115 109 102 96 87 79 76 72 67 64 62 61 61 61 62 64 66 69 70 71 76 80 83 85 95 106 114 122 132 133 133 143 143
118 118 120 123 126 128 132 130 120 111 105 100 95 85 78 76 72 68 63 60 59 59 60 61 61 62 64 67 69 71 73 76 80 82 86 94 101 109 116 125 133 134 135
125 128 130 132 131 128 120 114 109 105 98 93 82 79 78 72 67 63 61 59 59 60 61 60 59 59 61 62 64 70 70 71 73 76 80 89 95 101 106 112 116 122 127
131 130 129 122 118 114 110 105 98 91 86 79 75 75 70 67 64 62 58 57 58 57 57 58 56 57 58 58 61 63 65 67 70 71 74 79 88 97 100 104 107 112 116
129 127 123 119 114 108 99 93 92 85 78 74 74 70 66 65 63 59 57 56 55 55 53 53 53 52 53 54 56 58 60 63 66 69 71 74 78 85 93 98 102 104 109
122 118 112 106 99 92 91 87 81 76 74 75 73 67 63 63 60 57 55 54 52 50 49 48 48 47 46 48 50 52 55 58 60 63 66 72 73 76 81 88 92 96 100
110 105 98 92 89 85 80 78 76 76 76 74 67 63 60 61 57 54 53 51 49 47 45 44 43 43 43 44 46 48 49 52 54 56 60 63 65 69 74 80 83 87 91
96 95 92 86 80 79 79 78 78 77 72 67 64 60 58 58 53 52 50 48 47 44 41 41 39 39 40 39 41 44 47 48 49 52 55 59 61 63 66 71 75 80 84
90 86 82 79 78 78 78 78 76 71 66 63 60 59 57 53 51 48 46 46 44 41 39 37 35 35 35 36 37 40 41 44 46 48 51 54 57 59 61 64 67 71 78
86 83 82 81 79 78 78 75 70 64 62 60 57 57 53 51 48 45 44 43 39 37 35 34 33 31 30 31 33 35 36 39 41 44 47 50 53 55 55 55 60 64 71
86 85 82 80 80 78 75 70 63 60 59 58 55 54 50 48 46 44 42 39 35 32 32 31 26 25 24 24 26 27 29 32 36 40 41 44 47 48 49 53 56 61 67
88 85 83 80 77 75 70 63 60 57 57 56 52 49 46 46 43 40 39 35 32 30 29 26 24 22 21 23 24 25 28 29 30 32 34 37 40 43 44 48 52 55 59
87 83 79 77 75 70 65 61 57 54 55 55 49 45 44 42 39 38 35 32 29 27 25 24 23 21 20 19 19 20 22 24 26 28 29 30 34 36 38 42 45 46 49
81 79 77 73 68 63 60 59 54 52 52 50 45 43 40 38 37 35 31 28 26 25 23 22 21 20 20 18 18 19 20 21 23 24 25 26 27 28 31 35 38 40 42
78 75 70 66 62 57 55 54 55 51 47 44 41 39 37 36 34 31 28 26 24 22 22 21 19 20 20 19 18 18 19 19 20 20 21 22 22 23 26 29 33 36 38
74 71 66 60 57 55 53 53 51 50 43 40 36 36 35 34 32 28 26 24 23 19 19 17 16 18 16 17 17 17 18 16 15 16 17 18 19 20 22 25 29 31 33
67 64 60 57 54 52 52 50 47 43 39 35 33 34 33 31 29 26 24 23 20 17 16 16 16 17 17 15 15 16 14 14 14 13 13 15 16 17 20 22 25 28 31
61 58 57 56 54 52 49 46 42 39 35 33 32 32 31 29 26 24 22 21 18 14 15 16 16 15 14 14 12 13 15 14 12 12 11 12 14 14 16 19 22 25 29
58 56 54 53 51 49 45 41 38 36 33 32 31 30 29 27 24 22 21 19 17 12 15 16 15 16 15 14 12 11 10 12 13 10 9 10 11 14 15 17 20 23 27
57 55 54 51 48 45 41 38 36 35 34 32 30 28 27 24 22 20 19 18 16 12 15 17 16 14 12 13 13 13 11 10 10 12 10 10 10 11 14 16 18 21 24
55 54 51 49 45 42 38 37 36 34 32 29 27 25 24 23 21 20 18 17 15 13 15 17 17 16 14 13 13 13 13 12 12 12 12 11 12 12 13 15 17 20 23
53 52 48 45 41 38 37 35 32 30 28 25 24 23 22 22 20 19 18 17 16 15 15 18 18 17 16 15 15 14 14 12 12 13 13 13 14 13 13 14 16 19 22
50 48 44 41 38 37 34 30 28 27 25 23 22 20 20 20 20 19 19 18 17 16 16 17 19 19 17 17 18 18 16 16 15 15 14 14 14 15 16 16 16 18 21
47 44 42 38 37 34 30 28 27 25 24 22 20 20 20 20 19 19 19 19 19 18 17 17 18 18 19 20 20 19 19 18 18 17 17 17 16 17 17 18 19 20 22

GFSGL_250_spd_012.txt.gz
Wind_Speed
103 105 108 112 118 121 125 127 127 125 120 119 118 116 112 107 101 97 89 84 79 74 71 68 66 65 63 62 62 65 69 70 74 86 91 97 100 103 107 112 119 130 132
111 115 118 123 127 128 128 126 123 121 115 113 110 104 101 96 90 86 82 78 71 71 68 64 62 60 59 59 58 58 62 66 69 79 88 93 96 100 103 107 111 123 130
119 124 126 126 125 125 127 124 117 112 108 103 97 93 88 85 84 79 73 69 69 66 63 60 59 57 58 58 57 57 58 62 65 71 81 88 92 96 99 101 107 114 122
124 123 123 121 122 121 113 108 104 101 95 89 85 84 81 76 73 70 67 67 65 62 60 58 56 56 56 58 59 58 60 58 61 65 73 81 86 90 93 96 100 105 112
119 117 116 116 113 106 101 97 94 91 90 87 83 77 77 73 70 68 66 63 60 59 60 58 57 56 56 56 56 59 58 59 61 62 67 77 84 87 87 90 92 97 99
115 114 111 108 101 98 93 87 82 78 75 72 74 70 69 68 65 62 58 57 57 57 57 56 53 52 51 51 52 53 55 55 59 62 65 70 78 83 87 88 89 92 92
108 105 102 100 97 95 90 87 82 78 76 74 71 69 68 64 61 58 55 54 56 54 51 50 49 48 47 47 48 50 52 54 56 57 61 66 73 79 83 86 88 87 90
99 98 97 95 93 90 84 82 79 79 75 72 72 67 63 60 57 56 54 56 53 49 47 45 44 45 44 45 47 48 50 52 54 53 56 61 66 72 76 82 85 86 88
94 94 95 94 91 89 85 82 79 78 75 73 68 63 57 57 56 53 53 53 50 46 41 39 42 44 42 42 44 45 46 49 48 49 52 56 59 66 71 75 81 84 89
95 96 95 93 89 85 81 78 76 72 70 69 65 57 53 55 54 51 50 49 47 42 39 38 38 39 39 39 40 43 46 44 45 48 50 52 55 60 65 69 75 80 84
96 95 93 90 86 82 76 71 69 68 66 62 58 53 51 51 51 48 47 45 43 39 37 36 34 34 35 36 37 39 41 42 43 45 47 49 52 54 59 63 68 72 75
97 94 92 87 81 75 72 69 67 64 60 57 53 50 47 48 47 45 43 41 39 36 34 33 32 32 32 32 33 35 36 38 38 40 43 45 47 49 52 57 61 64 67
95 92 88 82 77 72 69 67 63 58 55 52 48 47 47 45 44 41 39 36 35 33 32 31 29 28 26 27 28 29 32 33 35 37 40 42 44 45 47 51 56 59 62
90 86 80 76 73 69 65 60 55 52 50 49 46 44 45 44 40 38 35 33 31 31 30 29 26 25 24 23 26 27 29 30 31 33 36 37 41 44 45 47 50 53 57
82 79 75 71 69 65 59 55 52 46 47 47 45 42 43 41 37 35 33 31 29 29 27 26 24 24 22 21 22 23 21 22 23 26 30 34 37 39 42 44 47 48 51
75 72 70 66 61 57 55 51 47 43 43 45 43 41 39 37 34 33 31 28 28 26 24 24 22 22 21 21 20 18 19 21 22 22 23 25 28 32 36 38 40 42 47
70 67 63 59 55 51 49 48 47 44 39 41 39 38 36 33 31 31 29 26 25 24 22 20 21 21 20 20 18 18 20 22 22 20 20 21 23 26 28 32 34 38 41
65 61 58 55 52 49 46 45 44 43 39 36 34 34 32 30 30 28 27 24 23 21 20 18 20 19 20 20 20 18 18 17 18 17 16 18 20 22 25 27 29 32 35
59 56 54 52 50 48 46 44 41 38 35 33 32 30 29 28 29 27 25 23 21 20 18 18 19 19 20 19 21 19 17 15 14 15 14 14 15 18 22 24 26 27 30
55 53 51 50 49 47 44 41 37 34 32 30 30 29 28 28 27 26 23 21 19 18 17 18 19 19 19 19 18 18 17 16 12 11 12 13 13 15 18 21 24 25 27
52 51 50 49 47 44 40 37 35 33 31 31 31 30 28 26 25 24 21 20 18 16 17 19 19 20 19 18 17 16 16 16 15 12 11 12 12 14 16 18 21 23 25
51 50 50 49 44 41 38 37 34 33 33 31 29 27 25 23 23 22 20 18 17 15 16 19 20 20 19 19 18 19 17 16 15 15 12 10 11 13 14 16 17 20 23
50 50 49 47 43 40 38 35 34 32 29 28 27 25 22 22 22 21 19 18 17 16 17 19 21 21 21 18 19 18 17 17 15 15 14 14 12 11 13 14 16 18 20
49 47 46 43 40 38 34 34 31 28 27 26 25 23 21 20 20 20 19 18 17 17 17 19 21 21 20 20 20 18 18 17 17 16 16 16 16 14 13 13 15 16 17
46 44 42 41 38 35 33 30 27 26 25 24 23 22 20 19 19 19 19 18 18 18 18 20 20 21 21 20 20 20 20 18 18 18 18 18 16 16 16 15 14 16 18
44 42 42 39 36 33 31 28 26 25 25 22 22 20 19 19 19 19 19 19 19 19 19 19 21 21 22 21 20 21 21 21 20 20 20 20 19 17 16 17 17 18 17

GFSGL_250_spd_015.txt.gz
Wind_Speed
106 110 114 115 118 119 122 119 117 114 109 102 95 92 90 88 87 86 83 83 82 80 78 75 73 72 69 67 67 67 68 70 69 80 83 87 87 88 91 95 101 106 111
116 118 120 119 118 120 115 111 111 106 100 93 91 90 86 84 83 82 78 76 75 74 76 75 72 69 66 65 65 64 63 65 66 72 83 88 89 88 90 91 96 103 108
120 122 123 118 119 113 108 105 103 97 92 90 88 86 84 83 82 79 77 75 77 77 76 75 73 69 67 65 63 61 61 60 61 66 76 83 87 88 88 90 92 98 106
124 126 124 122 112 105 103 99 96 93 91 89 87 82 79 78 77 75 74 74 74 74 74 71 67 64 61 59 59 60 59 58 59 60 69 77 82 86 85 87 89 92 99
131 128 123 115 108 100 98 95 93 92 91 88 87 85 82 78 76 74 72 72 74 74 70 65 61 57 56 56 56 58 58 58 60 60 62 71 76 81 82 83 85 89 92
124 121 111 107 102 97 94 92 89 87 85 83 80 78 76 75 72 69 68 67 67 64 61 58 56 54 54 55 56 57 58 56 57 58 60 65 71 75 80 80 81 83 86
118 110 105 100 97 95 93 91 89 88 86 81 77 73 70 68 65 63 63 62 59 55 53 53 54 54 53 53 54 55 55 54 54 54 58 62 67 70 74 78 80 78 83
113 106 101 97 95 92 92 89 86 83 79 75 70 66 65 64 61 60 58 55 53 50 48 50 51 52 49 48 49 49 49 49 47 48 53 58 64 68 70 73 77 79 79
109 104 101 98 95 90 86 83 81 78 73 69 67 64 61 61 57 56 52 51 50 47 46 46 47 47 45 44 47 49 48 45 45 48 51 55 59 64 67 70 73 77 80
110 106 100 94 89 85 81 79 75 71 68 66 64 59 56 55 53 52 47 48 47 46 42 43 42 44 44 42 44 45 44 42 42 43 46 50 54 57 60 65 69 73 77
107 101 96 89 83 80 77 71 67 65 62 60 58 53 50 48 51 47 45 45 45 42 40 39 40 39 39 40 39 40 40 40 39 39 41 45 49 52 55 58 63 66 71
103 97 89 84 79 74 70 65 62 59 58 55 53 49 44 44 46 44 43 43 41 38 38 36 35 35 34 34 35 38 39 39 37 36 36 39 44 48 51 53 57 60 66
92 86 82 77 72 69 65 61 57 53 53 52 48 45 42 41 42 41 41 39 37 36 35 34 33 31 30 31 31 32 33 34 35 34 34 35 39 41 44 49 52 55 58
83 78 72 69 65 62 58 54 52 50 48 46 46 43 40 41 40 38 37 35 34 33 32 31 31 28 28 28 28 28 29 29 31 33 34 32 34 37 41 42 45 50 54
76 72 68 65 61 58 55 52 50 46 45 46 44 42 41 39 38 36 34 32 31 31 30 29 28 26 25 25 24 26 26 26 27 28 28 30 32 33 36 39 41 42 48
72 68 64 60 57 55 52 50 46 44 42 43 43 42 39 37 34 32 31 29 29 28 28 27 26 25 24 23 23 22 23 22 22 24 24 24 25 28 32 33 36 39 41
68 64 60 57 54 52 48 46 45 41 40 42 38 38 36 33 31 30 28 27 27 26 26 25 26 25 22 21 21 19 20 22 21 21 22 22 22 22 25 29 30 32 36
63 60 56 53 51 48 46 44 43 41 40 37 35 34 31 29 28 27 26 26 25 25 24 23 25 24 23 21 20 19 20 21 21 21 21 21 22 21 21 23 26 28 30
60 56 54 51 48 46 44 42 40 38 36 33 31 29 28 27 27 27 26 25 24 23 23 23 24 24 22 21 20 20 20 20 19 19 19 19 19 21 21 21 22 24 27
55 52 50 49 46 45 43 40 37 35 33 31 30 29 29 28 27 26 25 24 22 22 22 22 23 23 22 21 21 20 20 19 17 16 17 17 17 17 19 20 21 22 24
52 50 47 46 46 44 41 38 36 34 33 32 31 28 25 25 24 23 22 21 21 21 21 22 23 23 22 21 21 20 18 19 18 18 16 15 15 15 15 18 20 21 22
49 48 47 46 44 42 39 37 34 33 33 31 27 25 24 23 22 20 20 20 19 20 20 22 23 22 22 21 21 21 20 20 19 18 17 16 15 14 15 16 18 20 22
47 46 46 44 42 40 37 35 33 32 30 28 26 25 23 22 21 19 19 18 18 19 20 21 23 23 23 23 21 21 20 20 19 18 18 16 15 14 13 15 17 17 20
47 46 44 42 40 37 35 33 31 29 27 26 25 24 22 21 20 19 17 17 17 18 19 21 23 23 23 23 23 23 22 22 21 19 18 18 16 14 14 14 16 17 18
45 45 43 41 39 37 35 31 29 27 25 25 25 23 21 20 20 18 18 17 17 17 19 20 22 23 24 24 24 24 23 23 22 21 20 19 19 17 16 14 14 17 18
43 42 42 40 39 37 34 30 27 26 25 24 24 22 21 19 19 19 18 18 18 17 18 19 21 22 24 25 25 24 24 24 24 23 22 22 21 20 19 17 17 16 17

GFSGL_250_spd_018.txt.gz
Wind_Speed
104 109 112 117 120 120 120 118 115 114 111 104 100 94 92 88 86 83 80 78 76 76 75 74 73 73 72 71 68 66 64 63 58 67 75 85 91 90 90 87 87 90 94
111 117 121 123 127 124 120 119 116 112 105 102 97 93 90 87 86 84 81 78 77 77 78 78 77 75 73 72 70 67 64 64 60 60 73 76 83 88 86 84 80 82 88
118 123 126 128 132 127 123 120 111 105 100 96 94 92 90 87 84 81 78 76 76 76 76 76 75 74 71 68 67 67 67 65 63 61 71 77 80 87 87 83 81 78 80
126 127 132 134 131 126 118 109 101 98 96 95 93 90 86 82 79 78 76 74 74 75 75 74 72 70 69 69 67 66 64 63 62 59 64 72 74 80 83 82 78 77 78
131 135 136 132 123 116 109 103 101 99 95 90 86 82 80 78 75 73 72 72 72 71 69 67 65 64 64 63 63 63 61 60 59 58 60 66 70 74 78 80 75 73 74
136 137 133 124 115 109 105 102 97 93 88 82 78 74 72 70 67 65 64 65 65 65 64 63 63 62 60 58 57 58 61 60 59 57 59 63 68 70 74 75 75 73 73
136 131 123 112 108 106 102 96 92 87 82 77 73 70 68 66 63 61 61 61 61 61 58 58 59 57 54 54 56 56 57 57 56 53 54 60 62 65 70 73 74 73 74
127 120 112 109 108 104 98 92 86 82 79 75 70 66 63 61 58 57 57 57 57 54 50 50 51 52 50 52 53 53 52 51 49 50 54 57 58 59 62 67 70 70 72
117 112 111 108 103 97 92 87 81 76 72 68 65 62 60 59 56 54 53 53 49 46 44 44 46 48 47 49 51 49 47 44 44 45 47 51 52 53 56 60 64 65 69
112 111 108 102 96 91 85 79 74 70 68 64 62 58 55 54 50 49 48 45 42 41 39 41 44 46 46 45 45 43 44 43 42 43 45 48 51 51 52 55 58 60 63
111 105 99 93 89 84 79 74 70 66 63 59 57 53 49 46 48 47 43 40 40 38 38 40 42 43 41 41 40 40 41 40 39 39 39 41 45 47 48 51 54 56 58
104 95 89 84 80 76 72 69 65 60 58 56 54 51 46 43 44 45 40 39 39 38 38 39 39 37 37 37 36 37 37 37 35 35 35 36 39 41 44 46 50 53 55
92 86 82 78 73 69 66 61 60 57 54 53 51 50 47 42 42 44 39 39 39 37 37 36 34 32 33 34 35 35 34 34 33 33 33 34 34 35 37 41 45 50 53
85 81 77 73 69 63 59 57 55 54 53 50 50 48 46 43 43 41 38 38 36 34 34 33 30 30 31 30 32 32 30 30 30 30 31 31 31 32 31 34 36 42 49
81 77 73 68 64 61 58 55 54 51 51 51 49 45 44 42 41 37 36 35 33 31 30 29 28 29 29 28 29 29 28 26 26 26 27 29 31 31 30 30 31 34 40
77 71 68 65 61 58 57 56 51 50 48 48 46 45 41 38 35 33 32 30 29 29 28 27 27 27 27 27 27 26 25 25 23 23 23 24 26 28 30 30 30 30 35
71 67 64 61 57 56 55 54 53 48 44 45 42 40 37 34 31 30 29 27 26 26 26 26 27 26 26 26 26 25 24 22 21 20 21 20 22 22 23 23 29 30 30
66 63 61 57 55 54 53 51 49 46 43 38 37 35 32 30 28 27 26 25 25 25 25 26 26 25 24 25 24 23 22 21 21 21 19 19 20 20 20 18 21 25 29
64 60 57 54 53 52 51 49 45 42 39 36 33 30 29 28 28 28 27 25 25 24 25 25 25 25 24 24 23 21 20 20 19 19 18 19 19 20 20 20 19 19 23
60 57 55 53 52 52 49 45 42 40 37 35 31 29 27 25 24 23 23 23 23 23 23 23 23 24 24 23 21 20 19 19 18 18 17 18 19 20 20 20 20 19 19
57 54 52 51 51 50 47 43 41 39 36 33 30 27 24 22 22 21 20 20 20 20 21 22 22 23 23 23 22 20 19 18 18 18 17 18 18 19 19 19 19 20 20
53 52 50 50 49 46 44 41 40 37 35 32 29 25 24 23 22 20 19 18 18 18 20 20 21 22 23 23 22 21 19 17 17 17 17 18 18 18 19 20 19 19 20
50 50 49 48 46 44 43 40 38 35 32 31 27 25 24 23 22 20 19 18 18 18 19 20 21 22 23 23 23 21 20 19 19 19 19 19 18 18 18 20 20 19 19
49 49 48 46 44 42 42 39 35 33 31 29 26 24 24 23 22 20 19 18 18 18 19 20 21 22 23 24 24 22 21 21 20 20 20 20 20 19 19 19 20 20 20
47 48 46 45 43 40 39 38 33 31 30 27 26 25 24 23 22 20 19 18 18 18 19 20 21 22 23 24 25 24 23 22 22 22 22 21 21 20 20 19 18 19 20
47 46 45 44 42 40 38 37 33 29 29 27 26 25 25 24 23 21 20 19 19 19 19 20 21 22 23 24 24 25 25 24 23 23 23 23 23 23 22 21 20 19 19

GFSGL_250_spd_021.txt.gz
Wind_Speed
99 106 114 120 125 127 132 133 126 121 117 114 111 103 97 94 90 85 84 84 83 81 79 79 77 75 74 73 72 71 70 71 67 71 78 83 87 90 95 97 95 93 91
110 115 123 130 133 131 131 127 122 116 113 106 99 97 96 94 92 89 84 81 78 77 76 76 75 74 73 73 72 71 70 68 65 66 78 80 83 90 92 95 97 96 92
115 125 129 138 137 132 130 122 115 109 103 100 98 96 93 90 87 84 81 77 74 73 72 71 71 72 71 70 70 70 69 67 65 64 73 79 81 88 93 93 93 92 90
126 128 140 143 134 124 118 113 107 104 103 100 95 91 85 80 77 75 73 70 68 67 66 66 66 66 66 65 65 65 64 63 62 60 65 74 74 81 85 89 90 89 86
132 138 143 131 123 117 110 105 102 101 99 93 86 79 75 72 68 66 65 65 64 63 63 61 60 59 59 58 59 60 60 59 59 58 60 66 69 71 76 80 82 83 81
132 144 130 121 115 109 102 102 99 95 89 84 79 74 69 65 60 58 56 57 57 57 57 57 55 55 55 56 57 57 58 58 57 54 55 61 62 62 65 69 70 73 75
138 130 117 111 108 107 104 97 91 87 82 78 74 69 65 62 59 57 55 54 53 52 52 52 53 53 53 53 54 54 53 53 51 49 53 57 58 58 60 64 67 68 69
128 115 110 109 106 101 96 91 86 80 76 72 68 64 62 59 56 54 52 51 49 47 46 47 49 50 47 48 49 48 46 47 47 49 53 55 56 56 57 60 63 66 68
114 110 108 106 101 95 89 84 79 75 71 67 63 59 56 54 49 48 48 48 45 42 40 42 44 43 41 43 42 43 43 43 46 48 51 53 52 51 52 54 59 59 63
108 107 104 100 94 87 81 77 75 72 68 64 60 55 51 49 46 46 44 43 40 36 36 38 38 39 38 39 39 41 41 42 43 44 45 46 47 47 47 50 52 54 56
106 104 98 90 84 80 77 73 70 68 65 62 58 53 48 44 44 43 41 37 35 34 33 34 35 35 35 37 37 38 38 39 40 39 40 40 42 43 44 46 48 52 52
105 99 90 84 80 76 71 67 64 62 59 56 54 49 43 39 40 43 40 35 33 34 32 33 34 34 35 34 35 35 35 35 36 36 36 35 36 37 38 40 43 47 51
97 90 85 81 76 70 67 63 61 57 54 51 49 47 43 40 40 40 38 36 35 34 32 33 34 32 32 31 32 31 32 33 32 33 33 32 32 33 33 34 37 42 46
89 85 82 76 72 68 63 59 56 54 52 51 48 46 44 42 41 37 34 34 33 31 31 31 31 30 29 29 29 29 30 31 30 30 30 30 30 31 30 29 32 35 40
84 81 76 72 67 64 61 56 54 52 52 52 49 46 44 39 37 34 32 30 29 28 29 29 28 27 27 26 27 28 29 29 27 27 27 28 28 27 28 28 28 29 35
80 75 71 67 64 60 58 57 51 49 48 48 45 42 39 38 34 32 29 27 26 25 26 25 24 24 24 25 25 26 27 26 25 25 25 24 25 24 24 27 28 27 27
75 71 67 64 61 58 56 55 55 50 43 43 41 38 36 35 33 31 27 25 23 23 23 23 22 22 23 24 24 24 25 23 23 24 23 23 23 22 20 23 26 29 27
70 67 64 62 58 56 55 54 52 50 45 39 36 35 33 31 30 29 27 26 25 24 23 23 23 22 23 23 23 23 22 21 21 21 21 22 22 20 19 18 19 26 27
66 64 62 58 55 54 53 52 50 46 41 38 35 34 30 29 28 25 24 23 24 24 24 24 23 23 22 23 22 22 21 20 19 19 19 20 20 19 19 18 17 17 21
63 61 57 54 53 53 52 50 47 44 40 38 35 32 29 27 24 22 21 21 21 22 23 23 23 22 22 22 22 21 21 20 20 19 20 20 20 20 18 18 18 18 17
59 56 52 51 51 51 50 48 45 44 40 38 35 31 28 25 23 22 21 20 20 20 21 22 22 22 21 21 21 21 21 20 20 21 20 22 22 19 17 16 17 18 19
54 52 50 50 49 49 47 46 43 42 40 37 34 30 27 24 22 22 21 20 20 20 20 21 22 22 21 22 22 21 21 21 21 21 21 21 22 21 19 18 17 17 18
51 49 49 49 47 46 45 44 43 41 40 35 32 29 26 24 22 21 21 19 19 20 21 22 22 22 22 22 22 22 22 21 21 21 22 22 23 22 20 18 18 18 18
49 49 48 47 45 45 43 43 42 41 39 35 32 28 26 24 22 21 20 19 19 19 20 21 22 22 23 23 23 23 22 21 21 21 22 23 22 22 21 20 20 19 19
48 46 46 45 44 43 43 43 42 40 37 34 32 29 27 25 24 22 21 20 20 19 20 21 22 23 23 24 24 24 24 23 23 22 22 23 23 23 22 22 22 21 21
45 44 44 43 43 43 43 41 40 38 36 33 31 29 27 26 25 23 21 21 20 20 21 21 22 23 24 24 24 25 25 24 23 23 23 23 24 23 23 22 22 23 22

GFSGL_250_spd_024.txt.gz
Wind_Speed
95 99 102 106 110 113 120 125 132 134 132 131 125 114 107 103 99 97 93 90 86 81 79 80 81 80 79 79 80 79 77 76 72 81 83 85 85 85 89 91 93 96 102
103 105 108 112 117 123 129 136 135 133 129 123 114 109 105 102 97 92 87 83 79 76 73 73 72 72 72 70 71 73 73 72 69 75 82 86 88 90 90 91 91 91 94
108 111 115 119 126 132 134 131 129 126 119 112 109 105 101 95 87 81 78 75 72 70 68 67 66 65 65 65 64 65 66 66 65 66 76 83 86 91 92 92 92 92 92
113 117 123 128 133 134 132 128 124 115 111 108 104 97 90 84 78 74 71 69 67 64 61 59 58 58 59 60 59 60 60 61 62 63 70 80 81 86 89 92 93 93 92
120 127 132 134 130 126 123 117 110 107 103 98 90 84 80 77 73 69 64 61 59 58 56 55 52 52 52 52 53 55 56 58 58 58 65 73 75 78 80 85 85 87 87
129 137 130 125 121 116 109 108 105 102 95 88 82 78 75 71 68 63 60 56 54 52 51 49 49 49 48 48 49 50 51 52 53 54 60 65 65 64 68 72 75 79 81
133 126 121 117 110 104 104 103 97 90 84 79 76 72 68 63 60 56 54 53 51 48 46 46 44 44 46 45 45 46 47 46 47 49 54 60 60 61 62 65 69 70 72
121 117 112 105 101 101 99 93 87 83 79 74 69 65 61 57 53 51 51 50 48 46 43 41 41 42 41 41 42 42 41 41 43 46 47 50 52 53 55 57 60 62 65
113 107 101 100 100 96 90 85 81 78 72 69 66 61 57 53 49 47 47 47 45 42 39 39 40 40 38 37 38 36 36 36 37 40 43 46 46 47 48 51 56 55 60
106 101 99 99 95 89 83 80 76 71 68 65 63 57 51 49 47 46 44 43 40 36 35 38 36 35 33 33 33 33 32 33 35 38 41 44 44 45 45 49 51 53 56
101 99 97 93 87 82 77 74 70 66 65 62 57 51 47 44 45 46 43 38 35 32 33 35 33 32 30 31 31 30 31 31 34 36 39 41 41 42 43 44 45 48 51
100 97 91 86 81 77 73 70 65 63 62 58 53 48 44 43 43 42 40 37 34 32 32 32 31 29 29 29 29 31 30 32 33 34 35 36 37 38 40 42 43 45 48
97 91 85 80 76 72 69 65 62 61 58 54 50 47 45 43 42 40 37 34 32 31 31 30 29 28 28 28 28 28 29 30 31 31 31 32 34 35 34 35 36 39 44
91 84 79 75 72 68 64 61 60 58 55 51 49 48 45 41 38 36 33 29 27 27 27 28 27 25 25 26 26 26 27 28 29 29 29 29 30 30 30 30 30 31 37
83 78 75 72 68 65 63 60 57 53 52 50 49 46 44 39 36 33 29 26 24 23 24 24 24 23 24 25 25 25 25 27 28 27 26 26 27 27 28 29 29 27 32
77 74 71 68 65 63 61 58 55 50 48 48 45 43 40 37 34 31 27 24 22 21 21 22 21 21 22 24 24 23 24 26 26 25 24 26 25 26 27 27 28 28 28
73 70 66 65 63 61 58 55 52 49 46 43 42 39 38 35 33 29 26 24 23 22 21 20 19 19 21 22 23 23 24 25 25 24 23 24 24 24 25 25 27 27 27
68 66 65 62 60 57 55 52 50 49 46 42 39 37 34 33 30 27 25 23 21 21 21 21 20 20 21 22 23 24 24 24 24 23 23 23 23 22 23 22 23 26 26
65 64 61 58 55 54 52 50 49 47 45 40 36 35 33 31 27 25 23 21 20 20 19 20 21 22 22 23 24 24 24 24 24 24 23 23 22 22 21 20 20 22 23
62 59 56 54 52 50 50 49 47 45 43 39 35 34 32 29 26 24 22 21 21 20 20 20 21 22 23 24 24 24 24 24 24 24 23 24 23 22 22 19 20 21 21
56 53 52 51 50 49 48 46 46 43 40 38 36 32 30 27 25 23 22 21 21 20 19 19 20 22 23 24 24 25 25 25 24 24 24 24 24 24 22 20 17 19 20
51 49 49 48 48 47 46 45 43 42 40 38 36 31 29 27 25 24 22 21 21 20 19 19 20 21 22 23 24 25 26 25 25 25 24 25 24 24 23 20 19 19 19
49 48 48 48 46 45 45 43 42 41 39 37 34 32 28 26 25 24 23 22 21 20 20 19 20 21 22 23 24 25 26 25 25 25 25 24 24 24 24 23 21 19 19
48 47 47 46 46 43 43 42 41 39 37 36 34 31 28 26 25 25 24 23 22 21 20 20 20 21 21 23 24 25 25 25 25 26 25 25 24 24 24 23 22 21 21
47 46 45 45 43 42 42 41 40 39 37 35 34 32 28 26 24 24 23 23 22 21 21 21 21 21 22 23 23 24 25 25 25 25 26 26 26 26 25 24 24 23 22
47 46 43 42 43 41 40 40 39 38 37 34 32 30 28 25 24 22 22 22 21 21 21 21 21 22 22 23 23 23 24 24 25 25 25 26 26 26 26 25 25 24 23

GFSGL_250_spd_027.txt.gz
Wind_Speed
94 98 101 107 110 113 119 121 126 131 138 141 141 137 129 124 119 112 109 106 102 95 89 84 81 78 77 78 78 78 80 81 81 84 84 87 87 87 85 85 88 88 93
101 104 108 114 119 122 127 132 137 141 142 137 130 123 117 112 110 107 104 98 91 85 80 76 72 70 69 69 70 71 71 72 70 73 78 79 81 84 84 84 86 89 89
109 112 115 120 125 131 135 138 139 137 129 123 116 110 109 109 107 101 95 88 82 77 73 70 66 63 63 63 63 64 64 64 64 65 71 73 76 79 80 80 84 86 86
115 120 123 129 132 135 135 131 126 119 114 110 108 106 103 98 93 89 84 81 77 71 67 64 63 60 58 58 58 59 58 58 58 59 66 70 70 73 73 75 80 83 85
124 127 127 132 133 131 125 121 115 111 108 106 105 101 95 88 82 81 75 73 69 66 61 57 56 55 54 53 53 54 54 54 52 54 62 66 64 66 68 71 72 78 81
132 135 134 129 121 117 116 112 108 105 106 104 98 91 85 80 74 71 66 65 63 61 59 54 50 48 48 47 48 49 49 49 49 49 55 59 59 59 61 64 67 71 75
130 124 118 115 114 112 109 106 105 105 100 94 88 82 76 72 66 64 63 60 57 55 51 49 45 42 43 44 44 43 43 43 44 45 50 53 52 53 55 58 62 65 69
119 115 111 110 109 107 104 104 101 95 89 84 78 72 68 63 60 60 58 56 53 49 46 44 43 42 40 41 40 39 38 37 38 43 47 49 48 48 50 53 56 58 62
114 111 110 108 107 105 102 96 90 85 80 76 70 66 61 60 56 55 55 53 49 45 41 41 42 40 38 36 35 34 33 34 37 37 40 43 44 46 48 50 54 54 60
111 110 108 106 104 100 94 87 82 77 74 69 66 61 58 56 53 51 51 51 46 43 40 40 41 39 35 34 33 32 31 31 32 35 36 37 39 40 42 45 47 52 54
109 106 105 102 98 91 84 78 73 70 66 64 62 58 55 51 50 49 47 47 44 40 38 38 38 36 33 32 31 30 29 30 30 32 34 35 36 37 38 40 43 46 50
107 103 100 95 89 82 75 71 68 64 63 62 58 54 50 48 47 47 44 42 39 36 34 34 35 32 31 30 30 29 28 29 29 31 33 34 35 35 36 38 39 43 47
101 97 92 86 80 74 69 66 65 64 62 58 52 50 48 47 45 42 40 37 34 32 31 31 31 28 27 28 28 28 29 28 29 30 30 30 31 32 33 34 36 39 42
93 88 83 77 72 68 65 64 62 60 57 53 50 48 48 44 41 38 35 32 30 29 29 28 27 25 25 25 25 26 25 26 27 27 26 26 28 29 31 33 34 35 37
84 79 74 70 66 65 64 62 58 53 51 50 49 47 46 43 38 35 33 30 28 26 25 24 24 23 23 24 23 24 23 25 26 25 23 25 26 27 28 30 31 31 33
76 72 68 65 63 62 60 57 55 51 48 47 46 45 42 40 37 34 31 28 24 23 23 22 20 21 22 21 21 22 22 24 24 23 23 24 25 26 26 27 28 29 32
70 67 65 63 61 58 55 53 50 48 48 48 44 43 39 37 34 32 28 25 23 22 21 21 21 20 20 20 20 21 22 23 23 23 23 23 25 26 26 26 27 28 29
67 65 63 60 57 55 52 49 49 48 45 43 44 40 37 34 32 29 25 23 22 20 19 19 20 21 21 22 21 22 22 23 24 24 24 23 25 26 26 25 25 26 27
64 62 59 57 54 52 49 48 47 45 44 43 40 38 37 33 29 26 24 22 21 19 19 19 19 20 22 23 23 24 24 24 24 24 24 24 25 26 26 25 25 23 23
61 59 56 54 51 49 47 46 46 45 43 41 39 37 34 31 28 25 22 21 20 20 19 20 20 21 22 23 24 25 25 24 24 25 25 25 25 26 26 25 24 23 21
58 56 53 51 49 47 46 46 46 43 42 40 38 34 31 29 27 24 22 21 20 20 20 20 20 21 22 22 23 24 25 25 25 26 26 26 26 25 25 25 24 23 21
56 53 51 49 48 47 47 45 43 43 40 38 36 34 30 28 27 23 21 21 20 21 21 21 21 21 22 22 23 24 25 26 26 26 27 26 26 25 25 24 23 23 22
53 51 50 48 48 46 44 43 43 41 40 37 34 32 30 27 26 24 21 21 21 21 22 22 22 21 22 23 23 24 25 26 26 26 26 26 26 26 25 24 24 23 22
51 51 49 47 45 44 44 42 42 41 39 36 32 31 29 27 25 24 22 20 20 21 22 23 22 22 22 23 24 24 25 25 25 26 26 26 26 26 26 26 25 24 24
52 50 47 45 44 43 42 41 40 40 38 35 32 31 29 28 25 24 23 22 21 21 22 23 23 23 23 23 23 24 25 26 26 26 26 26 26 26 27 27 27 26 25
50 47 45 45 45 43 41 40 39 39 38 36 33 30 28 27 26 24 23 23 23 22 22 22 23 23 23 23 23 23 24 25 25 25 26 26 26 26 26 27 27 27 26

GFSGL_250_spd_030.txt.gz
Wind_Speed
90 94 100 106 114 121 126 129 129 130 132 131 123 121 116 111 109 110 111 110 107 103 101 96 91 84 79 75 73 70 69 67 64 70 69 73 78 82 86 88 87 84 87
98 104 110 116 122 129 131 132 133 131 126 122 119 113 111 109 108 108 108 108 105 100 92 86 82 77 74 70 66 65 64 63 61 63 67 68 70 75 78 80 82 82 84
107 115 120 124 130 133 132 132 130 121 119 116 114 113 111 109 106 104 103 97 91 88 84 80 75 70 66 63 61 58 56 57 57 57 62 64 65 69 70 71 72 76 81
117 123 128 130 132 132 131 129 119 117 115 112 110 109 108 106 102 98 92 86 82 80 77 73 69 65 61 57 55 54 53 52 53 53 58 59 59 61 62 64 66 69 73
125 131 136 134 134 132 125 118 115 113 111 110 108 106 102 97 90 87 84 79 75 72 68 64 62 61 59 53 50 51 50 48 49 51 54 53 54 53 53 57 59 63 67
132 135 134 127 129 123 117 113 109 107 106 104 100 95 91 85 80 79 76 71 68 65 62 60 55 53 52 51 47 47 46 45 46 48 50 50 49 48 49 49 52 58 62
137 133 126 124 121 115 112 108 106 104 101 96 90 86 82 77 73 72 68 65 63 61 57 53 50 49 48 47 45 43 42 42 42 43 46 46 47 46 45 46 48 51 56
131 129 128 121 118 111 107 105 102 97 91 87 81 78 75 72 65 65 63 61 60 56 52 49 48 48 45 43 41 37 37 37 38 40 42 40 42 41 43 45 46 48 53
129 120 117 105 99 103 100 98 93 88 83 80 75 71 68 66 63 61 57 55 54 52 48 45 45 46 43 39 37 36 34 34 36 38 37 36 38 39 41 44 43 46 50
124 116 111 108 101 94 91 87 83 79 76 73 69 66 63 60 58 56 51 50 51 49 47 45 42 42 38 36 35 33 32 33 33 32 34 34 34 36 38 39 42 44 47
128 117 106 102 97 92 86 81 77 73 69 66 65 62 57 55 53 51 49 49 48 44 40 38 37 35 33 33 32 32 30 30 29 30 30 30 31 32 34 36 37 39 43
115 108 100 95 90 84 79 74 70 67 65 63 61 58 54 52 50 48 47 45 42 40 36 34 32 30 29 28 29 29 28 28 28 28 28 28 28 29 31 32 34 37 40
104 97 92 87 83 76 71 68 66 64 62 59 56 54 51 50 49 45 42 41 39 35 33 31 29 27 25 25 25 25 26 26 26 27 27 27 28 29 31 32 33 36 39
95 89 83 79 74 70 67 65 63 61 57 54 53 52 50 48 46 43 40 38 35 32 30 28 26 23 23 22 22 23 24 24 25 27 27 27 28 28 30 31 32 34 36
89 82 78 72 70 67 65 63 59 56 54 52 50 49 48 46 44 41 39 35 32 30 28 25 23 21 20 20 20 22 22 23 24 25 25 25 26 27 27 29 31 32 34
82 77 73 70 67 65 62 59 57 55 53 50 47 45 43 42 40 39 36 33 30 27 25 23 22 21 20 19 19 20 21 22 24 23 23 24 24 25 26 28 30 31 32
77 72 69 65 63 61 59 57 55 52 51 49 47 44 42 40 39 37 35 32 28 25 23 21 20 19 19 19 19 19 20 21 23 23 23 23 23 24 26 28 28 28 28
72 69 65 62 60 58 56 54 51 48 48 46 45 43 42 40 37 34 32 29 25 23 21 19 19 18 18 19 20 20 21 21 22 23 22 23 24 25 26 27 27 26 26
69 66 62 59 57 54 53 51 49 47 45 43 42 41 41 39 35 32 31 27 24 21 20 19 19 19 19 20 21 23 23 23 23 24 24 24 25 26 26 26 26 26 25
66 63 60 56 53 52 52 50 48 44 44 43 40 40 39 37 34 31 28 26 23 21 20 19 19 19 20 21 22 23 24 24 24 25 26 27 27 27 27 26 26 25 25
63 60 56 54 53 52 49 47 46 44 44 43 41 38 37 36 33 30 27 25 23 22 20 20 20 20 20 21 22 23 24 25 26 26 27 28 28 27 27 27 26 26 25
60 57 54 53 53 50 47 46 46 45 43 42 40 38 35 34 32 30 27 24 23 22 21 21 21 21 21 22 22 23 24 25 26 27 27 28 28 28 27 27 27 27 26
57 55 54 53 51 48 46 45 45 44 43 41 40 37 35 34 33 30 28 25 22 22 22 21 22 22 22 22 23 23 24 24 25 26 27 27 28 28 28 27 28 28 28
55 54 54 52 49 47 47 46 44 44 43 41 38 37 35 33 33 31 28 26 23 21 22 22 22 22 23 23 23 24 24 24 25 26 26 27 27 27 27 28 29 30 29
55 54 52 50 49 48 48 46 44 43 42 41 39 37 34 33 32 32 29 27 25 23 23 24 23 23 23 23 24 24 24 24 24 25 26 27 27 28 29 29 30 30 30
54 53 52 51 50 49 48 46 45 43 41 40 39 37 35 32 32 31 30 28 27 26 25 24 24 24 23 23 24 24 24 24 25 25 26 26 27 28 28 28 29 29 29

GFSGL_250_spd_033.txt.gz
Wind_Speed
91 95 100 104 108 116 122 127 131 133 135 132 124 119 115 113 111 108 105 103 102 100 95 93 89 82 77 74 70 66 65 63 60 64 65 67 71 74 76 79 83 83 92
94 99 103 107 113 120 127 130 131 133 128 119 118 117 114 110 106 103 100 97 94 90 87 84 81 76 72 68 65 61 59 57 55 60 60 62 65 69 69 71 75 77 79
100 105 111 115 119 127 131 132 127 121 121 120 119 116 110 105 102 99 94 89 83 81 78 74 71 68 66 64 60 58 55 53 53 54 59 57 59 62 64 66 68 69 70
105 113 120 124 126 128 128 131 132 128 125 119 115 110 105 100 95 91 87 82 77 73 70 67 65 63 60 58 57 57 53 50 50 50 55 55 53 55 58 60 60 63 64
113 120 127 131 131 133 136 133 124 122 114 109 106 102 97 91 84 81 78 75 72 69 67 64 62 60 58 54 54 54 49 45 44 45 49 49 50 49 49 52 55 57 59
120 125 131 133 128 128 122 113 111 108 104 100 96 91 86 81 77 75 73 70 67 65 65 64 61 58 54 50 48 48 45 40 39 41 43 43 43 43 44 46 50 53 56
127 132 130 128 130 118 109 100 95 95 93 90 85 82 78 74 71 69 68 66 65 63 60 57 56 52 48 44 42 44 41 37 37 39 40 39 40 40 41 43 44 47 51
131 130 129 130 119 114 107 98 94 91 86 82 78 75 73 69 67 65 65 63 61 58 54 52 50 48 44 42 41 40 40 36 37 38 38 36 39 36 39 40 42 45 50
135 131 129 127 117 107 102 98 92 86 82 78 74 72 70 67 64 63 59 56 54 51 48 46 46 45 41 38 38 38 37 35 36 36 34 32 34 35 38 40 39 45 47
134 128 129 118 109 103 96 91 85 81 77 75 70 67 64 62 59 57 54 52 52 50 48 43 40 39 36 34 33 33 33 33 31 30 29 29 30 33 35 35 38 40 43
128 128 121 107 100 95 88 84 78 74 72 69 66 62 60 57 55 52 50 49 48 46 42 40 36 33 31 30 29 29 29 28 27 27 27 27 28 30 32 33 35 37 39
128 119 110 101 94 89 84 78 74 70 67 65 63 60 57 54 52 50 47 46 45 43 39 35 31 29 28 27 27 26 25 24 25 26 26 25 26 27 28 30 32 34 36
120 110 101 94 87 82 77 73 69 66 63 61 59 58 56 53 50 48 45 43 41 37 34 31 29 27 26 25 24 23 22 22 23 24 24 24 24 25 26 28 29 32 34
110 101 93 87 82 77 72 69 66 63 60 57 56 55 54 52 50 48 44 39 37 34 31 30 27 24 23 22 21 20 21 21 21 22 23 23 24 24 25 28 29 31 33
102 94 88 83 78 73 68 65 62 59 56 56 54 52 53 50 47 44 43 40 36 33 30 27 25 22 21 20 19 19 19 20 21 22 22 24 25 26 27 28 29 32 34
93 87 83 77 73 68 66 63 59 56 54 54 52 49 46 44 44 42 39 37 34 31 27 25 23 21 21 20 19 18 18 19 21 22 23 23 25 26 27 28 29 31 32
86 81 77 73 67 64 62 60 56 55 53 51 49 46 45 43 41 38 38 35 33 30 26 23 22 20 19 18 19 18 19 19 21 22 23 24 25 26 27 28 28 29 30
80 77 72 68 64 61 58 56 56 56 53 49 48 46 44 43 41 39 36 35 32 29 25 22 21 19 18 18 18 19 20 21 22 23 24 24 25 26 27 28 28 28 29
75 71 67 63 61 57 54 54 54 52 50 47 46 46 44 43 41 39 36 34 31 28 25 22 21 20 18 18 19 20 21 23 23 24 25 25 26 26 27 28 28 29 29
71 66 63 61 58 54 53 52 50 49 48 48 45 43 42 41 39 37 34 31 30 27 25 22 21 20 20 19 20 21 22 24 25 26 27 27 28 29 29 30 29 29 29
68 64 61 58 55 54 52 50 49 48 48 48 45 42 40 39 37 36 34 31 29 27 25 23 21 21 21 21 21 21 22 23 25 27 28 29 30 30 31 30 30 30 29
64 61 59 56 54 53 51 50 49 48 48 47 45 43 39 38 36 35 34 31 28 26 24 23 22 21 21 22 23 23 23 23 25 26 28 30 31 32 32 31 31 30 30
61 59 57 55 53 52 51 50 50 49 47 44 42 41 39 37 36 35 34 33 29 26 24 23 22 21 21 22 23 24 24 24 25 26 28 29 31 32 32 32 32 32 32
59 58 56 54 52 52 52 50 48 45 43 41 39 38 38 36 35 34 33 33 31 28 25 24 23 22 22 23 23 24 25 25 25 26 27 29 30 31 32 31 31 32 32
56 55 54 52 52 51 48 45 44 42 41 40 39 38 36 37 36 34 33 32 32 29 27 25 24 23 23 23 24 24 24 26 26 26 26 28 29 30 31 31 31 32 33
56 54 52 52 50 47 45 44 43 42 42 41 40 39 37 35 35 34 33 32 32 31 28 27 25 24 23 23 23 23 24 24 25 26 26 27 27 28 29 30 31 31 32

GFSGL_250_spd_036.txt.gz
Wind_Speed
77 82 89 94 100 106 113 117 122 126 127 122 122 119 120 118 115 114 108 104 100 95 91 88 86 83 81 77 73 69 65 63 61 70 74 74 72 76 77 79 83 88 94
82 88 95 101 107 112 116 122 126 126 123 122 121 123 123 117 113 108 103 97 91 87 83 80 78 75 73 70 67 64 60 56 55 61 67 67 65 67 70 71 74 79 83
89 96 101 108 112 118 124 128 127 128 124 122 121 124 118 111 105 100 94 89 83 78 75 72 69 66 65 64 61 59 58 54 50 51 59 60 58 59 61 65 68 73 77
97 103 108 115 120 129 132 130 126 121 119 115 111 109 104 98 94 89 84 81 76 72 69 66 62 59 58 58 58 57 55 53 49 47 51 55 54 54 56 59 62 66 69
104 112 117 122 127 130 128 124 121 117 114 104 100 95 89 86 83 80 77 74 72 70 67 63 59 57 55 54 53 52 50 48 47 45 46 49 51 51 49 52 56 60 64
110 115 121 126 130 127 124 121 115 107 102 97 91 86 82 78 76 74 73 71 69 67 64 61 58 55 52 49 47 45 46 44 42 40 42 46 47 47 46 48 53 56 59
116 123 128 131 129 121 118 115 107 100 96 92 86 82 77 75 72 70 69 68 66 62 58 55 54 51 47 45 43 41 43 42 41 38 42 44 43 44 44 46 47 51 55
123 129 132 132 127 124 118 110 102 94 87 82 78 76 74 70 68 66 63 62 60 57 54 52 51 51 47 44 42 40 40 40 40 39 40 39 40 39 42 42 43 47 51
129 132 133 129 124 121 111 102 95 90 83 77 74 71 69 66 63 61 59 56 54 52 49 46 45 44 41 39 39 37 35 36 35 34 34 34 36 36 38 39 38 42 44
130 132 129 124 120 110 100 93 88 82 77 74 71 68 65 62 59 56 54 53 52 48 46 43 41 40 39 36 34 33 31 30 29 29 30 31 33 34 35 34 37 37 40
129 129 129 124 113 100 93 87 82 77 74 70 66 63 60 57 54 52 51 50 50 47 44 41 38 36 33 31 29 27 27 25 25 25 26 28 29 30 30 32 33 36 38
128 129 125 116 103 96 89 82 77 73 70 66 63 60 57 56 53 51 48 46 45 43 41 37 35 32 30 28 27 25 24 22 22 22 23 25 25 27 28 30 32 34 36
128 122 114 104 96 90 84 77 73 70 66 63 60 58 57 54 51 48 44 43 43 41 39 36 32 29 27 25 23 21 21 21 21 21 21 22 24 24 25 28 30 32 34
122 115 104 96 90 84 78 73 70 66 63 60 58 57 54 51 49 48 46 42 38 37 35 32 29 27 24 22 20 19 19 19 19 19 20 21 22 23 25 27 28 30 32
112 102 96 90 84 79 74 70 65 63 60 57 55 53 51 48 47 46 45 43 41 37 33 30 27 24 22 20 19 19 18 17 18 18 19 20 22 23 24 25 28 29 31
101 94 89 84 79 74 70 66 63 60 58 56 53 49 47 46 45 43 41 39 36 35 32 28 25 23 20 20 19 18 18 18 18 18 19 20 21 22 24 25 27 28 30
92 87 83 78 73 70 66 63 59 57 56 54 49 46 46 46 43 41 38 37 33 31 28 26 23 21 20 19 19 18 18 18 18 18 19 20 21 22 24 25 26 28 30
85 82 77 73 69 67 63 60 58 56 53 50 48 47 46 45 42 40 37 34 32 30 28 25 22 21 20 19 19 19 20 20 20 20 20 21 22 23 24 26 26 27 28
81 77 73 69 66 63 59 57 56 54 53 51 49 48 46 44 42 39 37 35 32 29 28 25 23 21 20 20 20 21 21 22 22 22 22 23 24 25 25 26 27 28 28
77 72 69 66 63 60 57 55 54 52 52 51 48 46 44 41 40 38 36 33 32 29 27 25 23 22 20 20 21 22 23 23 24 25 25 26 26 27 27 28 29 29 29
71 68 65 62 60 56 55 54 53 52 49 46 44 42 41 39 37 35 34 33 31 29 26 24 23 21 21 20 22 23 24 25 25 26 27 28 28 29 30 30 31 31 31
67 65 62 59 56 55 53 52 52 48 45 42 41 40 38 37 36 35 34 34 32 30 27 24 23 22 21 21 22 23 25 27 27 27 28 29 30 30 31 32 33 32 32
64 61 59 56 54 53 52 52 48 45 43 42 40 38 38 37 35 35 34 33 31 29 27 24 22 22 22 22 23 23 24 26 28 29 30 30 31 31 32 33 34 34 34
59 58 56 54 53 52 52 49 45 44 42 41 40 39 38 38 36 34 33 33 31 29 28 25 22 22 22 22 23 24 25 25 26 29 30 31 31 31 32 32 33 33 33
56 55 53 53 52 52 50 46 44 41 42 42 42 40 39 38 37 35 32 32 31 29 29 27 24 22 22 22 22 23 25 25 26 27 29 30 31 31 31 31 32 32 33
55 53 52 51 51 51 48 45 42 42 41 42 41 41 40 39 37 34 31 31 31 30 30 28 24 22 22 21 21 21 23 24 24 25 27 28 30 31 30 30 30 30 32

GFSGL_250_spd_039.txt.gz
Wind_Speed
68 73 79 86 91 96 102 106 112 117 121 122 123 124 125 119 117 119 117 112 108 103 98 93 89 84 81 78 75 71 68 66 62 67 71 74 72 71 73 75 80 85 90
74 81 87 92 98 103 108 115 120 124 126 129 129 128 124 119 115 111 108 103 99 94 88 83 80 75 72 70 68 66 63 61 56 58 65 68 67 65 65 66 71 76 82
81 87 94 100 105 111 116 120 126 131 132 131 125 119 118 111 107 102 96 91 87 82 78 74 71 69 67 65 64 63 61 58 54 51 58 60 63 62 61 61 64 70 75
90 96 102 107 112 118 123 126 129 127 123 120 115 110 105 100 96 91 86 82 78 75 72 68 66 65 64 63 60 59 57 55 52 49 52 56 57 59 57 56 57 63 68
98 103 106 112 120 125 126 124 119 117 113 111 107 100 96 91 87 83 79 76 73 70 67 64 63 62 59 57 55 54 53 51 49 46 48 51 53 55 54 53 53 55 63
104 107 112 122 125 127 123 122 120 114 111 107 100 93 89 85 81 77 74 72 69 67 64 61 60 58 56 54 51 49 49 48 46 43 44 45 47 48 48 50 53 55 61
111 115 119 125 125 126 125 123 116 112 105 98 92 87 83 78 74 71 69 68 67 64 60 58 58 56 53 50 47 44 43 44 46 44 43 41 43 39 40 47 50 52 56
116 124 127 125 126 127 123 120 114 108 99 92 85 80 76 73 70 68 66 64 62 60 58 57 56 55 51 47 44 41 40 38 41 41 39 36 39 38 40 42 45 48 49
125 127 128 127 126 123 120 117 107 99 92 85 81 75 72 69 66 64 62 61 60 58 55 52 50 48 46 43 39 37 34 34 33 33 33 32 35 37 38 40 40 43 42
128 128 127 126 124 123 118 110 100 93 86 80 75 70 67 65 62 59 58 59 57 53 49 45 42 40 39 37 35 33 30 29 28 27 27 29 30 32 36 36 38 38 38
131 128 128 127 123 118 109 100 93 86 80 75 71 67 64 62 59 58 55 53 52 50 47 45 41 38 35 33 30 28 26 24 24 24 24 25 26 28 31 32 33 35 35
129 129 128 123 117 110 101 93 86 80 75 71 67 63 60 58 58 55 51 48 47 47 45 42 40 36 33 29 26 24 22 21 20 20 21 22 22 24 27 28 31 32 34
129 129 124 118 110 101 94 87 81 75 70 67 64 60 57 57 55 52 48 45 44 44 43 40 36 33 30 26 23 21 19 18 18 18 19 20 21 23 25 27 29 30 31
128 122 117 109 102 94 87 80 75 70 67 64 62 58 56 54 52 50 48 46 42 41 40 37 33 31 27 24 20 18 17 15 15 15 16 18 19 21 23 24 26 28 28
121 116 110 103 94 87 81 75 70 66 63 61 59 56 54 52 51 50 48 46 43 40 38 36 32 29 24 21 19 17 16 15 15 15 15 17 18 19 21 22 24 25 26
114 109 102 94 87 80 75 70 67 63 61 59 57 55 53 52 51 49 46 43 41 37 36 34 31 27 23 20 18 16 16 15 15 15 15 16 17 19 20 21 22 23 24
106 99 94 87 81 75 70 67 63 60 58 57 54 54 54 51 48 45 43 40 38 34 32 31 29 25 22 19 17 17 16 15 15 15 16 16 17 18 20 21 22 23 25
98 93 86 81 75 71 68 64 60 57 54 52 53 52 49 45 43 41 40 37 34 32 30 29 28 25 22 20 18 17 17 16 16 16 17 18 18 19 20 22 23 24 26
91 85 80 75 72 69 65 60 57 55 52 51 50 47 45 44 43 41 40 37 34 32 30 28 26 25 23 21 19 18 18 18 18 18 19 20 20 21 22 23 24 25 27
85 80 75 72 69 65 61 57 54 52 52 51 47 44 43 42 41 40 39 37 35 33 30 28 26 25 23 21 20 19 20 20 21 21 21 22 22 23 24 25 26 26 28
80 76 71 68 65 62 58 54 52 51 51 48 45 43 41 41 40 39 37 36 35 33 30 28 25 24 23 22 21 20 20 22 23 23 24 24 24 25 26 28 28 29 30
75 72 69 65 63 59 55 53 50 49 48 45 43 41 41 40 38 37 36 35 35 34 31 28 25 23 23 23 22 22 21 22 24 25 25 26 26 27 28 29 30 31 31
70 68 66 63 60 56 53 51 50 48 46 43 41 41 40 39 37 36 35 34 34 34 31 28 27 24 22 23 23 23 23 23 24 25 26 27 27 29 30 31 31 32 32
67 64 62 60 58 54 51 50 49 48 45 42 40 40 40 39 38 37 36 34 32 33 33 30 28 25 22 22 23 23 24 24 25 25 26 26 27 29 30 31 31 32 33
63 61 59 57 56 53 51 49 49 48 45 42 40 38 38 39 39 39 37 34 33 31 32 31 29 26 23 22 22 23 24 24 25 25 26 27 28 28 29 31 31 32 32
60 58 56 55 54 53 52 50 48 47 44 42 40 38 38 38 39 39 38 36 33 31 31 31 29 26 23 22 22 23 23 24 24 25 25 25 27 27 28 29 31 31 31

GFSGL_250_spd_042.txt.gz
Wind_Speed
64 66 69 72 78 85 92 100 104 106 109 115 117 116 118 117 118 117 114 111 108 103 97 93 91 88 85 82 78 75 72 68 65 69 72 76 72 69 69 69 71 73 77
65 68 74 80 87 94 100 103 105 109 115 121 120 120 119 114 112 108 102 99 95 91 89 85 82 79 77 75 73 72 68 65 60 59 68 69 70 67 65 64 63 67 71
69 75 81 88 93 97 103 107 114 116 121 121 122 121 116 106 101 97 93 90 88 85 81 78 75 72 71 69 66 63 62 60 57 54 60 62 64 64 62 61 59 60 65
77 83 89 96 102 107 112 116 120 126 124 123 120 117 109 99 93 90 88 85 82 79 75 72 69 67 66 64 62 60 57 57 54 52 54 57 57 60 58 58 56 56 60
88 93 99 105 110 114 118 123 127 126 125 121 118 110 103 95 90 87 84 79 76 74 69 66 65 63 61 59 58 57 54 52 50 49 50 49 52 54 53 53 55 56 59
94 100 105 110 114 118 124 127 125 123 123 118 111 103 96 91 88 84 79 76 72 68 66 63 61 60 58 57 54 52 51 50 48 47 46 44 45 48 46 48 51 54 58
101 107 111 114 118 124 126 122 123 122 118 111 104 97 92 87 83 78 75 71 68 65 62 61 62 59 56 53 51 47 44 44 46 45 44 39 39 41 43 45 46 48 55
109 112 115 118 123 123 121 122 121 118 111 104 98 92 87 82 77 73 70 67 65 61 59 58 56 55 52 50 48 45 41 40 40 41 40 38 35 37 40 42 43 44 48
114 117 120 124 122 121 120 121 117 112 104 98 92 88 82 76 72 69 67 64 62 59 54 51 51 49 47 45 44 42 39 36 34 33 33 33 33 33 35 38 39 41 42
120 122 123 119 120 119 119 116 113 104 98 93 88 82 76 72 68 66 63 61 59 57 53 50 48 46 43 41 39 39 36 33 31 28 26 26 26 28 30 33 37 38 37
121 120 121 119 119 118 115 112 106 98 93 87 81 76 72 69 65 62 60 57 56 54 53 52 48 44 40 38 35 34 32 29 27 26 24 24 23 23 26 29 30 31 34
120 120 120 120 118 116 112 107 100 94 88 81 75 72 68 65 62 60 57 55 54 53 52 50 46 41 37 35 33 30 28 25 24 23 22 22 22 23 24 26 28 31 34
120 123 123 118 115 112 108 101 94 88 82 76 73 69 66 62 60 58 56 55 53 51 48 46 43 38 34 32 30 27 24 21 20 19 18 19 20 21 22 23 25 27 28
122 124 121 116 113 110 103 96 90 83 78 74 70 67 63 61 58 57 56 52 49 45 42 41 39 35 32 30 28 24 22 19 17 16 16 17 17 18 19 21 23 24 24
124 121 117 114 110 104 96 90 85 78 74 70 67 64 61 58 56 54 50 47 45 43 39 37 36 34 31 28 27 24 20 18 17 16 15 15 16 17 18 20 21 22 22
123 117 114 111 105 98 91 86 79 75 70 68 65 61 58 56 53 49 47 45 43 41 39 36 35 33 30 27 25 23 20 17 16 16 15 15 15 16 18 19 19 21 21
118 114 111 106 99 91 87 81 74 70 68 66 61 59 57 55 50 47 45 43 42 41 38 35 33 32 29 26 24 23 20 18 16 16 15 14 15 16 17 18 19 21 22
116 111 106 99 93 87 82 75 71 68 65 62 60 57 55 52 48 45 43 42 42 41 38 35 32 31 29 26 24 22 21 19 17 16 16 16 16 17 17 18 19 20 21
110 106 99 93 88 82 77 72 69 66 62 59 56 55 51 48 46 44 43 41 40 39 37 34 32 30 28 25 23 22 20 19 19 18 18 18 18 18 19 20 20 21 22
104 98 94 88 83 78 73 69 66 63 60 57 54 52 49 46 44 44 42 39 37 36 36 34 31 29 27 26 24 22 21 20 19 20 20 21 21 21 21 22 22 23 24
98 91 87 83 79 73 69 66 63 61 58 56 53 51 47 44 42 42 40 38 36 35 34 34 32 30 28 26 25 23 22 21 21 20 22 22 23 23 24 24 25 25 26
92 86 81 77 73 69 66 63 60 58 56 54 52 49 46 43 42 41 39 38 37 36 34 33 33 30 29 27 26 24 23 23 22 22 22 23 24 25 26 27 27 27 28
85 80 76 72 68 65 63 60 57 56 55 53 51 49 45 42 41 40 39 38 38 36 34 32 32 31 29 28 27 25 25 24 24 24 24 24 24 26 27 28 29 30 30
78 74 71 69 65 63 60 58 55 55 54 53 51 48 44 42 40 40 39 38 38 37 34 32 31 31 29 27 26 25 25 25 24 24 25 25 26 26 27 29 30 31 31
74 70 68 65 63 61 58 55 54 53 53 53 50 47 43 41 40 40 39 37 37 37 35 33 31 31 30 27 26 24 24 26 26 25 25 25 26 27 28 29 29 31 32
69 67 64 62 61 59 56 54 53 52 52 51 49 46 43 41 40 39 37 37 36 36 36 34 31 30 31 29 27 25 24 25 26 26 26 26 26 26 27 27 29 30 30

GFSGL_250_spd_045.txt.gz
Wind_Speed
58 58 60 64 69 74 80 86 92 96 99 101 104 108 109 109 112 114 112 109 104 98 93 90 87 83 81 78 76 74 72 69 65 71 71 72 71 69 68 66 67 68 70
58 60 66 72 78 83 89 94 101 100 101 105 107 108 113 116 116 112 107 100 95 90 86 82 79 77 74 72 71 70 67 65 62 60 71 68 67 65 65 63 64 62 63
62 70 75 79 88 93 98 102 102 103 106 108 114 116 117 117 113 105 97 91 88 84 81 78 74 73 71 69 67 66 63 61 59 54 63 62 64 62 61 61 61 60 60
71 77 81 88 96 99 106 104 106 108 109 113 115 116 115 111 104 96 90 87 83 78 75 73 71 68 67 67 64 61 59 57 56 55 57 58 58 58 54 56 57 56 58
79 83 89 97 102 109 110 110 111 111 114 115 113 112 108 103 96 91 86 83 79 75 72 70 68 66 64 63 60 59 56 53 52 51 52 52 52 53 51 50 53 54 55
85 91 97 104 109 115 114 115 114 114 115 113 109 106 101 95 92 87 82 78 75 73 71 68 65 63 61 58 54 50 47 48 49 48 46 44 45 47 46 46 50 50 52
91 97 103 108 116 117 117 112 115 114 113 109 104 101 95 91 87 82 78 75 73 70 68 65 63 60 57 54 52 49 47 45 44 42 41 39 40 40 42 41 44 47 48
98 104 110 116 118 117 114 114 115 111 108 105 102 97 91 87 82 78 75 73 69 66 64 60 58 56 54 52 51 49 46 43 41 39 38 37 36 36 36 35 38 42 42
105 111 116 120 118 116 114 114 113 108 106 104 100 94 88 83 78 75 72 68 66 64 61 58 55 54 51 49 47 45 43 41 38 36 34 33 32 32 32 32 35 36 36
111 117 120 120 115 115 114 113 112 109 106 102 95 89 85 79 75 72 69 66 64 62 59 58 54 50 47 45 43 41 38 37 34 32 31 28 28 27 28 29 30 33 36
117 121 121 117 115 113 114 115 112 108 104 98 91 85 80 75 71 68 66 64 62 59 58 54 49 45 42 39 38 36 35 33 32 29 28 26 25 24 24 25 27 30 33
122 124 121 117 116 117 117 114 109 107 101 93 87 82 76 72 69 66 64 61 59 57 52 49 47 43 39 36 34 33 32 31 28 27 25 24 23 23 22 23 24 25 27
125 121 117 117 118 121 118 111 107 103 96 88 83 78 72 69 67 64 62 59 57 51 48 46 44 41 38 34 31 30 29 27 25 24 23 22 22 21 20 20 21 21 23
120 118 118 119 122 120 112 109 105 98 91 85 80 74 69 67 64 62 60 57 52 48 46 42 40 39 36 32 31 29 27 25 23 22 21 20 20 19 19 19 19 21 23
119 120 119 122 122 114 111 107 100 92 86 80 75 70 67 64 62 60 58 54 50 46 44 42 39 37 36 33 29 27 25 23 21 20 20 20 20 18 18 18 19 20 21
120 121 122 122 115 112 108 102 94 87 81 76 71 67 64 62 59 57 55 51 47 44 44 41 38 36 34 31 29 27 24 22 20 19 20 20 20 19 18 17 18 19 20
123 124 123 114 113 107 102 95 88 81 77 72 67 64 61 58 57 55 53 49 45 43 41 40 38 35 33 30 27 25 23 21 20 19 19 19 20 19 18 18 18 19 20
127 122 113 112 106 101 93 88 82 77 73 67 66 62 59 56 55 53 52 47 44 42 39 37 37 34 32 30 26 24 23 21 19 18 19 19 20 20 19 18 19 19 19
118 112 110 105 99 92 87 82 78 73 69 64 61 60 57 54 53 52 50 46 43 41 38 36 36 35 31 28 26 24 22 21 20 18 19 20 20 21 20 20 20 20 21
113 108 102 97 91 86 82 77 74 70 65 61 59 57 54 52 51 50 48 45 42 40 38 36 34 33 32 28 26 24 22 21 20 19 19 20 21 22 23 22 22 22 23
103 99 94 89 85 81 78 74 69 66 62 60 57 54 52 49 49 48 46 44 40 39 38 36 34 32 31 30 27 25 22 21 21 20 20 21 22 24 24 25 25 25 25
95 91 86 83 79 75 73 69 65 62 60 57 54 51 50 48 47 46 44 42 39 38 37 35 34 32 30 30 28 25 24 22 22 22 21 22 23 24 26 27 27 27 28
88 85 82 78 74 71 68 65 62 59 57 55 52 49 47 47 46 44 42 40 38 37 35 35 34 32 29 29 29 26 24 23 22 23 23 23 24 25 26 27 29 30 30
82 79 76 74 69 66 63 61 59 57 54 52 49 47 45 44 44 43 40 38 36 36 35 34 34 32 31 29 29 26 24 23 23 23 24 24 24 26 27 28 29 30 32
78 74 72 68 65 62 59 58 57 55 54 51 49 46 45 43 42 40 39 38 35 35 34 34 34 34 32 29 28 26 25 24 23 24 24 24 25 26 27 28 29 30 32
73 70 67 64 61 58 57 56 55 54 53 51 49 46 44 42 39 38 37 36 34 33 34 34 33 32 31 29 27 27 25 24 24 24 25 24 24 25 26 27 28 29 31

GFSGL_250_spd_048.txt.gz
Wind_Speed
60 59 59 61 63 67 72 77 82 88 94 99 99 100 99 100 103 108 108 107 105 102 100 97 94 90 87 83 80 77 75 72 65 73 73 71 68 64 62 63 66 67 70
66 66 66 68 70 73 79 82 89 95 101 101 103 100 102 103 105 107 106 103 100 96 92 88 85 81 77 74 72 70 68 66 61 61 70 66 65 63 61 58 60 63 65
71 72 72 73 76 80 84 90 97 104 105 106 103 104 105 107 108 103 100 97 93 87 84 82 78 75 72 71 69 65 63 62 59 56 66 63 64 62 60 57 56 59 61
75 77 79 78 79 84 91 97 105 109 109 108 107 108 109 108 105 100 95 90 86 82 79 76 73 71 68 67 66 63 60 58 57 55 56 55 57 58 58 57 55 55 57
82 83 84 82 84 91 97 104 110 113 112 110 112 110 108 103 99 96 90 84 81 78 75 72 68 66 64 63 61 60 58 56 54 53 52 51 49 50 51 52 53 53 55
87 90 88 86 90 98 104 111 115 117 114 115 112 110 102 97 96 91 85 81 78 73 71 68 65 63 60 60 59 56 55 53 52 51 50 47 45 44 44 46 48 48 50
92 94 92 92 97 104 111 116 121 118 115 113 111 105 99 97 92 86 81 78 73 70 68 66 63 60 59 59 58 56 53 49 49 48 47 43 42 39 40 42 41 42 45
96 98 95 98 103 110 117 121 122 117 115 113 108 102 99 94 86 82 78 73 69 67 65 62 60 58 58 56 54 52 48 45 43 42 41 40 38 35 34 36 36 36 38
100 98 99 103 110 117 121 123 118 113 114 109 103 101 96 89 84 79 74 70 67 63 60 59 58 57 53 50 49 48 44 40 40 39 37 35 33 31 30 30 31 31 32
100 100 104 111 117 122 123 116 113 113 112 108 103 99 93 85 80 75 71 68 64 61 58 57 57 52 48 45 46 45 41 36 35 34 34 32 29 27 26 25 26 27 27
101 106 111 119 123 126 116 113 115 114 108 104 102 97 89 81 76 72 68 64 62 59 57 57 54 48 44 43 42 41 38 35 33 32 30 28 25 23 21 22 22 23 24
107 113 119 124 125 117 116 114 117 112 105 104 99 92 84 78 72 68 64 61 58 56 55 55 51 47 43 42 40 37 35 33 32 30 27 25 22 20 19 19 20 21 21
114 120 124 124 117 115 117 116 113 109 107 101 95 86 79 73 69 64 60 58 55 53 53 52 48 46 44 39 38 35 33 31 29 27 25 23 20 19 18 17 18 19 20
121 124 121 115 116 117 115 112 107 107 102 95 87 80 75 70 66 61 58 55 53 51 51 49 45 43 43 39 35 34 32 30 28 25 23 21 19 18 17 17 17 18 19
127 120 118 119 118 115 111 108 110 105 96 88 81 76 71 67 63 59 56 53 51 49 49 46 42 40 38 39 37 34 32 29 26 24 22 20 18 18 17 17 17 16 17
122 119 120 119 117 113 109 108 102 94 87 82 77 72 68 65 60 57 54 52 50 48 47 44 41 38 36 35 35 33 30 29 25 23 21 19 17 17 17 17 17 17 18
118 120 118 116 111 109 108 101 95 86 81 77 74 70 66 61 58 55 52 50 48 46 45 42 39 36 35 35 33 30 29 27 25 22 20 19 17 17 17 16 17 18 19
120 118 115 114 111 107 102 94 87 82 77 72 69 67 62 58 56 53 50 47 46 44 43 41 38 35 34 34 32 30 27 26 24 22 20 18 17 17 17 16 18 18 19
115 113 111 110 106 99 92 86 81 76 72 69 66 63 60 56 54 51 49 46 44 42 41 40 37 35 33 32 32 29 27 24 24 22 20 18 17 17 18 18 18 19 20
111 112 109 103 96 90 85 80 76 71 68 65 62 60 56 54 52 50 47 44 43 40 39 38 36 35 33 30 30 29 26 24 23 22 21 19 18 18 19 19 19 19 21
109 104 98 93 88 83 78 74 71 68 65 62 59 56 55 51 49 48 46 43 40 38 37 36 34 33 31 29 28 28 26 25 23 22 22 20 19 19 20 21 22 22 22
98 93 89 86 81 77 73 70 68 65 62 59 57 54 52 50 47 45 45 43 40 37 36 34 34 32 31 29 27 25 26 24 24 23 22 22 21 21 21 22 24 25 25
89 86 82 79 75 72 70 67 64 62 59 57 56 54 50 48 47 45 44 42 39 36 35 33 33 32 30 29 28 26 25 25 23 24 23 22 22 22 23 24 25 26 27
83 80 76 73 71 69 67 64 62 60 58 56 55 53 50 47 46 45 43 41 39 36 35 33 32 31 31 30 29 26 24 25 24 22 24 23 23 22 23 25 26 27 28
78 75 72 69 67 65 63 61 60 59 57 54 53 51 49 46 44 43 41 40 38 35 34 33 31 31 31 30 29 27 26 25 25 23 23 24 24 24 24 25 27 28 29
73 71 69 66 64 62 61 59 57 55 54 52 50 48 46 44 42 41 39 38 36 34 33 32 30 30 30 30 29 28 27 26 25 23 23 23 24 24 23 24 25 28 29

GFSGL_250_spd_051.txt.gz
Wind_Speed
65 69 72 76 77 79 77 77 78 80 81 82 87 94 99 105 111 109 107 107 109 112 111 104 104 101 97 93 89 86 82 79 72 72 76 74 70 69 65 64 67 70 74
72 76 77 81 84 86 81 81 84 85 85 88 93 101 106 112 112 109 110 110 110 106 101 100 97 93 89 85 82 78 75 73 69 63 73 68 66 66 64 61 61 63 68
78 82 84 87 90 88 83 87 90 90 91 96 103 108 114 115 112 111 109 107 103 99 96 93 89 85 81 78 74 73 70 68 66 62 66 64 62 61 59 58 58 59 61
82 86 89 92 94 90 90 93 96 94 98 104 109 115 119 114 112 111 107 97 96 95 90 87 81 77 74 71 70 68 65 64 62 59 58 59 55 54 53 54 53 53 56
89 91 95 96 96 93 94 98 98 99 106 111 116 119 115 111 112 106 100 96 92 88 84 79 74 72 69 67 65 63 60 59 58 57 55 55 54 51 50 51 51 51 52
92 95 99 98 97 96 100 100 101 105 112 117 121 118 115 111 109 97 95 93 86 81 77 74 70 66 66 63 63 59 56 54 53 51 50 48 48 45 45 46 47 49 50
96 100 101 98 98 101 102 103 107 112 117 120 119 117 114 108 102 97 91 86 81 76 72 69 66 63 63 60 57 56 53 51 49 47 47 44 42 39 39 40 41 45 45
101 103 99 99 102 103 104 107 114 117 120 121 115 115 109 102 101 96 87 80 76 72 69 66 63 61 59 56 54 52 49 48 46 44 43 40 36 36 35 35 36 38 40
102 98 100 102 102 106 109 115 118 120 122 115 114 107 103 99 96 89 82 77 73 69 65 63 60 57 54 52 50 49 47 46 43 41 39 36 33 33 32 32 33 34 34
99 101 102 104 108 111 115 120 121 123 115 112 108 104 102 96 91 83 77 73 69 65 61 58 58 54 52 49 47 44 44 42 40 37 36 34 32 30 29 28 28 28 29
101 103 106 110 114 117 122 123 125 116 113 109 106 103 98 92 85 78 74 69 66 62 59 56 53 53 51 48 45 43 40 38 37 35 32 30 29 28 25 24 24 24 24
104 108 112 116 120 124 124 123 117 113 109 106 103 97 93 86 82 75 71 67 64 60 56 54 51 50 48 46 43 41 38 36 34 32 30 29 27 25 22 20 20 20 20
110 113 118 122 127 127 123 117 115 111 108 103 97 92 87 82 77 72 67 65 61 57 55 52 49 48 46 45 42 38 37 35 33 30 28 27 25 23 20 18 17 16 17
116 120 123 127 127 122 119 115 111 107 105 98 94 87 82 78 73 68 65 61 57 55 53 49 48 46 45 43 40 38 34 33 31 29 27 25 23 21 19 17 15 14 15
122 125 129 124 119 117 114 113 110 105 97 92 88 83 80 75 70 65 62 58 55 52 50 48 46 45 43 41 38 36 35 32 30 28 26 24 21 20 18 16 14 13 13
125 128 122 118 117 114 110 109 104 98 93 87 83 79 75 70 67 63 58 55 52 50 48 46 44 43 41 39 36 34 34 31 28 27 25 23 21 19 18 16 14 14 13
126 122 119 117 114 110 107 103 96 93 89 85 79 75 71 67 63 60 56 53 51 48 46 45 43 42 40 37 35 33 32 30 28 26 24 22 20 18 17 15 15 14 14
120 118 116 114 111 107 101 96 91 86 83 79 75 72 68 63 59 56 53 51 49 46 44 43 42 40 39 36 33 32 31 29 27 25 23 22 20 18 17 16 15 15 14
116 113 112 110 106 100 95 91 86 81 78 74 70 66 65 61 57 54 52 49 47 45 43 42 41 39 37 34 32 30 29 28 27 24 22 21 19 18 17 16 17 16 15
111 108 105 101 98 93 88 84 80 76 73 70 67 64 61 60 56 54 52 48 45 43 42 42 41 39 36 34 31 29 27 27 25 25 23 21 20 18 18 18 17 18 17
106 105 101 95 89 85 82 78 74 72 69 67 64 61 59 58 56 53 51 48 45 42 42 41 40 39 36 33 31 29 27 27 26 25 23 21 20 19 19 19 19 19 20
102 100 93 88 84 80 77 73 71 69 66 65 63 61 58 56 54 51 48 47 45 42 40 40 39 38 36 33 31 29 27 26 26 26 24 22 21 21 20 20 21 21 21
94 90 89 83 80 76 73 71 68 67 66 64 62 60 56 53 52 50 47 44 43 41 39 37 37 36 36 33 31 29 27 26 25 25 24 23 22 21 21 22 22 23 23
87 83 82 78 74 72 69 67 67 66 64 61 58 56 53 51 49 47 46 43 41 39 37 36 36 35 35 33 30 29 27 26 25 23 24 24 24 23 22 23 23 24 25
81 78 76 74 71 69 69 68 65 62 59 57 55 53 52 50 48 46 44 42 40 39 37 35 34 34 34 33 30 30 28 27 25 24 24 25 25 25 24 24 24 25 26
76 73 71 68 68 67 66 65 63 60 58 56 53 51 49 48 46 44 42 41 39 38 36 35 34 34 33 32 31 31 29 28 27 25 24 24 25 25 26 25 25 26 27

GFSGL_250_spd_054.txt.gz
Wind_Speed
63 65 70 75 79 82 85 88 91 93 97 94 90 91 93 94 96 102 105 108 111 109 109 111 110 108 105 103 101 98 93 88 78 75 77 77 72 70 69 67 68 68 71
71 74 79 82 86 88 91 93 95 99 97 92 92 94 96 101 103 107 112 113 110 110 111 110 106 105 102 98 94 89 85 80 74 70 73 72 69 67 65 64 64 64 66
76 80 83 85 88 91 93 96 100 97 93 94 95 99 102 106 110 115 117 111 112 113 109 105 104 99 94 90 85 81 76 73 71 66 67 68 66 64 62 60 60 61 61
79 83 85 87 92 94 97 102 97 96 94 97 102 105 106 112 115 120 115 112 112 108 106 103 97 91 86 83 77 74 69 67 67 64 64 63 63 60 56 56 57 57 59
82 85 90 92 94 98 103 99 96 97 100 104 109 110 115 118 116 113 112 111 106 102 100 95 89 81 79 75 71 68 64 62 63 62 61 60 57 51 49 50 51 52 53
86 89 93 94 99 103 100 98 99 102 106 109 113 115 120 119 115 114 110 104 101 97 90 85 80 74 73 70 68 64 61 59 59 58 56 52 48 44 46 46 46 47 50
90 95 96 99 104 100 99 100 105 110 113 114 119 119 119 115 116 111 106 101 97 90 83 78 75 70 70 65 62 59 59 57 56 55 51 45 45 42 42 40 39 41 42
96 97 101 104 101 99 101 106 111 115 117 121 122 119 115 113 110 108 104 98 90 83 77 74 71 65 65 61 58 57 56 55 54 49 48 46 43 41 39 37 36 36 37
96 102 105 101 100 103 107 112 117 120 121 122 121 117 116 108 106 103 97 90 83 78 73 70 68 62 61 58 56 55 53 52 49 45 45 43 39 38 37 33 34 34 34
103 106 102 101 105 109 113 118 120 124 125 125 119 115 110 104 102 97 89 85 79 75 70 66 65 60 58 55 54 52 50 49 45 41 39 40 38 35 32 31 31 32 32
105 103 102 106 110 115 119 122 125 127 125 118 115 111 107 100 95 91 84 79 74 71 66 62 60 59 55 53 51 49 48 47 42 38 37 36 35 32 30 28 28 27 28
104 103 106 111 116 120 123 126 128 122 117 114 110 105 101 94 90 87 79 75 71 69 64 60 57 55 54 52 48 46 46 44 40 36 35 34 32 29 27 26 25 24 25
105 108 112 115 120 125 128 129 121 117 113 109 105 99 95 89 84 81 78 72 68 65 62 58 55 52 51 49 46 43 42 41 37 35 35 33 29 27 25 24 22 21 22
110 115 118 122 125 128 128 121 120 114 108 104 99 95 92 87 80 76 73 70 65 61 59 56 52 51 49 46 43 41 40 39 35 32 32 31 28 25 23 21 19 19 20
115 119 123 126 126 123 117 116 111 112 107 101 95 88 84 82 77 73 68 66 62 59 55 52 50 49 47 43 41 40 39 37 34 31 30 29 26 24 22 20 17 17 18
119 123 126 126 122 118 113 108 109 104 103 98 91 84 81 76 72 69 65 62 59 56 54 51 49 47 44 42 40 39 37 35 33 31 29 27 25 23 21 18 17 16 17
125 125 124 121 118 112 108 105 102 99 96 91 87 82 76 72 69 65 61 59 56 54 52 50 48 45 43 41 40 38 36 34 32 30 29 26 24 22 20 18 16 16 17
123 120 117 113 110 108 105 101 97 90 87 86 81 77 73 69 65 62 59 58 55 52 50 47 45 43 41 39 38 37 35 32 31 29 27 26 23 21 20 17 16 16 16
120 115 113 109 108 105 100 94 90 87 83 78 76 73 69 67 65 61 59 57 53 50 48 45 43 41 40 38 37 35 33 31 30 27 26 24 22 21 20 17 16 16 16
114 110 105 102 100 95 95 89 85 81 78 76 73 70 68 66 65 61 56 53 51 48 45 44 42 40 38 37 36 33 32 30 28 27 25 25 22 20 19 18 16 17 17
107 102 103 98 96 90 89 86 79 77 73 71 70 69 67 64 61 58 55 51 48 45 43 42 41 40 38 36 34 32 30 29 28 26 25 24 23 20 19 18 18 17 18
104 101 97 92 90 87 85 81 78 74 71 68 68 68 65 61 58 55 53 50 47 45 43 41 39 39 37 34 34 31 29 28 27 26 26 24 22 21 19 18 18 19 19
100 97 93 90 86 82 80 78 75 73 71 69 66 63 61 59 56 54 51 48 46 43 41 40 38 37 37 34 32 31 28 27 26 26 25 25 23 21 20 19 19 19 20
96 92 89 86 82 78 75 73 71 71 70 68 65 63 59 57 54 50 48 46 44 41 40 38 36 35 35 35 31 30 28 26 26 26 25 24 23 22 21 21 20 20 21
90 87 83 79 76 74 71 70 68 67 65 64 63 59 57 55 52 49 46 44 42 40 38 37 35 33 32 33 33 30 28 26 26 25 25 24 23 23 23 22 22 22 23
83 80 78 75 72 71 68 66 63 62 61 59 57 56 54 52 50 47 45 42 40 38 36 35 34 32 31 31 32 30 29 26 26 26 25 24 23 22 24 24 23 23 24

GFSGL_250_spd_057.txt.gz
Wind_Speed
56 60 64 67 71 75 79 80 84 86 92 94 98 99 93 92 96 100 105 107 108 110 111 108 109 109 109 107 104 101 98 92 85 82 80 78 73 68 68 66 64 63 64
59 62 66 70 75 78 79 84 87 92 94 99 99 92 93 96 102 106 109 110 113 113 110 110 109 108 106 103 99 96 91 86 79 76 77 71 68 65 63 63 62 60 60
64 68 71 75 78 82 86 89 93 95 100 101 94 94 99 101 107 111 113 116 116 112 111 109 108 107 104 99 92 88 83 79 76 71 70 67 65 63 61 58 58 57 57
68 72 74 78 82 87 91 93 97 102 102 97 96 101 106 108 112 114 116 114 111 111 110 108 107 105 99 93 87 82 78 74 70 68 66 64 61 59 56 55 56 55 56
72 75 79 82 87 92 95 98 102 106 101 98 101 106 110 114 116 117 113 112 111 108 107 104 101 95 90 86 81 77 73 69 67 65 62 60 58 56 55 53 51 53 51
78 81 84 88 92 95 98 102 108 106 101 102 107 110 115 117 119 117 116 114 112 108 105 99 93 88 83 79 76 72 67 64 63 60 57 56 55 53 53 49 47 50 52
82 86 90 93 95 98 101 106 109 105 105 108 111 116 117 119 118 118 114 111 108 105 100 94 87 82 76 74 70 66 64 61 57 56 56 53 54 51 50 46 44 44 43
86 90 95 96 97 101 104 110 108 107 109 113 117 117 117 118 115 113 110 107 104 100 94 87 81 77 71 69 66 62 60 57 53 51 51 51 50 49 47 45 42 40 40
91 95 96 98 102 107 111 109 106 108 114 120 119 120 118 116 114 110 106 102 98 92 85 79 76 71 67 65 63 61 56 53 51 49 48 49 48 44 43 42 41 41 36
96 98 99 103 108 112 112 111 113 116 119 121 124 122 117 114 110 106 102 97 90 85 80 74 71 67 64 61 59 57 54 51 49 46 45 46 45 41 40 40 38 38 37
101 101 105 109 112 114 112 114 119 122 122 124 119 117 113 110 106 100 96 90 84 80 75 70 67 63 60 57 55 53 51 48 47 45 44 43 40 38 36 36 36 35 34
103 106 111 111 114 115 117 121 126 125 122 119 115 112 109 104 100 93 89 85 79 75 71 67 63 61 57 54 51 49 48 47 45 43 42 41 38 35 34 34 33 33 31
107 113 112 114 114 116 120 127 128 122 119 118 113 108 103 100 96 87 84 80 75 70 67 64 60 57 55 52 49 48 45 43 42 40 39 39 37 34 33 31 30 31 28
113 116 116 115 117 121 125 124 119 118 115 113 109 103 98 94 89 86 80 75 71 67 62 60 58 55 53 50 48 46 43 41 39 38 37 36 34 32 31 29 28 28 27
119 119 117 119 123 125 124 118 114 113 109 108 105 97 89 85 81 78 75 70 66 64 61 58 55 53 51 49 46 43 40 38 37 36 34 33 31 30 28 27 26 25 25
119 118 120 124 127 124 121 115 113 109 106 105 97 88 86 80 76 72 69 65 61 62 61 58 55 50 47 45 43 40 38 37 36 34 32 30 29 27 26 25 24 23 22
117 123 125 127 124 121 116 111 103 100 99 98 90 84 80 76 73 68 65 64 62 59 57 55 53 49 45 43 41 38 36 35 34 33 30 28 27 25 24 23 22 21 21
124 125 124 120 117 111 106 104 99 91 89 91 87 80 77 72 70 66 63 63 60 56 54 51 48 47 43 41 40 37 36 35 33 31 29 26 25 24 23 23 21 20 19
126 123 121 117 110 106 100 95 90 85 84 81 80 78 73 68 67 65 62 58 57 54 51 49 47 45 41 39 37 36 35 34 32 30 28 26 24 23 22 22 21 19 18
123 120 117 110 105 100 94 89 85 80 78 75 74 72 71 69 67 65 61 57 54 51 49 48 45 42 40 37 36 34 32 31 30 28 28 26 23 23 22 21 21 19 18
116 112 108 103 99 95 91 87 82 78 77 73 70 68 67 66 65 62 59 56 52 48 45 43 42 41 39 36 34 33 31 30 28 27 26 25 23 23 23 21 21 20 18
111 106 102 98 93 90 87 84 81 77 74 71 69 68 65 63 61 59 56 53 50 47 43 41 39 38 37 35 33 32 31 28 27 25 25 24 23 23 23 21 20 20 19
105 100 96 93 90 86 82 80 77 74 72 71 68 66 64 62 59 55 53 50 47 43 40 39 38 37 34 34 32 30 30 27 26 26 23 23 22 23 23 22 21 21 20
100 96 92 89 85 82 78 74 71 71 68 67 65 64 61 59 57 53 51 49 45 42 38 35 35 34 33 32 32 29 29 28 26 25 23 22 22 23 23 23 22 21 21
95 91 88 84 80 77 75 73 69 66 64 63 61 59 57 55 53 50 49 46 44 41 38 35 33 31 31 31 31 29 28 28 26 23 24 22 23 22 23 24 23 23 22
91 86 83 80 76 74 72 69 67 64 62 59 56 55 53 50 48 46 44 43 41 38 36 34 32 31 30 30 30 29 27 27 27 25 24 24 23 23 23 24 24 24 24

GFSGL_250_spd_063.txt.gz
Wind_Speed
51 50 52 54 57 59 63 65 66 69 73 77 80 82 86 91 95 98 100 103 107 111 106 104 109 113 113 113 114 113 111 109 104 100 95 88 83 79 74 72 68 64 62
49 52 55 58 60 63 67 71 71 74 78 83 85 88 93 97 100 100 103 109 111 106 107 110 113 112 112 114 114 110 105 101 95 92 89 82 79 74 70 68 63 58 58
53 56 58 60 63 66 68 70 75 79 83 84 88 95 99 101 101 105 111 108 105 110 111 112 112 113 114 114 112 105 101 97 89 84 81 78 74 68 66 63 60 56 53
58 59 62 65 68 70 73 78 81 83 84 90 96 100 101 102 106 112 106 111 112 113 114 113 114 115 115 112 107 103 97 90 83 80 75 72 67 64 62 60 57 54 51
60 62 65 69 71 75 79 83 83 85 91 97 100 102 103 108 111 108 113 113 114 115 115 115 114 113 111 107 102 96 89 84 79 74 69 67 63 61 58 56 55 52 48
63 66 69 73 76 79 82 84 87 93 98 101 104 104 109 110 109 112 113 116 117 115 116 115 113 110 106 100 94 88 82 77 73 69 65 62 59 57 55 53 51 49 47
66 70 73 76 80 82 85 89 94 98 102 105 106 110 110 110 113 114 116 117 116 117 117 114 110 105 99 93 86 82 75 70 67 64 62 58 56 53 51 49 47 48 46
69 72 76 80 84 87 90 95 98 102 106 108 111 112 111 116 115 116 116 117 118 118 114 110 105 98 92 86 80 76 70 66 63 60 59 58 56 53 50 48 47 44 43
72 76 80 83 87 91 96 100 101 106 108 110 113 111 117 118 118 119 118 118 118 115 112 106 97 92 87 80 76 71 66 62 60 58 58 56 54 51 49 48 44 42 40
76 80 83 87 92 96 100 101 106 108 109 112 111 116 119 118 119 118 117 116 115 111 106 98 91 86 80 75 71 67 63 60 59 57 55 52 50 48 46 45 42 38 39
80 84 88 93 97 100 101 106 111 110 113 112 114 117 118 117 117 117 115 114 112 104 98 92 84 79 76 71 67 63 61 59 57 54 50 48 45 45 43 42 41 39 38
85 90 94 99 101 102 105 111 112 115 114 116 119 118 119 118 116 115 113 110 103 96 93 86 79 74 71 67 63 61 60 57 54 52 49 46 44 41 40 38 38 37 38
90 95 99 101 103 104 109 112 115 116 117 120 122 118 115 117 117 113 108 102 96 89 86 82 74 69 66 65 62 59 57 54 52 50 47 44 42 39 37 35 35 35 35
96 99 102 103 105 110 114 114 115 117 121 122 120 117 114 114 115 109 102 97 89 84 82 78 71 67 63 62 61 57 55 52 49 48 46 43 41 39 37 34 33 33 33
98 102 103 107 110 113 115 116 118 120 125 124 121 118 116 111 107 97 92 89 84 80 75 72 69 65 62 59 58 55 53 51 47 46 44 42 39 37 36 34 32 31 30
102 104 108 110 113 114 114 115 120 125 124 121 118 116 110 105 97 86 83 80 78 75 73 70 66 62 59 57 54 51 49 48 45 43 42 40 38 36 34 33 31 30 28
104 108 110 112 112 112 116 118 116 117 118 115 114 112 106 98 92 86 77 75 74 72 70 67 64 60 57 54 51 48 46 45 43 41 40 38 36 35 32 30 30 29 26
111 112 111 111 112 116 118 118 119 115 109 108 109 102 97 92 87 80 75 73 71 69 66 62 61 58 54 51 48 46 44 42 42 39 38 36 35 33 31 29 28 27 25
112 111 110 113 117 118 118 117 116 113 110 105 98 93 90 86 81 78 75 70 68 66 64 60 57 55 52 49 46 44 42 40 39 37 36 35 33 31 31 29 27 26 24
111 110 113 116 117 117 117 115 113 110 105 99 94 87 81 79 78 75 72 69 66 63 62 58 54 51 49 47 44 42 41 39 37 35 33 32 32 30 29 27 26 25 24
110 114 116 116 117 116 114 111 108 103 98 93 87 83 79 75 73 70 68 66 63 60 58 55 51 49 46 44 41 40 38 37 36 34 32 31 30 29 27 26 25 24 23
113 115 116 116 115 112 109 106 101 96 90 85 80 77 74 72 70 68 66 63 61 55 53 51 49 46 44 41 39 38 37 35 34 33 32 30 28 28 27 26 25 23 22
114 114 115 113 111 107 105 100 96 91 85 79 75 72 71 68 66 65 62 59 56 55 51 48 46 44 42 40 37 36 35 33 33 32 31 29 28 27 26 26 25 23 22
113 113 111 108 106 102 98 93 89 84 81 77 73 69 66 64 62 59 57 55 52 50 48 44 43 42 41 39 36 33 32 31 31 30 29 28 27 27 26 26 25 23 22
110 109 107 104 100 96 92 88 83 80 76 73 71 67 64 61 57 55 53 51 49 47 45 43 41 41 39 37 35 33 31 30 30 30 30 29 27 26 25 25 24 24 23
108 106 103 98 94 90 84 81 78 74 72 69 66 64 61 57 55 53 51 49 47 45 44 41 39 38 36 34 33 32 31 30 29 29 29 28 27 27 26 25 24 24 24

GFSGL_250_spd_066.txt.gz
Wind_Speed
44 45 48 51 54 57 61 64 66 67 68 71 77 81 83 85 85 90 93 98 103 107 108 108 107 112 116 116 116 114 115 114 110 107 102 96 90 84 80 78 75 72 68
44 47 51 53 56 60 62 65 64 69 72 76 79 82 85 87 91 95 98 104 108 109 111 109 114 116 116 116 116 116 113 109 103 100 95 88 82 76 73 71 68 64 62
46 50 53 56 58 60 64 67 71 74 76 79 81 83 86 91 95 98 104 108 109 112 110 115 116 116 117 117 116 113 109 104 98 91 86 82 77 72 69 66 64 61 57
51 56 58 59 62 63 66 70 73 75 79 82 83 87 92 97 99 102 107 111 112 113 115 118 116 117 117 117 113 109 105 97 91 85 82 77 73 69 65 62 61 56 53
55 58 62 64 65 68 71 73 74 78 81 85 89 94 98 101 101 106 112 113 114 115 119 118 117 117 117 114 110 104 96 91 86 81 76 72 69 65 61 58 57 54 49
58 61 65 68 71 73 74 76 79 81 85 90 94 99 103 103 105 113 113 114 115 119 118 118 118 118 115 110 105 96 91 85 79 76 72 68 64 60 58 56 54 52 49
62 65 68 72 74 75 78 80 82 86 91 95 99 102 105 106 112 115 116 115 118 119 118 117 117 116 111 105 98 91 86 79 74 71 68 62 61 58 58 55 52 49 46
66 69 71 73 75 78 81 83 87 92 96 100 103 105 106 112 115 118 117 118 120 120 119 118 116 112 106 100 93 86 81 74 69 66 63 61 59 58 56 53 49 45 42
68 70 73 76 79 81 83 87 91 95 99 103 104 107 111 115 118 118 121 121 120 120 120 117 113 106 100 94 87 81 77 69 66 63 61 60 58 55 53 51 47 44 41
70 72 76 78 80 83 87 90 94 98 102 102 107 112 114 117 116 120 121 119 117 116 116 114 108 99 96 90 82 77 73 66 63 61 59 58 56 53 50 48 47 43 39
72 75 77 80 83 87 90 94 97 102 102 107 111 114 117 116 118 120 121 118 116 114 113 109 102 95 90 85 78 73 70 65 62 60 57 55 53 51 48 46 44 43 38
75 77 80 84 87 90 93 97 103 103 107 111 114 115 114 119 121 121 119 118 115 111 106 103 98 91 84 79 75 71 68 63 60 58 55 53 51 48 45 42 41 40 39
79 82 85 89 92 95 97 102 105 108 112 113 115 112 114 116 121 125 122 117 112 105 100 99 94 86 78 75 73 69 65 61 59 57 53 50 48 46 42 40 38 38 36
85 88 91 93 96 98 103 106 108 112 114 116 115 117 116 116 119 119 120 116 107 98 94 94 88 81 76 73 70 65 62 59 56 54 51 48 46 44 40 38 35 35 33
89 92 93 96 98 103 107 110 112 115 117 116 119 118 118 114 113 113 110 105 101 94 85 87 83 79 73 67 65 62 58 56 54 51 48 45 43 42 39 37 34 32 31
91 94 96 99 104 107 110 110 113 114 116 121 121 121 116 117 112 108 103 99 95 89 82 78 78 74 68 63 61 58 55 52 51 48 46 43 40 39 36 35 33 31 29
94 98 101 105 108 111 111 110 108 112 118 119 120 119 118 112 108 103 98 93 89 85 80 76 74 70 66 60 57 56 52 49 48 45 44 40 38 37 34 33 32 30 28
99 102 106 108 110 110 111 111 114 114 110 110 115 115 112 107 102 97 92 87 84 81 77 73 70 67 63 58 54 51 48 45 44 43 41 38 36 35 33 31 30 29 27
104 106 109 109 108 110 112 114 116 114 113 110 108 108 104 100 97 93 86 83 78 77 74 70 67 63 59 55 51 48 45 42 41 40 38 35 33 32 31 30 28 27 25
107 107 106 108 109 113 114 115 113 112 111 110 106 99 96 94 90 86 83 77 75 72 70 66 64 58 55 53 49 45 42 40 39 38 36 33 31 31 30 29 27 25 23
104 106 107 110 112 113 113 111 111 109 108 104 99 95 91 86 83 80 77 75 71 67 64 61 58 56 52 50 46 43 41 38 37 36 34 32 30 29 28 27 26 24 22
105 107 110 111 112 112 111 110 109 107 102 97 95 91 87 83 78 75 73 70 66 64 61 57 52 51 50 47 44 42 40 37 35 35 33 31 29 28 26 24 24 24 22
108 109 111 112 111 110 109 108 105 101 97 94 90 86 83 79 75 72 67 65 63 61 57 54 53 48 47 45 43 41 38 36 34 34 32 30 27 26 25 24 24 23 21
109 112 112 111 110 108 107 105 101 97 93 89 85 82 77 74 72 69 66 61 57 55 54 52 49 47 44 43 41 39 36 33 32 32 31 28 27 25 25 24 24 22 21
111 111 111 109 108 107 105 100 97 92 88 84 81 76 73 70 67 65 62 58 55 53 50 48 47 44 42 39 37 36 33 31 30 31 30 28 27 25 24 24 23 22 21
111 110 108 107 106 103 99 96 92 87 83 80 76 72 69 66 64 60 57 55 53 50 48 45 43 41 39 37 35 33 31 29 28 29 28 27 27 25 24 23 23 23 22

GFSGL_250_spd_069.txt.gz
Wind_Speed
42 45 48 51 51 48 53 57 61 66 69 72 73 74 75 77 81 84 87 90 94 98 102 106 108 110 116 117 119 119 121 121 119 115 110 104 97 88 83 80 76 73 70
47 48 48 50 49 51 54 59 63 69 72 73 74 77 80 84 86 89 91 95 98 102 107 108 112 116 117 120 120 122 122 120 115 109 105 98 89 82 77 73 70 66 63
44 48 52 52 51 55 57 64 67 69 71 75 78 81 85 88 91 92 95 99 102 107 109 112 117 118 121 121 122 123 121 117 111 104 98 91 85 78 74 70 66 63 59
49 53 53 54 56 61 62 68 67 72 74 77 81 85 88 91 92 94 98 101 107 109 112 117 119 121 121 122 123 122 118 112 106 98 90 86 79 76 71 67 64 58 55
52 53 55 57 59 61 63 72 73 76 81 84 85 87 91 92 93 97 101 106 109 111 117 119 121 121 124 124 122 118 114 107 99 90 87 82 77 72 67 63 61 56 52
53 55 58 60 63 65 69 75 79 82 84 86 88 90 91 94 97 101 105 109 111 116 118 122 121 124 124 122 118 114 107 99 92 86 84 77 74 67 64 61 58 55 53
56 58 61 64 67 71 74 77 79 84 87 89 89 91 94 98 101 105 109 112 114 118 121 122 124 124 123 119 116 109 101 95 88 84 79 73 70 65 63 60 57 54 48
60 62 65 68 71 73 77 80 82 85 86 88 91 94 98 103 106 109 114 117 117 120 122 124 124 123 121 116 110 103 97 92 85 80 73 70 67 64 61 58 55 52 47
62 64 67 71 74 76 78 81 83 86 88 92 96 99 102 106 110 115 119 118 118 121 123 125 124 120 116 111 103 97 94 87 81 75 71 69 65 62 59 57 54 51 46
65 68 71 73 75 78 81 83 87 89 93 95 97 102 105 108 114 119 120 119 121 121 120 122 123 118 111 105 97 92 88 82 78 73 69 65 62 60 57 55 52 49 45
68 71 73 75 79 81 84 87 90 92 94 96 99 104 109 115 118 120 121 122 122 119 118 117 117 113 106 99 93 87 82 78 75 70 66 61 58 57 54 51 49 47 43
73 76 78 81 84 86 88 91 92 94 97 101 104 106 113 117 118 120 124 126 124 122 119 114 110 106 100 94 89 82 78 74 71 67 62 58 55 53 50 49 45 44 42
80 81 83 86 88 90 92 94 95 99 103 105 108 111 113 115 116 118 120 122 123 120 116 110 104 99 94 88 85 77 73 70 67 64 59 55 53 50 47 46 43 41 39
83 86 88 90 91 93 95 96 100 104 106 109 113 113 112 114 116 119 117 116 113 113 110 103 98 93 87 83 81 75 70 66 64 61 56 52 49 47 45 43 40 39 36
88 89 91 93 95 98 99 102 105 106 110 112 113 114 114 115 116 115 114 110 108 104 101 98 91 88 83 78 75 73 67 62 59 58 53 49 46 44 42 41 37 35 33
91 94 96 97 97 99 100 102 105 109 110 112 115 117 119 117 113 110 108 106 103 100 94 89 86 83 78 74 70 67 63 58 54 52 48 45 43 41 39 38 35 33 31
87 89 91 93 94 96 99 103 105 109 113 117 118 120 117 115 112 108 105 102 98 93 88 86 82 78 75 70 65 61 57 52 50 48 45 42 39 37 36 35 33 31 29
85 87 90 91 94 97 99 102 106 109 112 115 118 116 114 111 107 103 100 97 93 89 86 82 78 75 71 66 61 56 52 50 46 44 41 39 36 35 34 33 30 28 27
85 86 88 92 95 98 102 106 109 109 112 113 112 111 109 107 104 101 96 91 88 86 84 79 74 70 66 61 56 53 49 46 44 41 39 37 34 32 32 31 28 26 25
84 88 92 96 101 105 106 109 111 112 112 110 106 103 101 101 100 97 94 89 85 81 78 76 72 64 61 57 53 50 47 43 41 39 38 35 33 31 30 29 27 25 23
91 95 98 102 107 109 110 112 113 111 109 107 103 100 97 94 91 88 86 84 81 76 74 70 67 64 57 52 51 47 45 41 39 37 36 34 32 29 29 28 26 24 22
99 102 105 108 110 112 113 113 110 108 106 103 101 98 95 91 86 83 79 77 75 72 69 65 61 58 57 51 46 45 42 41 38 36 34 32 31 28 27 27 24 23 22
105 107 109 111 112 113 112 110 108 105 103 100 97 95 92 87 82 79 76 74 71 67 64 59 56 53 51 50 45 43 41 39 36 34 33 31 29 27 26 26 24 22 22
109 111 113 113 113 111 109 106 104 103 100 97 94 91 86 82 79 76 73 69 66 63 60 56 52 50 48 46 43 40 39 36 34 32 32 30 27 26 25 24 24 23 22
112 112 112 111 109 107 105 104 102 99 97 93 89 85 81 78 75 72 68 65 62 58 55 52 49 47 45 42 40 38 37 35 32 31 31 29 25 25 25 24 24 23 21
112 110 108 106 105 105 103 101 98 95 91 87 84 80 77 74 71 68 65 62 58 54 51 49 46 45 42 40 38 37 35 33 30 29 29 27 23 23 24 23 24 23 21

GFSGL_250_spd_072.txt.gz
Wind_Speed
50 49 50 50 50 54 58 61 62 62 64 64 68 72 75 78 82 84 84 86 88 92 95 97 101 104 107 112 115 119 122 122 119 120 123 122 118 115 107 99 89 85 81
46 47 49 49 52 56 63 65 63 59 61 65 71 76 79 77 80 84 88 92 94 96 98 100 103 109 113 116 120 124 125 122 123 121 124 122 115 108 99 91 84 79 73
47 48 46 48 53 58 62 62 61 64 68 70 75 81 82 83 85 89 93 95 96 99 102 104 109 113 117 120 124 126 123 122 125 124 121 119 110 102 92 86 79 73 67
43 41 45 52 55 57 60 64 66 69 71 74 76 80 87 89 91 94 95 96 100 103 105 108 113 117 120 124 126 125 123 125 127 124 119 112 105 95 86 81 74 67 63
40 44 52 55 55 58 63 66 69 74 77 77 81 84 87 91 93 94 97 100 103 105 108 113 116 119 123 127 125 125 127 128 125 120 114 105 96 88 82 75 69 65 62
45 50 54 57 59 62 66 70 74 75 78 82 84 87 90 93 96 98 102 104 105 107 113 118 120 122 125 123 124 127 131 128 123 115 108 97 89 84 77 71 67 63 62
49 53 56 60 63 66 68 71 74 76 80 83 86 89 92 96 98 101 105 105 106 113 118 119 122 126 122 124 127 129 127 123 117 109 101 93 84 79 74 69 65 61 59
55 57 60 63 66 68 70 73 76 79 82 86 89 92 95 99 102 105 107 107 112 117 119 121 124 123 127 128 129 126 121 116 107 100 93 85 80 75 70 67 61 58 56
59 61 64 67 69 72 74 77 79 83 85 88 92 95 98 103 105 107 109 112 115 117 120 123 121 126 129 128 125 121 117 110 99 94 85 80 76 71 67 64 58 55 53
64 67 70 72 74 76 79 81 84 87 90 94 97 100 103 104 105 110 114 116 116 117 119 119 124 126 129 126 120 116 110 103 94 86 83 76 71 69 66 60 55 53 51
69 72 75 77 79 82 84 87 90 93 97 98 101 103 104 106 109 111 115 117 118 117 118 121 124 126 123 120 116 110 102 96 89 83 78 72 69 66 62 57 53 51 48
70 74 77 80 83 87 89 92 95 96 98 100 102 105 106 105 107 111 114 118 119 120 123 125 126 123 117 113 109 103 96 90 84 78 73 70 64 61 58 53 50 47 44
66 74 79 84 87 90 93 95 98 100 100 100 99 99 101 105 108 111 112 115 119 123 125 125 120 114 110 105 101 95 90 84 79 75 71 66 60 57 54 50 47 44 42
73 72 73 77 82 86 88 89 90 90 92 94 96 98 101 104 106 109 113 117 120 123 122 116 110 106 103 99 94 89 84 79 75 70 66 63 57 53 49 46 44 41 40
73 74 73 73 74 76 78 82 86 89 92 94 95 98 101 104 108 112 116 118 119 116 111 107 103 100 96 91 87 83 78 74 70 67 62 58 53 49 46 44 41 38 37
72 73 72 72 73 78 82 85 88 89 91 94 98 101 105 108 111 115 117 117 112 108 104 102 99 94 90 86 81 77 73 69 66 63 58 54 50 46 43 41 38 36 34
69 70 71 73 79 82 84 87 90 93 97 100 103 107 110 112 115 116 113 110 105 103 100 96 93 89 85 81 76 73 69 65 62 58 53 50 46 43 40 38 36 33 32
72 73 76 79 81 84 87 91 94 98 102 106 109 113 115 116 114 110 106 103 100 97 95 91 87 84 81 76 72 68 64 61 57 53 50 47 44 41 38 36 33 31 30
79 80 82 84 86 90 94 97 100 104 108 111 114 115 115 113 109 105 102 98 95 93 90 86 83 80 77 73 67 63 61 58 53 50 46 45 42 39 37 34 32 30 29
87 88 88 90 94 97 100 103 106 110 114 114 114 112 109 107 106 103 98 96 92 88 85 82 79 76 73 69 64 58 56 54 49 47 44 43 40 37 35 33 31 29 28
92 92 95 98 102 105 106 109 114 113 114 113 111 108 107 104 100 98 95 91 87 83 80 78 75 71 68 63 60 56 51 50 47 44 42 40 39 36 34 32 30 27 26
97 100 103 105 108 111 113 113 114 113 112 110 109 107 104 101 97 93 89 85 81 77 75 72 69 67 64 60 56 52 49 45 46 42 39 37 37 34 32 31 29 26 26
103 106 109 111 113 113 113 113 112 111 109 107 105 102 99 96 92 88 84 80 76 72 69 67 65 63 59 55 51 49 47 43 43 40 37 36 35 32 30 30 28 26 25
109 112 112 112 113 113 112 111 110 109 107 104 101 98 94 90 86 83 79 75 72 69 65 63 61 57 53 51 49 46 44 42 40 38 36 34 33 30 29 28 26 25 25
109 111 112 112 112 110 110 110 108 106 103 100 96 92 88 84 81 77 73 71 68 64 60 57 55 53 49 47 46 43 42 39 37 36 34 32 31 28 27 27 25 24 25
111 111 111 110 109 110 109 106 104 101 98 94 90 86 82 78 74 72 69 65 62 58 55 53 50 48 46 44 42 41 39 37 35 33 32 30 28 24 24 25 25 24 23

GFSGL_250_spd_075.txt.gz
Wind_Speed
47 50 53 55 58 61 61 59 59 62 66 70 72 70 70 73 74 75 82 85 88 91 94 95 98 102 104 106 107 110 115 118 119 120 124 124 122 124 120 118 113 108 102
48 50 50 52 55 57 57 58 60 65 69 74 74 70 70 72 77 79 84 87 90 93 96 99 102 104 105 108 113 117 119 121 127 125 121 124 124 122 119 113 109 105 97
44 50 52 55 58 58 58 60 62 64 68 71 70 75 75 79 83 85 88 90 93 96 100 103 105 107 110 114 118 119 122 127 129 127 124 123 121 123 118 110 103 98 93
46 51 54 56 57 57 57 60 61 62 65 69 71 77 81 83 86 91 93 94 96 99 102 105 108 112 115 119 120 123 129 128 126 127 124 123 123 120 114 107 100 93 85
44 48 49 50 49 51 54 57 60 64 68 71 75 79 83 88 89 91 93 96 99 101 105 109 112 114 117 119 124 129 130 128 128 128 128 124 123 116 110 103 94 86 81
46 46 47 51 52 50 56 60 65 68 72 76 80 83 85 87 90 93 96 98 102 105 109 113 114 117 120 124 125 123 123 125 127 130 127 128 120 114 105 97 88 81 75
49 47 51 54 57 59 61 64 67 71 74 78 81 84 87 90 93 96 99 102 105 110 113 114 117 122 126 125 123 122 120 122 124 125 126 122 116 110 100 91 84 77 71
55 56 57 59 62 65 67 69 72 76 80 83 86 88 91 94 97 101 104 106 108 111 114 119 121 118 119 122 119 121 124 128 127 122 119 116 111 103 93 86 80 74 69
57 58 61 63 66 70 72 74 77 80 83 86 89 92 95 99 100 103 106 110 113 114 115 112 114 116 117 118 121 124 124 128 127 118 116 111 104 95 87 81 74 70 64
56 58 60 62 65 66 68 71 76 80 83 87 91 94 99 104 107 108 110 111 107 105 109 111 111 112 115 120 122 125 125 125 119 115 110 104 97 88 81 77 70 65 59
46 48 54 57 61 66 71 72 76 80 84 88 93 95 97 99 102 102 103 103 104 104 106 107 111 114 117 120 124 126 122 115 114 110 104 96 87 82 77 73 66 58 56
55 59 62 68 72 75 76 81 84 86 87 89 92 92 91 92 92 95 98 99 102 104 107 111 114 118 121 123 122 118 113 111 107 102 96 89 82 76 71 66 63 59 53
63 62 67 71 72 75 78 82 83 83 85 86 84 83 87 91 92 94 98 101 105 108 112 115 118 120 120 116 112 111 106 102 99 93 88 83 77 72 66 61 59 54 52
69 71 70 72 71 72 73 75 76 77 77 77 80 85 89 92 94 97 101 105 108 112 116 119 118 115 111 108 105 101 100 96 91 87 83 77 72 67 62 57 55 51 49
79 79 77 77 70 72 74 74 74 77 80 82 85 88 91 95 98 101 104 106 111 115 114 112 109 107 105 103 101 97 91 88 85 82 78 74 67 63 59 55 52 49 46
83 83 81 77 77 81 81 82 82 83 85 88 91 94 97 99 101 104 108 112 113 111 107 105 103 103 101 99 96 93 89 83 78 77 73 68 63 59 55 52 49 46 43
84 85 86 89 93 88 87 88 88 89 92 93 96 98 100 103 106 110 112 110 108 107 104 103 101 100 97 94 91 88 85 80 74 69 68 64 60 55 52 49 47 44 41
90 95 96 99 98 95 94 94 93 95 95 95 98 104 108 112 111 111 109 106 106 105 102 100 97 94 92 89 86 83 80 75 69 65 62 60 56 53 49 47 45 42 39
100 101 100 102 99 96 96 98 99 100 102 104 107 109 110 112 112 109 109 107 105 102 99 98 94 90 86 84 83 79 75 70 65 62 59 56 52 49 47 45 43 40 38
103 103 103 99 98 100 101 103 103 105 107 109 112 113 114 110 110 108 107 105 103 99 95 92 89 86 83 80 78 75 71 67 61 57 55 53 49 46 45 43 41 38 36
105 105 101 101 103 104 105 106 108 110 113 115 115 113 113 110 109 106 102 100 98 95 91 87 85 82 79 76 74 70 66 61 56 52 50 48 47 44 42 40 38 36 34
104 102 103 105 107 108 109 110 113 115 116 116 115 112 110 109 105 101 98 95 92 89 85 82 81 78 75 71 67 64 59 55 52 48 47 46 44 41 40 38 36 34 32
103 103 105 108 110 111 112 114 115 116 116 114 112 110 106 102 100 96 93 89 86 84 81 78 76 73 68 64 61 58 54 50 48 45 44 43 40 38 37 35 34 32 30
104 107 111 111 112 114 115 116 117 115 113 111 108 104 101 98 94 91 88 85 82 80 77 73 70 67 63 59 55 52 50 47 44 43 42 40 37 36 34 32 31 30 29
109 111 112 113 115 116 116 115 112 109 107 104 102 99 96 93 90 87 83 80 77 74 71 68 65 63 58 54 51 49 46 44 41 40 39 37 34 33 31 30 29 28 26
110 112 114 115 114 112 110 107 106 103 100 98 96 93 90 87 84 80 77 74 71 69 66 63 59 56 53 49 46 44 42 40 38 37 35 33 31 30 28 27 27 26 24

GFSGL_250_spd_078.txt.gz
Wind_Speed
46 49 53 53 54 58 60 62 63 67 68 70 70 71 72 78 78 79 79 80 77 78 82 87 91 95 101 103 104 107 109 111 112 113 119 121 125 129 127 124 122 120 120
47 51 54 51 52 58 59 61 63 62 65 68 70 73 76 78 76 77 77 80 82 87 91 94 98 100 102 104 107 110 113 117 120 120 121 125 127 122 123 120 119 119 118
36 41 46 41 51 55 59 60 61 63 65 67 68 69 69 71 73 75 80 83 87 91 97 100 101 103 106 109 112 115 118 121 124 127 127 123 121 123 120 122 121 116 111
37 42 41 43 50 53 61 61 62 60 60 60 60 63 68 71 74 77 80 86 92 95 98 101 104 107 110 113 116 119 122 125 128 126 122 122 121 121 124 126 120 116 107
44 40 43 48 54 56 57 56 54 52 52 58 62 66 70 73 77 83 87 90 94 97 101 103 107 110 113 116 118 120 123 124 120 122 119 120 122 126 127 125 118 107 105
41 46 51 56 58 61 61 60 60 61 62 64 68 70 73 77 80 86 90 93 96 99 103 107 112 115 115 117 117 117 116 116 115 117 116 119 121 125 123 118 111 106 99
40 44 51 55 58 58 60 62 63 66 69 72 75 78 80 83 86 90 94 97 99 102 103 106 109 112 112 110 108 108 111 114 117 119 121 122 122 121 117 111 107 101 97
45 46 47 48 50 54 57 61 64 67 69 72 75 77 79 82 86 91 96 98 99 102 106 107 106 104 105 107 106 107 109 113 116 119 123 122 118 116 113 108 102 96 89
44 44 44 46 47 49 51 56 60 64 68 73 78 83 86 88 91 96 100 103 105 102 103 98 97 101 104 107 107 109 111 114 117 121 119 118 114 113 109 103 98 90 83
53 50 49 48 50 52 54 56 62 67 72 76 80 82 84 86 88 87 88 88 88 89 91 95 99 101 104 107 110 111 112 115 115 113 113 113 110 105 102 98 90 84 77
57 56 56 58 61 62 63 68 72 70 72 75 79 77 78 80 77 81 84 86 86 90 93 97 100 103 106 108 111 114 114 112 110 108 107 107 104 99 95 91 85 78 72
61 62 63 64 66 70 72 72 74 74 79 79 79 79 80 81 79 82 86 87 90 93 96 98 101 104 106 109 112 113 110 108 106 104 103 102 99 94 88 81 78 76 69
65 66 67 70 74 76 77 77 77 80 81 82 84 89 87 85 83 85 88 92 95 97 98 101 102 104 107 109 111 109 109 107 103 100 97 95 93 87 82 77 72 66 63
68 69 71 74 78 80 81 81 83 85 87 91 92 96 93 93 92 92 94 97 99 101 103 104 106 109 109 109 108 109 107 104 100 95 91 88 87 82 76 70 66 62 58
73 74 78 80 82 85 84 85 88 90 96 98 99 98 95 95 97 99 102 104 104 105 106 107 108 110 110 109 108 105 103 100 97 93 87 81 81 77 71 65 62 59 56
76 78 82 84 86 88 90 92 94 97 100 101 102 99 98 101 104 105 107 109 108 108 108 110 110 108 108 105 101 99 98 96 93 90 85 75 75 73 68 62 59 55 52
80 81 85 88 93 96 96 99 100 104 104 106 104 102 103 105 110 109 111 112 111 111 113 111 108 106 103 100 96 93 92 91 87 84 81 76 69 69 64 59 54 51 47
83 86 89 93 99 101 102 105 107 107 107 107 106 106 107 113 117 114 113 112 116 116 111 108 106 102 98 95 92 90 87 84 82 79 77 74 68 62 59 55 50 46 44
93 95 98 101 103 104 109 109 111 111 112 111 110 109 112 113 115 115 115 116 115 113 110 106 102 97 94 91 87 84 82 79 77 75 70 67 63 58 53 50 47 43 42
96 100 103 107 107 111 112 115 115 115 113 112 115 116 116 115 114 116 114 111 108 106 103 99 96 94 90 86 83 80 78 74 71 67 64 61 58 54 50 46 44 41 40
101 105 109 109 111 115 117 116 116 115 114 118 118 117 116 117 116 114 112 109 104 102 98 95 92 89 85 82 79 75 72 70 67 63 60 55 52 49 46 42 40 38 37
106 108 108 113 117 119 117 115 115 117 120 119 118 116 114 114 113 110 107 104 100 97 93 90 87 84 81 78 74 71 69 65 62 58 54 50 47 45 42 39 37 36 34
106 108 115 117 114 113 114 117 120 120 118 117 116 115 114 110 106 103 100 97 94 91 88 85 82 80 77 74 71 67 63 59 56 52 49 47 44 41 38 36 35 33 31
111 115 115 114 114 116 119 119 117 116 116 115 114 110 106 103 100 97 94 91 88 86 83 80 78 76 73 69 64 60 57 54 51 47 45 42 39 38 35 34 32 30 29
113 112 114 115 116 117 117 115 115 114 112 109 105 103 100 96 93 90 87 85 83 80 77 75 73 70 67 62 58 54 51 48 45 43 41 38 36 34 33 31 29 29 28
112 113 114 115 114 114 113 112 111 108 104 102 99 96 92 89 86 84 82 79 77 75 72 69 66 63 59 55 51 48 46 44 41 39 37 35 33 32 30 29 28 27 26

GFSGL_250_spd_084.txt.gz
Wind_Speed
38 44 47 48 45 45 46 49 47 48 52 55 61 68 73 74 70 68 70 71 72 77 80 82 83 83 84 87 89 93 97 100 103 105 107 109 110 114 116 113 110 106 107
38 39 40 40 39 38 38 38 41 42 45 52 66 69 71 70 69 73 72 75 79 80 82 81 83 84 87 90 95 98 101 102 102 103 108 110 110 109 108 108 110 109 110
42 41 41 42 39 36 35 37 36 37 54 69 67 71 74 73 74 79 83 83 86 85 83 83 86 88 90 92 93 95 99 101 103 102 101 101 104 107 109 109 108 108 111
26 29 30 30 30 27 23 26 33 58 62 71 78 80 81 80 83 87 91 88 86 80 76 75 77 81 85 87 89 91 93 96 98 97 97 99 101 105 104 105 105 108 107
20 22 24 26 23 25 25 44 50 61 64 66 73 77 78 80 82 84 72 69 69 72 75 78 80 81 84 86 88 89 91 92 92 92 93 93 95 99 102 103 103 103 104
21 26 30 36 40 44 49 48 55 65 73 75 76 73 73 72 71 71 69 68 69 73 75 78 77 83 84 87 87 87 87 87 90 90 91 94 95 100 100 101 104 104 103
27 27 32 36 36 37 39 42 45 50 53 57 60 62 63 64 66 68 71 71 73 73 74 75 80 83 83 83 84 87 88 90 91 92 93 96 99 101 101 103 104 105 105
32 39 44 45 48 50 52 51 53 55 56 57 58 59 61 63 66 70 73 76 78 79 79 79 83 85 84 89 92 95 96 98 99 98 100 102 103 104 105 105 106 105 105
43 46 49 51 52 54 55 56 58 58 60 61 62 62 65 66 69 73 77 79 80 80 81 84 87 88 91 96 99 99 100 102 102 102 105 105 106 108 108 107 108 106 101
50 51 54 56 57 58 58 59 61 63 65 66 67 69 69 74 76 77 77 80 80 83 89 92 92 94 98 104 104 102 100 101 104 106 108 108 109 110 112 111 108 103 99
55 57 60 62 65 64 64 64 69 69 71 70 72 73 75 77 78 78 80 81 83 88 93 95 95 100 104 108 109 107 105 103 104 106 107 109 110 111 112 108 105 100 94
61 63 65 68 69 71 69 71 75 75 77 77 78 78 78 80 79 81 83 85 88 92 96 98 102 106 110 112 113 112 109 109 107 107 107 108 108 106 106 101 97 95 91
65 66 70 75 75 74 75 76 80 82 84 84 84 82 82 82 82 86 89 90 95 100 103 104 107 111 115 116 116 114 113 110 109 108 107 106 104 100 98 97 94 91 86
68 71 76 79 76 78 80 81 86 88 90 90 88 86 85 87 88 90 94 98 102 105 107 111 115 117 118 117 116 114 112 111 109 107 105 103 98 97 96 94 90 86 79
74 77 79 81 80 82 83 86 91 93 96 95 91 90 91 93 94 97 101 105 109 112 115 118 120 120 120 119 116 114 113 111 109 106 101 98 95 93 93 91 86 80 74
79 82 82 85 81 87 87 92 97 98 103 99 95 96 99 99 101 106 111 114 115 117 119 121 122 122 121 118 116 115 113 111 108 105 101 96 93 91 89 87 82 76 70
81 84 87 84 90 92 95 99 101 105 105 100 101 102 102 103 108 111 114 116 120 121 122 123 123 122 118 116 114 112 110 107 104 100 97 94 90 87 84 79 77 70 66
86 87 87 91 94 97 101 104 109 108 106 103 104 104 106 108 111 114 118 121 123 124 125 124 121 118 116 112 110 106 103 100 96 93 91 88 86 80 77 74 70 65 61
88 91 92 96 100 103 107 111 109 108 106 107 107 109 112 113 117 120 121 123 124 125 124 120 117 114 111 107 104 101 97 94 92 89 85 81 77 74 70 67 65 59 55
93 95 99 102 106 110 112 111 108 108 109 108 110 113 114 117 119 120 122 123 123 120 116 114 111 108 104 100 97 94 92 89 85 82 78 74 71 67 64 61 58 55 51
98 101 103 107 112 114 112 108 110 112 111 112 113 115 117 119 121 122 122 119 115 112 110 106 103 99 96 93 90 88 85 81 77 74 71 67 64 61 58 56 53 50 46
102 105 110 113 113 110 110 111 113 113 112 114 117 117 119 122 121 119 115 111 108 106 102 99 96 93 90 86 83 80 78 75 71 68 66 62 58 55 53 51 48 46 43
107 112 112 110 110 112 113 114 113 114 115 116 117 120 120 118 113 108 106 103 101 98 94 91 88 85 82 79 77 73 70 68 65 62 58 54 52 50 48 46 44 41 39
110 109 109 111 113 113 113 112 114 115 116 118 118 116 112 107 104 102 99 97 94 90 87 84 81 79 77 73 69 67 64 61 59 55 52 49 47 46 44 41 39 37 35
108 110 111 111 111 111 113 115 115 116 116 114 110 106 103 100 97 94 91 89 87 84 82 78 75 72 69 66 63 61 57 54 52 50 47 45 44 41 39 37 35 34 32
110 111 110 110 112 113 114 114 114 111 107 104 101 98 95 92 89 87 85 83 80 77 74 71 68 65 63 60 57 54 52 50 48 46 44 41 39 37 35 34 32 31 29

GFSGL_250_spd_087.txt.gz
Wind_Speed
40 43 43 43 44 45 48 50 51 50 48 49 49 52 58 64 48 76 71 76 81 81 84 89 90 90 93 95 91 84 79 81 83 86 88 93 98 100 102 103 104 102 101
31 32 31 34 37 38 40 42 42 42 35 32 41 39 38 48 70 75 81 82 84 90 90 89 90 89 86 81 75 76 80 83 82 85 90 94 93 92 94 94 96 97 95
28 31 31 32 35 40 40 41 39 34 16 34 47 37 56 69 73 77 81 86 90 88 88 88 81 81 76 76 79 81 82 83 84 85 89 88 88 93 95 95 95 94 94
21 25 26 29 30 29 27 23 16 21 30 41 46 50 61 71 76 82 85 90 93 93 86 85 80 78 79 82 82 81 83 84 85 85 84 87 92 92 93 94 92 94 95
18 20 22 24 23 26 29 29 27 29 38 47 52 61 72 80 81 83 88 91 91 86 83 78 79 82 84 84 85 86 88 87 87 87 88 91 94 95 97 98 98 98 97
22 23 21 23 19 25 26 24 24 28 40 51 63 70 75 79 82 80 78 77 76 76 78 79 77 78 82 84 85 87 86 87 88 91 93 94 96 98 101 103 100 99 95
28 30 28 27 29 35 35 36 38 41 42 45 48 51 53 56 61 65 68 70 73 72 75 77 80 81 82 83 85 83 87 88 92 93 94 98 102 106 105 103 102 100 98
35 33 35 37 40 41 43 45 48 50 54 55 54 55 58 61 64 66 69 71 74 75 78 80 82 83 82 83 85 87 88 91 93 95 98 103 107 108 108 105 103 101 99
39 40 41 46 46 48 50 52 54 55 58 61 62 64 64 63 69 72 76 77 77 79 81 83 84 85 86 85 87 90 94 98 101 103 107 110 112 112 112 108 106 103 101
45 47 49 50 51 53 56 57 59 61 64 65 64 66 71 72 73 77 81 81 83 84 84 86 88 89 89 90 90 93 97 102 105 109 113 115 116 114 113 110 108 105 103
50 52 54 54 55 57 59 60 64 67 68 70 70 71 77 78 80 81 84 88 91 89 88 89 90 90 92 92 94 99 103 106 110 115 116 117 116 116 113 113 111 109 104
54 56 58 59 60 61 62 64 68 70 71 74 75 76 81 83 86 89 92 95 97 95 92 93 93 94 94 97 103 107 111 113 116 119 118 117 116 114 113 111 110 108 104
58 60 61 62 64 64 66 69 72 75 78 79 79 81 86 88 92 95 100 102 102 96 97 96 97 98 102 106 109 112 116 120 122 121 119 118 116 114 111 110 108 104 102
64 64 65 67 68 70 72 76 77 82 81 82 83 88 91 95 97 102 107 107 101 101 101 101 102 106 109 109 114 117 120 123 123 122 120 118 115 113 110 107 103 101 98
66 67 69 71 73 76 78 79 85 86 85 86 89 95 97 99 103 110 110 103 103 104 105 106 108 109 113 116 120 123 124 125 124 123 119 115 111 108 105 103 99 94 91
70 73 75 76 80 82 83 89 89 89 90 93 98 101 103 106 114 113 106 107 108 108 110 110 112 117 120 122 125 126 125 124 122 119 115 111 107 103 100 97 92 88 83
75 78 79 82 84 85 90 91 93 93 96 100 103 106 110 116 115 110 110 110 111 112 112 116 118 120 123 126 125 123 123 120 116 112 109 105 101 98 94 89 84 80 76
79 82 83 86 88 91 95 96 95 99 102 105 108 114 116 114 113 113 112 113 113 115 118 120 122 124 125 123 123 121 116 113 109 105 101 98 93 90 86 81 78 74 72
82 84 87 91 94 96 99 99 103 105 108 112 116 117 114 114 114 113 114 115 117 120 122 124 124 123 122 120 116 113 109 106 102 98 95 90 86 82 79 75 72 69 65
86 90 93 95 99 101 104 107 109 111 114 117 117 116 117 116 115 115 116 118 120 122 121 120 120 117 114 111 108 104 101 98 95 90 86 83 79 75 71 69 65 63 59
92 94 97 102 105 108 109 112 114 116 118 117 118 117 115 115 116 118 118 119 119 118 115 113 111 109 105 102 98 95 93 90 86 82 78 75 71 67 64 62 60 56 53
96 101 105 107 109 112 114 117 119 119 118 119 117 116 115 116 118 117 117 115 112 109 107 104 101 100 98 95 92 88 84 81 77 73 70 67 64 61 59 55 52 50 47
104 106 107 111 113 115 118 119 118 119 118 116 116 116 117 116 115 113 110 106 103 101 99 96 93 91 89 85 81 77 76 73 69 66 64 60 57 55 52 49 47 44 42
108 111 112 115 117 118 118 119 119 117 117 115 116 116 113 111 108 104 101 98 96 93 91 88 85 82 79 76 72 69 67 65 62 59 55 52 50 50 46 44 42 40 38
111 113 115 117 118 119 118 116 115 114 114 114 112 109 106 102 99 96 94 90 88 85 82 78 75 74 71 69 66 63 59 55 53 51 48 48 46 44 41 39 37 35 34
113 115 116 118 117 115 113 113 113 113 111 108 104 100 97 95 92 89 86 83 80 76 73 71 69 67 65 61 57 54 52 50 48 46 44 42 41 38 37 35 33 32 30

GFSGL_250_spd_090.txt.gz
Wind_Speed
36 38 38 38 40 42 44 44 44 44 43 43 45 44 41 37 47 45 49 53 53 65 67 77 88 88 84 89 91 92 87 85 84 80 81 84 86 87 89 91 94 97 97
24 28 30 30 31 34 36 37 39 41 44 45 43 40 39 42 43 41 47 47 50 65 75 83 85 87 92 90 90 88 84 82 82 83 85 86 87 89 92 95 98 98 97
14 19 22 24 26 31 34 36 37 36 36 33 36 36 34 35 42 41 44 52 61 65 75 82 88 88 86 86 88 83 83 83 83 84 86 87 89 92 95 95 96 95 95
12 14 14 16 18 19 20 20 20 25 28 26 27 31 44 46 47 50 55 59 67 74 82 82 80 75 74 77 81 84 86 86 85 85 86 90 90 95 94 93 92 95 96
16 19 20 22 25 24 21 18 20 23 22 27 32 41 43 48 56 59 59 56 59 64 67 63 70 72 75 75 74 77 81 84 85 87 88 90 93 95 97 94 93 93 93
20 21 23 24 26 29 31 30 31 35 34 33 37 41 45 49 51 54 57 60 63 65 67 70 73 77 79 82 84 85 85 86 87 88 92 95 96 96 96 95 95 94 96
23 23 25 27 29 29 32 34 40 40 43 44 47 49 52 54 56 60 61 66 70 71 72 75 77 78 81 84 88 90 91 90 91 93 95 97 95 96 96 96 97 100 103
29 30 32 34 35 36 36 39 43 46 48 50 52 54 56 59 61 62 65 69 72 77 75 79 82 84 85 90 93 94 95 93 94 96 95 94 96 97 97 99 104 106 110
35 33 36 38 40 42 44 46 48 51 53 54 57 59 62 65 67 69 74 73 74 78 80 84 87 90 92 95 98 98 97 95 96 96 96 97 98 99 103 106 110 112 116
39 39 42 44 46 46 48 50 53 54 55 58 61 63 65 68 70 74 77 74 77 80 83 88 91 93 97 100 103 103 101 100 101 99 99 100 102 106 110 113 115 117 119
43 45 47 49 50 51 53 55 58 60 61 63 65 68 71 74 74 80 78 79 81 83 88 92 95 99 103 105 108 108 107 105 103 103 103 106 111 114 117 120 122 123 119
46 49 50 51 53 55 57 60 63 65 67 70 71 74 78 79 81 86 86 85 86 90 94 98 101 105 109 111 112 112 110 106 105 104 108 111 114 118 121 124 124 123 120
49 51 52 53 55 58 62 65 68 70 74 76 78 80 83 82 88 93 92 91 93 96 100 104 108 112 113 115 116 114 110 108 109 112 115 117 120 121 123 124 123 122 120
54 55 58 58 61 65 70 72 74 76 79 82 83 85 87 90 94 99 97 97 100 104 108 112 115 117 120 120 117 114 112 113 115 118 119 121 123 123 124 123 121 118 114
60 62 63 65 68 74 76 81 83 83 85 88 88 89 94 98 100 101 101 105 108 111 116 118 120 124 123 119 117 116 117 119 120 122 123 123 124 123 122 119 115 111 106
67 68 70 72 76 81 83 89 89 88 89 90 91 96 99 102 105 106 109 112 116 120 122 125 125 125 122 121 120 120 121 123 124 123 123 122 121 117 113 109 104 101 98
72 73 76 81 84 87 90 95 92 91 92 94 98 101 104 108 110 113 115 121 124 126 128 126 126 123 122 121 121 122 123 122 122 120 118 113 109 105 103 99 96 93 91
78 79 82 87 89 93 99 96 93 94 97 100 103 107 111 114 116 119 123 125 130 129 128 127 123 122 121 121 121 121 120 117 115 111 108 105 102 99 95 91 88 83 80
83 85 88 91 95 98 98 96 98 99 103 106 110 114 118 119 123 125 130 130 129 129 126 124 123 122 121 120 118 115 113 110 107 104 100 97 93 89 86 82 78 75 71
88 91 93 95 98 103 99 99 102 106 109 113 117 120 124 126 129 131 128 128 125 122 121 119 119 118 116 113 109 106 103 101 98 94 91 88 84 80 77 75 71 68 66
93 94 96 101 103 98 101 105 108 112 116 120 124 127 128 131 129 128 127 123 121 119 118 116 114 110 108 105 103 99 96 94 90 87 83 79 76 73 69 68 65 62 60
96 98 103 100 101 104 107 112 116 120 124 127 129 130 129 128 127 124 120 118 117 114 110 107 106 104 101 98 95 92 89 86 82 79 76 72 69 66 64 61 57 54 51
100 99 103 103 105 110 114 119 123 126 129 130 129 128 126 124 120 117 115 113 109 105 103 101 98 95 91 87 84 82 81 78 74 71 68 64 61 59 56 52 50 48 47
101 101 104 107 112 117 121 124 127 128 128 128 125 123 120 116 114 111 108 104 102 98 95 91 88 85 82 80 77 74 72 70 66 63 60 57 55 53 50 47 45 43 41
102 105 110 115 118 121 124 125 126 127 124 122 119 115 112 110 106 103 100 96 92 88 85 82 79 77 75 73 71 67 63 60 58 55 52 50 47 45 43 41 40 37 35
107 112 114 117 120 121 123 123 121 119 116 114 110 108 105 102 98 95 91 88 84 81 79 76 74 72 70 66 62 59 56 52 50 47 45 43 41 39 38 36 34 32 30

GFSGL_250_spd_093.txt.gz
Wind_Speed
27 30 32 32 34 39 40 43 45 46 48 51 53 51 48 44 45 43 43 45 45 50 48 50 47 62 62 68 72 74 78 74 73 75 76 77 79 82 86 87 88 89 90
20 23 24 28 32 34 33 35 39 41 42 43 44 45 45 43 43 40 43 45 47 50 48 47 51 61 63 66 75 73 71 72 74 77 80 80 82 85 87 87 89 91 93
8 14 16 19 22 25 29 32 34 35 37 33 27 27 28 27 33 38 41 43 48 51 51 59 55 60 65 65 69 74 75 78 79 80 83 84 85 87 87 88 92 95 96
10 10 11 10 11 13 14 16 18 18 19 20 20 24 28 35 38 39 42 45 43 45 47 52 57 61 69 73 77 78 81 83 83 87 89 89 91 94 94 94 94 95 95
14 15 17 18 18 19 19 21 22 23 25 27 27 32 34 34 37 41 46 50 53 55 57 60 63 65 70 75 78 81 85 89 91 90 92 95 97 100 101 99 100 98 99
17 16 16 18 19 20 21 24 26 30 33 35 38 43 43 46 49 51 53 56 58 59 61 65 66 65 74 79 79 79 83 88 92 96 97 98 100 104 106 107 104 105 106
25 24 22 22 23 23 24 27 28 30 33 36 40 44 47 50 53 55 59 59 62 65 66 67 67 73 77 80 85 89 91 91 95 99 100 103 106 109 108 109 108 109 109
30 31 32 31 30 29 30 32 33 36 39 40 43 47 50 51 55 59 62 64 66 68 70 72 77 77 81 84 84 87 90 94 96 99 103 106 109 111 112 113 115 113 111
37 35 35 36 37 35 34 36 39 43 44 46 48 51 55 57 61 65 68 70 72 75 77 79 80 80 86 90 91 91 93 96 99 102 107 112 113 114 116 118 120 117 112
43 43 43 45 43 41 39 41 44 47 49 50 52 55 58 61 66 70 73 77 79 81 82 83 83 87 91 94 97 96 99 100 104 108 112 115 117 119 121 123 122 117 114
49 50 50 50 49 47 45 46 49 51 52 54 56 59 63 66 71 76 80 82 83 85 85 86 89 93 96 102 101 102 104 108 112 115 118 120 122 124 127 126 121 118 116
52 56 55 50 51 51 51 51 53 56 58 61 64 68 71 75 78 84 86 87 88 89 89 92 95 98 104 107 107 108 112 116 119 123 123 126 128 129 128 122 121 119 119
62 61 56 55 57 57 57 57 60 63 65 68 73 75 78 83 85 91 92 90 92 92 94 98 102 107 110 112 113 117 121 123 126 127 130 133 132 127 123 122 121 122 122
66 63 59 59 62 62 64 64 67 71 73 79 80 83 87 90 92 97 101 98 96 98 101 106 110 114 117 120 123 126 127 129 132 136 138 133 126 124 124 123 124 124 122
74 66 66 68 68 68 68 69 74 77 81 86 88 90 94 95 100 105 107 99 100 104 109 114 118 122 125 128 132 132 134 137 140 137 129 127 126 126 124 123 119 116 112
73 73 74 73 73 74 74 78 81 86 89 92 95 97 99 103 106 112 106 104 107 112 117 121 126 129 133 136 136 138 141 139 132 128 128 126 123 121 116 113 109 105 102
75 75 76 77 79 80 82 85 87 91 94 96 99 103 106 108 114 113 108 111 115 120 125 130 134 136 137 137 140 140 134 128 127 125 121 116 112 108 106 102 100 97 94
78 80 81 81 84 85 87 89 92 96 99 101 104 108 111 116 116 112 115 119 124 129 134 138 137 137 138 137 132 127 125 123 118 113 110 106 104 100 98 95 92 90 87
81 83 84 85 87 90 92 95 98 100 102 106 110 113 116 117 115 117 121 127 133 137 136 136 136 135 130 125 123 120 114 110 107 103 101 97 95 93 90 87 84 81 78
87 88 89 89 89 91 96 98 101 103 107 112 115 118 119 118 121 125 131 136 135 133 133 131 128 125 121 117 112 108 105 102 99 96 95 92 88 85 82 79 76 73 70
89 89 89 89 91 95 97 101 105 108 113 114 120 121 120 124 129 134 135 133 133 132 128 125 122 116 110 106 104 101 98 95 92 89 86 82 78 76 74 71 68 64 61
86 88 89 90 93 98 102 107 110 113 116 120 121 122 126 130 134 131 131 130 126 123 120 115 110 106 102 99 97 94 90 87 82 79 76 74 71 69 65 62 60 58 55
85 87 92 96 99 104 107 110 113 118 120 121 123 127 131 130 128 129 125 121 118 114 109 105 102 97 94 91 87 85 81 77 74 71 68 66 63 61 58 56 53 51 49
89 93 96 101 104 105 111 115 118 119 120 124 128 130 125 127 125 120 118 113 108 104 100 96 94 90 86 82 78 74 72 70 67 64 61 59 56 53 51 49 47 45 43
96 96 99 103 108 112 114 118 118 121 124 127 124 124 125 119 116 112 108 103 98 95 92 88 85 81 77 74 71 69 66 62 60 56 54 51 49 48 46 44 42 40 37
95 98 102 106 111 115 115 117 120 121 120 121 122 119 114 111 107 103 98 93 91 88 84 80 76 74 71 69 66 62 59 55 53 50 48 47 45 43 41 39 37 35 34

GFSGL_250_spd_096.txt.gz
Wind_Speed
27 30 31 33 37 40 40 42 42 46 48 49 51 52 52 53 55 55 51 51 49 49 50 53 53 56 51 50 53 50 54 57 66 71 77 79 80 88 92 92 96 95 93
23 28 32 38 39 40 42 42 44 46 46 47 49 51 50 48 45 46 46 49 47 48 53 52 53 54 53 56 54 53 58 63 67 70 77 78 84 94 95 95 95 95 94
23 22 22 24 26 29 30 34 38 38 38 39 43 43 42 41 38 36 33 36 37 40 44 49 50 49 53 59 62 65 66 69 70 72 79 78 87 87 86 88 90 95 97
15 14 13 16 19 22 22 23 22 23 26 27 30 31 29 28 29 32 35 39 41 44 48 52 56 60 63 66 66 67 69 71 72 76 84 87 92 93 92 94 97 96 99
19 17 18 19 20 21 22 23 22 20 20 21 25 29 32 35 36 38 42 45 48 51 54 57 59 62 64 67 68 69 71 74 79 84 85 87 91 95 99 100 102 102 104
19 18 17 17 17 18 18 18 19 19 21 22 25 28 32 36 40 44 45 47 49 52 54 58 61 65 68 70 73 74 77 80 82 82 86 87 91 97 101 108 110 110 109
27 24 24 24 24 25 25 25 26 28 28 29 30 33 36 39 43 46 48 49 51 54 56 58 61 65 70 75 79 81 82 85 85 83 84 89 92 96 103 106 106 110 113
37 33 31 33 34 32 33 34 34 36 36 37 39 40 42 45 48 51 52 52 54 56 58 63 67 71 75 78 81 85 87 89 89 89 90 93 97 102 107 109 110 113 116
42 41 38 38 40 42 40 41 40 42 44 44 45 47 48 50 53 55 56 59 61 66 68 71 76 78 82 85 90 93 92 92 90 92 95 99 103 107 111 113 116 119 121
42 43 44 46 48 49 48 49 50 50 51 50 52 53 54 56 58 61 64 68 71 76 78 82 83 87 90 94 97 99 101 97 97 99 102 107 111 114 118 120 121 125 130
49 49 49 50 52 54 54 56 57 56 56 57 58 58 60 62 64 69 73 75 79 85 86 89 91 94 98 103 104 110 108 104 103 106 110 115 119 123 124 126 130 131 134
55 56 56 55 54 56 59 61 64 61 61 65 65 66 66 67 69 74 79 81 86 90 93 95 99 101 104 109 111 118 114 110 111 115 119 125 128 129 131 132 134 137 140
61 63 60 61 64 65 66 67 69 66 66 66 70 73 73 74 77 82 86 89 95 97 99 102 105 107 112 115 120 122 118 116 120 124 129 131 133 133 135 136 140 143 141
68 67 64 67 68 71 73 73 72 74 75 75 76 78 81 82 84 88 93 97 100 102 106 109 110 115 118 124 126 125 122 125 129 132 135 136 136 137 139 140 137 131 129
74 72 71 71 73 76 76 77 78 79 79 82 83 84 85 88 91 95 99 104 107 109 112 114 117 122 127 130 132 128 129 133 136 137 138 139 138 137 136 130 127 124 119
79 79 76 71 75 77 79 81 82 83 84 86 88 89 92 94 97 101 105 108 111 114 116 120 123 129 132 136 133 133 137 139 138 138 138 135 133 127 122 119 115 111 108
78 82 82 82 77 76 80 83 87 88 88 90 91 94 96 99 104 107 109 112 116 119 123 126 132 133 138 136 136 139 140 138 136 133 131 127 121 116 112 108 106 102 98
80 81 82 84 86 86 84 85 88 90 92 94 97 100 104 107 111 113 116 119 121 125 130 134 135 139 137 138 138 136 134 130 128 123 117 113 108 105 101 98 95 91 88
79 80 81 84 86 88 89 91 92 95 98 100 104 108 110 112 114 117 119 122 127 131 133 136 138 135 136 133 130 128 125 121 115 111 106 103 99 96 93 90 87 84 81
80 80 80 83 89 93 95 97 100 102 104 107 109 110 111 115 117 119 123 128 130 132 136 134 133 133 130 128 124 120 114 110 105 101 99 95 92 89 86 82 79 77 74
81 83 85 85 86 90 95 100 103 105 106 107 111 113 115 119 121 123 128 127 132 133 130 131 128 126 123 119 113 109 104 100 97 94 92 88 84 81 77 75 71 67 64
83 83 85 89 91 91 92 94 96 99 104 107 112 117 119 120 122 123 128 130 127 127 128 126 122 118 113 107 103 100 96 93 90 86 83 79 75 72 69 65 62 59 55
84 82 82 82 86 91 94 97 100 102 106 112 112 111 115 119 122 125 125 123 126 124 121 117 112 107 103 100 96 93 90 85 81 77 74 70 66 63 60 57 55 53 50
83 83 83 84 86 89 91 94 96 98 101 105 111 115 117 119 120 120 122 122 120 115 111 106 102 99 96 93 89 85 81 76 72 69 66 62 60 57 54 52 50 48 46
82 84 85 86 86 88 89 93 98 103 107 110 113 113 116 116 117 120 118 115 109 105 100 98 94 92 88 84 81 75 71 67 65 62 59 57 54 52 49 47 45 44 41
81 82 83 84 86 91 95 98 102 104 107 109 112 112 112 115 116 113 108 103 99 96 93 90 87 83 79 75 71 68 64 61 58 56 53 52 49 46 44 41 39 38 36

GFSGL_250_spd_099.txt.gz
Wind_Speed
36 52 58 65 67 63 62 64 63 65 63 65 62 62 61 59 59 60 62 65 64 64 67 66 63 60 60 61 61 62 59 65 60 62 65 67 67 68 70 74 76 78 81
23 32 50 55 59 61 62 59 60 61 60 59 57 59 60 61 62 64 65 64 61 58 57 55 52 51 49 50 55 58 61 64 65 65 68 69 69 73 74 77 80 83 86
19 24 29 37 44 50 56 58 58 58 57 57 58 60 61 64 60 59 57 56 54 46 42 42 46 49 50 54 58 59 60 62 65 66 68 70 72 75 78 81 85 88 91
21 20 23 28 30 35 41 46 48 50 51 51 51 51 50 47 46 44 41 39 40 43 45 47 49 51 52 55 57 58 61 61 61 63 65 66 69 73 78 84 89 92 93
24 22 22 24 27 28 30 33 35 36 37 36 36 37 37 35 33 37 40 43 46 48 50 52 53 55 56 58 59 59 60 64 68 72 74 76 78 81 86 88 90 93 97
27 26 27 30 29 28 28 30 31 31 33 34 34 35 33 34 38 40 42 44 46 49 51 54 56 59 60 61 62 64 69 70 78 80 80 84 86 88 92 95 99 99 98
34 32 31 30 29 28 29 29 29 30 31 33 34 36 37 39 42 44 47 50 51 53 56 59 61 63 65 67 72 75 79 81 85 88 90 92 94 96 99 102 105 109 107
40 37 38 40 40 38 37 37 37 37 37 39 40 42 42 44 48 51 53 55 57 60 61 63 65 68 72 76 79 81 84 88 91 94 97 101 103 103 106 109 113 116 117
51 44 42 42 45 46 45 43 44 46 45 46 46 48 49 52 55 56 59 60 63 65 67 70 73 74 77 81 85 87 91 95 98 101 104 107 109 109 112 117 120 123 122
55 53 50 49 47 48 50 51 51 51 53 56 57 56 58 60 62 63 65 67 69 72 75 77 78 82 86 91 93 96 99 103 106 109 112 115 116 118 120 124 128 130 129
54 58 59 58 55 53 53 55 57 57 59 62 63 64 66 67 68 69 71 74 78 79 81 82 86 89 93 97 100 104 107 110 113 116 119 121 123 125 128 131 132 135 131
52 51 62 64 66 64 62 61 60 62 63 65 68 70 72 74 78 77 78 81 83 84 87 89 94 96 98 101 106 109 113 117 120 123 125 128 130 133 136 138 139 136 134
61 60 58 65 66 68 69 70 71 71 71 74 74 77 78 81 83 86 85 87 91 94 95 98 100 102 105 107 111 115 120 124 127 129 132 135 138 141 142 141 138 136 135
67 66 65 66 69 72 71 72 73 74 76 77 79 79 82 85 86 89 91 93 96 98 100 103 104 107 111 115 118 124 127 129 131 134 138 141 144 144 142 138 135 135 133
65 67 68 70 72 74 76 77 77 79 80 82 84 87 87 88 91 93 95 98 100 103 105 107 109 114 117 123 127 131 134 134 138 141 144 145 143 141 136 136 135 129 125
57 65 68 71 73 74 76 78 81 84 83 83 85 87 89 91 94 96 98 100 103 107 109 113 117 122 127 130 133 135 139 141 145 145 145 139 137 135 135 131 126 119 113
60 67 71 72 74 76 76 79 80 83 87 90 92 95 98 100 102 104 107 110 113 115 117 121 125 129 133 134 137 139 143 143 141 139 138 135 133 129 123 116 111 108 104
60 66 68 72 73 75 77 81 84 87 89 92 94 96 99 104 108 111 113 115 118 122 126 128 129 129 131 134 138 138 135 135 133 132 129 127 122 116 111 107 102 97 93
70 71 72 73 73 74 78 81 83 88 90 92 93 95 98 99 101 103 106 110 113 116 119 122 126 128 131 132 129 129 129 129 126 124 121 115 111 107 101 96 92 87 83
67 68 73 73 75 76 78 81 86 89 90 93 95 96 97 99 102 105 108 112 114 118 120 121 122 122 122 124 125 125 124 122 119 115 110 105 101 95 90 87 83 80 77
65 67 67 71 75 78 81 83 87 91 95 96 98 99 100 103 103 104 107 110 110 112 114 115 117 119 122 122 122 118 117 113 108 103 99 95 91 87 83 80 76 73 69
70 74 78 79 79 85 90 89 90 93 100 102 101 103 102 102 105 106 106 108 110 111 114 117 119 119 119 116 114 111 106 102 97 93 90 87 83 80 77 72 68 64 61
79 80 85 87 89 91 93 93 97 99 102 104 105 105 105 106 104 105 107 109 112 114 116 117 118 115 111 109 105 101 97 92 88 85 83 80 76 73 68 64 61 58 56
89 90 91 91 94 96 100 102 104 103 104 104 104 103 101 102 104 107 109 111 112 114 116 113 109 107 104 99 95 92 88 84 82 79 75 72 69 64 61 59 56 53 50
95 96 98 99 101 102 101 99 97 97 98 99 98 98 101 103 105 108 108 111 113 111 107 104 103 98 94 90 87 83 81 78 74 72 68 64 61 58 56 53 50 47 45
94 92 92 93 94 94 93 93 93 93 95 96 97 100 102 103 103 107 109 108 106 101 99 96 92 89 86 82 78 78 76 72 68 64 61 58 56 53 50 48 46 44 41

GFSGL_250_spd_102.txt.gz
Wind_Speed
24 52 58 61 61 61 61 60 62 62 62 63 65 66 67 66 66 68 72 74 79 84 83 83 80 75 76 78 80 73 66 59 50 53 55 58 60 62 62 62 61 62 63
18 26 48 60 66 63 62 62 64 67 68 69 71 70 71 73 74 76 79 81 80 79 77 77 77 79 80 76 71 59 55 55 54 51 56 61 61 63 62 64 66 71 71
22 20 24 37 61 62 68 67 71 71 71 72 72 73 74 76 79 79 82 81 76 74 75 77 78 78 72 64 55 58 58 58 59 59 59 63 63 66 68 71 75 78 79
25 22 19 23 29 39 54 60 67 73 75 73 76 78 79 78 72 71 72 73 73 74 76 74 67 62 58 60 61 61 63 65 66 67 68 68 71 71 78 78 81 83 86
30 30 25 20 21 23 33 44 53 59 63 67 68 67 67 66 68 68 67 65 62 60 58 57 55 55 55 59 62 66 68 70 72 74 74 76 78 81 85 87 88 92 92
28 33 33 28 25 23 24 27 30 35 38 42 46 49 50 49 51 52 51 52 52 51 51 52 54 57 60 63 67 70 73 77 78 80 81 84 87 90 91 92 94 96 99
30 31 37 36 34 31 29 29 30 32 35 37 40 41 43 45 48 49 48 48 49 52 54 57 61 64 66 68 72 74 78 80 82 84 88 92 94 96 98 100 102 104 107
35 36 32 39 40 40 41 39 39 39 39 39 39 39 42 45 49 52 54 55 55 57 59 61 64 67 70 75 77 77 82 85 88 92 94 98 100 103 105 106 109 111 115
44 44 42 40 42 50 45 45 47 50 50 49 49 48 49 52 55 57 59 61 63 65 68 70 71 73 75 79 82 85 89 92 96 99 101 105 107 110 111 113 115 119 123
50 50 50 50 47 48 55 56 53 52 52 53 57 59 58 58 61 66 68 69 70 72 76 78 80 83 85 88 91 94 96 98 102 105 107 110 113 116 117 120 123 129 133
59 54 49 51 55 54 57 60 61 61 61 60 60 62 63 65 68 72 74 76 78 79 81 84 89 90 92 95 98 99 102 106 109 111 114 116 118 120 124 127 131 135 138
57 58 58 59 63 63 61 63 67 67 66 67 68 70 72 73 75 78 79 81 84 87 88 91 94 97 100 102 102 106 108 111 114 116 118 122 125 128 131 134 140 145 145
65 69 69 65 66 63 66 65 64 66 71 75 77 78 80 81 82 84 86 88 90 92 94 97 101 103 106 109 110 112 113 117 120 122 125 130 133 135 141 146 145 143 144
79 77 76 72 70 69 67 66 71 71 70 73 77 79 82 85 86 88 90 92 94 96 99 102 105 107 108 111 115 119 122 125 128 131 134 136 140 141 139 139 140 140 139
75 72 69 70 70 69 70 72 75 76 75 75 77 78 79 83 87 90 94 97 100 102 104 106 109 112 116 118 117 118 121 123 125 127 130 132 133 133 134 136 137 136 134
65 68 72 66 62 62 62 59 62 69 70 71 74 77 79 82 86 90 93 97 100 101 104 106 108 110 113 114 115 117 120 121 122 126 128 128 129 132 132 133 132 130 125
67 60 56 52 55 43 51 59 62 69 70 67 75 77 78 83 87 90 93 97 98 101 102 100 103 106 109 113 116 118 120 123 124 125 127 129 129 129 130 128 124 118 114
46 40 36 44 49 49 55 61 64 72 74 77 79 83 87 92 91 92 93 96 99 101 104 106 110 115 115 117 117 119 121 121 125 126 127 127 128 126 122 117 113 109 105
49 53 52 50 57 59 61 65 71 77 81 85 87 90 90 90 94 97 98 99 105 106 109 116 115 116 117 118 119 120 122 123 124 124 125 124 121 116 112 108 103 98 93
59 54 56 61 64 66 67 71 77 81 86 89 89 90 91 91 95 99 102 108 109 114 118 117 117 117 119 118 120 120 121 122 123 122 119 115 112 107 102 97 93 89 84
60 61 60 62 63 70 70 76 80 80 84 89 89 91 94 97 102 106 111 113 118 120 117 117 117 117 117 118 118 119 120 119 116 114 111 106 101 96 91 89 85 80 75
58 61 63 68 73 71 75 79 83 86 90 93 96 99 103 106 109 112 117 121 120 115 114 114 114 115 115 115 117 118 114 114 110 105 99 94 89 87 85 80 76 71 67
67 68 71 74 75 80 84 87 89 92 96 97 100 105 108 110 114 118 122 114 111 110 110 112 112 112 113 116 112 110 109 104 99 94 88 84 84 81 77 73 68 64 60
73 75 77 77 80 86 90 93 96 98 101 107 108 110 113 117 121 117 110 105 106 108 109 109 108 112 112 106 106 103 97 93 89 84 81 80 78 74 69 65 61 58 54
82 83 83 85 89 93 95 97 100 103 108 111 112 114 114 106 100 102 105 106 106 107 104 106 110 104 102 101 96 92 88 84 80 80 78 75 71 66 62 59 55 52 49
84 86 89 91 95 97 100 102 106 109 110 112 109 98 93 97 101 102 102 103 102 102 105 103 97 98 96 90 87 84 80 76 75 76 73 69 64 61 57 53 51 49 47

GFSGL_250_spd_105.txt.gz
Wind_Speed
18 17 37 56 55 59 57 55 53 53 55 54 54 55 57 62 64 67 69 69 71 72 74 77 79 80 81 85 87 89 88 88 81 84 86 88 67 62 61 62 65 66 66
19 18 19 41 53 56 59 58 57 58 60 61 61 61 61 64 66 68 70 73 74 76 79 80 82 84 86 89 90 90 89 86 85 85 75 63 65 65 66 68 71 73 73
21 21 17 20 33 47 57 64 61 59 60 60 62 63 63 66 67 71 74 76 79 80 80 83 86 89 87 89 86 82 87 87 77 66 64 65 65 67 70 73 74 76 78
24 22 23 19 21 28 40 52 68 66 67 65 66 66 69 72 74 76 76 77 80 82 84 83 84 86 88 88 87 80 71 68 66 66 67 68 68 69 72 75 79 82 84
24 19 22 27 24 22 25 31 38 53 73 75 76 78 75 79 81 81 80 81 79 83 83 85 83 81 77 70 65 64 63 65 70 72 74 75 78 79 79 80 82 84 89
33 22 20 20 29 29 27 25 27 31 40 48 53 56 66 68 71 74 77 81 78 76 73 70 64 61 58 58 61 66 67 70 73 75 78 81 83 85 87 91 93 94 97
39 30 28 24 25 31 34 33 30 30 30 31 33 37 42 46 50 53 54 55 57 57 58 57 56 58 61 65 68 74 73 77 79 83 86 89 91 93 96 99 101 104 107
41 42 35 34 30 30 31 36 38 39 40 41 41 42 42 45 49 51 53 53 54 56 57 59 62 64 68 72 74 80 82 84 88 92 95 97 101 104 105 108 111 115 116
44 48 46 38 37 36 38 41 41 42 45 45 46 49 52 54 56 59 60 60 61 62 63 65 68 71 79 76 85 86 90 93 95 98 101 105 108 110 112 116 120 123 125
47 50 48 40 47 45 47 46 51 52 50 51 55 58 59 59 61 63 65 67 69 73 74 77 80 81 85 88 90 94 97 100 102 105 108 110 114 118 120 124 126 127 131
49 48 48 48 48 53 53 56 51 52 53 56 60 61 64 69 72 73 73 74 76 77 79 82 84 87 90 93 96 99 102 104 108 110 113 118 121 124 127 129 132 134 133
47 50 53 56 58 60 57 58 54 53 58 63 66 66 68 68 73 76 78 81 84 87 89 91 93 96 99 101 104 107 109 112 116 118 121 124 126 127 128 129 132 129 128
52 50 54 53 60 64 64 63 64 67 71 68 70 71 75 77 76 76 78 79 84 89 93 96 100 104 107 109 109 111 114 118 119 119 119 120 122 122 123 124 127 129 130
60 62 61 63 65 65 63 68 76 81 76 73 72 72 79 81 80 81 83 85 87 91 95 97 102 105 109 111 111 111 110 109 108 107 108 114 117 121 124 124 125 125 127
64 66 70 72 74 73 75 81 81 77 75 73 76 78 75 76 80 81 81 81 84 85 88 92 95 97 97 96 97 96 96 101 108 113 118 121 122 122 122 123 125 126 128
73 76 77 76 79 83 83 79 74 73 74 76 70 63 62 65 70 75 77 78 80 86 91 94 97 98 101 100 100 104 110 114 119 122 127 126 125 124 126 126 127 127 126
84 87 83 79 77 75 72 72 72 73 68 60 59 63 65 69 76 78 80 83 92 99 99 101 107 107 104 107 110 114 117 121 129 130 133 130 127 126 126 126 125 124 117
79 77 75 75 69 72 77 77 73 67 58 56 59 64 65 75 76 81 88 94 98 101 104 108 109 107 111 113 116 122 128 129 133 134 129 128 126 126 125 125 120 112 108
75 75 75 75 75 69 60 55 57 58 59 64 68 74 75 77 81 86 91 97 102 105 106 108 110 114 116 121 123 125 130 134 135 129 128 125 124 123 122 114 109 104 100
60 56 58 59 61 59 55 58 64 64 64 66 70 74 80 85 90 92 97 102 106 106 105 110 114 118 121 124 127 129 130 129 127 126 124 122 122 117 111 107 102 97 91
59 59 59 64 62 58 61 65 67 66 74 77 79 82 87 92 94 100 101 104 107 110 113 116 120 122 122 124 129 127 125 125 122 122 120 121 113 109 103 98 91 86 85
62 64 67 65 65 66 70 72 76 80 82 86 89 92 95 96 99 103 106 109 113 116 120 122 121 121 121 121 122 122 121 119 120 121 117 111 106 99 94 87 83 82 78
65 67 68 70 72 75 77 78 81 83 85 89 92 95 97 99 103 107 110 114 116 119 119 120 119 118 117 119 119 117 117 117 119 114 109 102 97 89 82 80 78 73 69
70 73 77 78 79 82 83 85 87 90 92 95 95 95 99 103 106 110 114 117 119 120 121 118 117 114 115 113 113 111 115 112 109 104 98 92 85 79 77 75 71 67 63
73 75 77 79 82 85 85 88 91 93 96 95 98 101 107 111 114 114 115 113 115 120 113 106 110 110 109 108 108 108 106 105 98 93 88 81 76 74 72 69 64 61 57
81 82 84 85 87 88 89 90 93 96 100 102 105 108 110 112 112 112 114 113 108 103 108 106 104 105 105 104 103 103 98 92 87 82 77 73 71 70 66 62 59 56 52

GFSGL_250_spd_108.txt.gz
Wind_Speed
20 20 16 15 18 41 48 46 43 43 45 48 49 49 51 53 58 61 63 64 66 66 68 69 70 73 76 78 79 78 83 84 83 88 92 93 92 91 90 87 75 65 66
25 25 23 17 15 18 35 50 52 52 50 53 55 54 53 55 58 61 60 63 65 66 68 71 73 73 77 79 80 83 84 86 88 90 96 95 92 90 85 72 68 67 68
25 26 27 26 20 18 22 41 52 54 55 57 60 60 58 58 58 61 63 65 65 67 69 72 73 77 82 84 83 85 91 94 96 96 91 92 87 77 70 69 69 72 74
27 28 27 28 27 22 20 23 35 55 54 54 56 58 60 62 64 67 69 69 70 72 75 76 78 80 83 85 88 90 92 96 93 90 83 78 74 70 70 73 76 78 78
35 30 27 27 27 28 27 24 24 28 40 64 64 64 62 65 68 69 71 73 74 76 77 81 82 85 89 87 89 90 87 79 73 73 74 73 73 72 75 78 80 84 88
43 36 32 28 31 28 30 35 28 25 26 31 40 62 74 78 76 69 64 68 73 76 77 77 77 79 82 79 75 70 70 71 72 76 79 79 82 85 84 87 89 91 95
42 41 34 28 30 31 27 27 31 34 35 31 30 33 37 39 44 46 50 54 57 60 62 60 61 63 65 66 66 67 71 75 78 81 84 88 90 90 93 97 100 101 105
38 37 39 38 38 37 36 34 32 30 33 37 40 42 43 44 44 45 47 48 51 53 56 59 62 65 67 69 71 74 79 80 84 88 91 94 96 100 102 104 107 111 114
39 42 44 44 46 43 40 41 34 34 37 37 38 39 43 47 50 52 54 56 58 61 64 67 70 72 75 77 79 83 87 90 92 96 99 101 103 106 109 113 115 119 122
36 38 42 44 40 41 43 49 49 43 42 49 47 46 47 51 53 54 57 61 64 67 71 74 77 80 81 83 86 89 93 95 98 102 106 109 111 114 117 121 123 121 123
53 50 49 52 49 48 50 51 53 56 50 52 54 56 54 55 56 56 60 67 72 73 74 75 79 81 84 88 91 92 94 97 101 106 110 113 115 116 118 122 124 124 122
54 52 52 56 58 57 60 58 57 55 56 57 57 57 58 59 63 68 71 75 81 77 79 81 84 87 91 91 94 98 101 102 106 111 112 111 112 112 110 109 108 112 116
54 53 52 53 57 62 64 63 59 56 59 60 62 62 63 64 72 77 80 78 80 86 89 86 88 89 91 92 95 99 101 106 110 105 104 104 100 100 104 107 113 116 118
65 66 64 64 62 59 59 60 61 62 62 64 66 68 77 80 78 82 88 87 86 86 85 88 86 84 85 90 93 95 97 97 103 103 106 107 113 116 114 117 119 122 123
62 61 63 65 65 68 66 67 64 66 70 70 72 68 81 75 67 66 91 83 84 86 86 81 81 85 91 94 95 94 99 104 108 111 114 117 119 123 123 121 124 128 131
69 68 70 73 71 71 74 71 70 70 70 78 72 61 73 91 91 90 85 81 75 78 80 82 83 90 92 96 96 99 104 108 112 115 119 123 125 121 126 131 127 129 128
76 76 78 74 72 73 74 76 76 80 76 78 84 93 85 87 85 87 83 77 80 90 85 91 94 92 96 101 103 106 112 116 118 122 127 124 123 129 130 129 128 125 123
85 79 71 69 71 78 81 84 86 87 86 91 89 86 86 84 82 80 79 80 81 84 90 92 94 98 100 104 108 114 119 122 125 127 124 126 126 130 125 125 123 121 116
83 79 79 81 82 85 88 89 89 91 92 90 86 83 79 79 78 80 82 81 84 87 91 94 95 100 106 110 115 120 124 125 125 125 128 128 129 125 124 121 121 114 106
87 89 87 83 84 89 90 90 85 76 66 81 69 72 75 77 80 81 87 93 94 93 95 101 104 109 114 117 122 124 122 124 125 127 128 127 124 122 120 118 110 105 100
81 78 73 71 72 73 72 71 69 62 72 74 75 81 81 83 86 88 91 95 98 99 105 109 112 115 119 122 124 125 126 126 127 128 123 120 119 120 114 106 103 99 95
71 71 67 67 66 65 67 63 69 69 81 87 89 88 89 90 90 92 96 100 102 105 110 115 117 119 123 124 125 122 121 126 122 119 117 116 114 110 106 102 97 91 85
63 61 63 62 63 63 69 71 74 81 89 90 89 91 91 93 95 99 102 105 107 109 111 114 119 122 125 125 120 123 126 120 117 118 116 113 108 105 102 96 90 83 78
63 63 63 64 64 67 74 78 77 82 87 89 91 92 92 95 99 102 105 108 110 113 117 120 121 121 118 121 124 121 113 113 113 112 110 106 105 98 92 86 79 76 73
67 67 68 71 71 73 75 75 80 85 90 93 94 97 100 102 106 109 110 110 112 115 116 120 117 119 125 120 113 110 112 112 109 105 104 101 94 88 82 77 74 72 69
69 70 72 74 76 79 79 82 84 89 94 98 99 100 102 103 104 105 108 112 113 115 115 113 118 120 115 110 111 108 106 104 101 100 95 90 84 79 74 71 69 67 63

GFSGL_250_spd_111.txt.gz
Wind_Speed
21 21 22 16 12 10 11 29 45 43 41 41 44 46 48 46 49 53 51 52 56 55 54 54 57 62 65 68 71 69 71 70 70 81 82 84 87 91 90 87 90 99 99
21 22 22 24 13 13 11 17 34 44 42 42 39 44 46 48 49 50 56 56 53 52 55 58 62 63 67 71 71 72 71 73 75 79 87 89 91 92 92 98 102 101 93
22 21 17 21 21 14 15 14 22 37 43 41 41 40 43 45 49 53 53 51 53 54 56 60 64 66 68 71 73 73 75 77 80 84 86 91 93 95 100 99 93 88 80
25 25 25 21 23 22 17 17 18 24 41 45 44 45 48 51 54 57 60 61 62 63 65 66 67 68 68 71 75 79 82 86 89 89 91 95 96 94 91 87 84 82 81
29 29 29 29 27 24 25 21 21 22 23 42 38 49 53 54 56 58 59 61 61 62 63 66 69 72 75 80 83 84 84 85 87 87 85 83 82 83 83 83 83 85 89
39 35 34 33 32 26 28 31 28 25 26 28 38 46 34 46 56 59 62 64 67 69 72 75 77 82 83 82 84 81 76 75 77 78 79 80 82 85 86 90 91 94 97
38 34 36 34 34 32 31 31 28 30 30 30 33 35 38 40 45 47 47 47 48 51 53 54 58 62 62 62 64 67 69 72 76 79 81 84 89 91 93 95 98 101 103
40 35 37 34 29 30 33 30 31 35 32 33 32 35 40 40 39 40 41 42 45 47 50 52 56 59 62 65 67 70 74 78 82 84 86 88 92 96 98 100 102 103 108
40 37 37 35 34 34 33 37 37 36 41 41 41 39 39 40 40 44 47 49 50 52 56 57 60 62 65 68 71 75 78 81 83 87 90 93 97 100 103 105 106 111 114
44 42 39 42 43 39 37 41 40 44 42 43 44 47 45 45 49 50 49 51 57 59 58 61 67 69 71 74 78 82 84 87 89 90 95 98 101 105 109 111 112 111 112
50 48 48 42 47 48 48 44 43 42 41 41 45 51 54 55 54 53 55 60 64 63 62 64 70 76 81 82 84 88 89 92 95 98 99 101 105 107 107 107 109 111 112
52 48 50 46 49 46 53 56 58 54 54 52 53 55 56 57 56 55 59 61 64 65 69 72 78 82 83 84 91 93 92 99 99 100 100 101 106 106 107 105 104 106 106
55 56 60 60 57 61 62 63 63 56 53 53 61 59 60 59 62 61 63 65 69 71 75 79 78 79 90 91 89 92 97 98 97 98 102 104 106 108 109 111 109 110 119
59 60 66 66 65 64 64 62 58 56 58 56 56 68 67 63 65 67 72 72 68 77 79 80 73 83 80 93 96 97 95 98 101 105 109 113 109 112 110 111 117 123 129
67 67 68 67 66 65 64 63 63 65 64 60 62 65 68 73 69 70 73 72 70 73 80 83 82 75 87 99 101 102 103 105 108 109 108 111 110 115 119 121 124 129 134
72 70 69 71 67 66 68 71 69 67 68 68 67 70 72 82 72 80 78 79 79 80 83 85 89 96 99 101 103 106 107 103 103 107 111 114 118 121 124 129 132 133 135
78 75 78 78 74 70 72 71 72 72 70 79 75 78 78 81 84 86 84 87 92 94 93 96 100 106 104 100 104 106 103 107 110 114 119 123 124 124 131 135 137 135 132
77 77 74 70 71 75 76 78 78 78 78 83 82 80 79 80 89 91 93 97 100 104 105 108 113 103 98 99 102 106 107 110 116 121 121 124 127 131 135 134 130 129 122
75 72 74 77 77 77 78 82 84 85 86 85 91 89 84 86 92 98 105 107 109 111 110 100 97 97 98 101 107 112 114 117 120 122 125 128 133 135 131 131 122 117 116
75 78 80 83 85 87 89 91 91 88 90 96 93 93 97 101 101 100 104 102 96 98 100 99 96 98 103 108 111 114 118 120 123 125 129 130 130 130 125 118 116 115 113
79 81 84 85 87 89 90 91 93 95 95 93 98 103 100 97 94 92 90 88 90 95 101 103 99 105 112 115 117 118 121 123 126 126 126 126 124 120 117 113 113 108 104
84 87 90 91 92 92 93 94 96 99 101 97 92 89 87 87 88 88 87 88 91 95 101 108 108 110 115 119 120 120 121 123 124 119 120 121 120 115 112 113 108 105 100
92 93 92 93 92 93 92 90 88 86 86 85 85 83 81 83 85 87 89 90 93 97 103 108 111 115 119 123 123 124 122 120 120 117 118 115 112 111 110 106 104 98 92
82 84 86 87 85 85 84 83 82 81 79 79 79 79 80 82 84 89 93 94 96 100 105 110 115 119 123 123 121 120 118 115 112 113 108 107 108 107 105 100 95 91 85
72 75 76 78 80 81 80 80 79 77 77 81 83 84 86 87 88 92 95 99 99 100 103 108 113 114 115 118 117 112 110 110 101 103 104 104 103 102 98 92 88 82 77
67 68 69 70 71 73 74 76 77 78 80 82 83 86 89 91 94 96 99 101 103 105 106 109 109 112 114 111 106 107 101 98 99 100 100 100 98 93 89 84 79 74 70

GFSGL_250_spd_114.txt.gz
Wind_Speed
26 25 24 21 18 14 14 16 28 53 69 69 60 60 60 59 59 61 61 59 58 57 58 58 58 59 54 56 57 57 57 59 59 65 70 73 74 75 77 79 81 84 88
29 27 26 21 20 17 11 13 14 38 54 52 50 49 50 53 53 56 58 54 52 54 58 57 57 57 56 54 55 57 61 61 63 67 72 75 77 79 81 85 88 92 92
33 28 27 20 18 17 11 11 10 27 44 46 43 45 42 45 44 46 49 51 52 55 52 51 54 57 56 59 58 60 63 66 69 71 74 76 77 78 79 83 97 95 92
39 31 27 21 20 21 17 11 11 13 34 47 43 42 41 38 41 44 48 52 55 53 50 53 54 57 60 62 63 66 69 71 72 74 75 78 79 84 93 94 84 81 81
40 33 31 28 24 23 23 20 14 12 15 26 42 43 42 41 43 49 54 55 54 55 57 58 60 62 66 67 68 69 70 72 74 78 80 84 87 81 78 78 78 82 83
43 37 36 33 28 25 27 24 19 20 16 17 20 30 38 40 47 53 54 56 59 63 67 68 69 67 68 68 69 69 72 77 82 83 71 69 70 73 76 77 81 84 90
46 41 37 35 33 31 32 28 22 25 25 23 23 26 34 40 42 44 48 51 54 58 59 60 64 68 70 71 71 68 65 65 67 69 72 74 77 80 83 89 93 94 94
49 45 43 42 39 36 36 30 28 31 30 30 29 31 31 35 40 45 50 52 54 56 58 58 57 58 59 58 59 62 65 68 72 75 78 81 83 88 92 93 92 92 96
50 47 46 43 42 41 38 34 30 29 33 33 33 33 36 36 38 38 43 47 48 52 56 59 60 61 62 64 65 67 69 71 74 78 82 86 91 91 94 94 97 97 104
52 51 46 46 47 43 42 36 36 38 39 36 41 40 42 43 46 45 45 47 49 52 56 60 62 63 65 66 67 69 72 74 79 86 88 87 92 89 97 97 102 107 109
50 51 49 48 45 47 47 44 44 44 46 44 40 40 33 35 39 45 48 52 56 61 63 65 67 69 71 70 72 77 81 84 85 88 86 90 94 94 102 105 111 115 118
59 55 53 52 49 46 46 48 48 45 47 44 44 45 48 50 49 50 50 51 50 55 62 65 68 69 71 75 78 80 80 82 88 92 94 97 98 105 110 109 119 121 123
62 54 56 56 51 49 49 51 53 54 54 54 51 54 58 52 54 56 59 59 58 59 65 65 69 74 78 80 82 87 90 92 98 95 98 97 101 110 110 118 124 126 128
65 64 57 59 56 55 55 53 57 59 62 58 57 60 59 55 60 55 57 66 69 72 73 76 81 81 82 86 90 90 96 94 95 97 100 103 106 113 119 124 126 128 128
70 67 66 65 62 59 60 55 55 58 61 64 62 59 60 64 66 64 66 70 73 73 71 78 82 82 86 86 88 90 94 97 101 105 107 115 116 121 124 121 123 125 126
77 73 71 73 72 68 68 70 73 71 70 70 68 69 67 71 71 72 74 75 79 80 78 87 88 94 94 94 98 99 105 108 112 115 120 121 123 116 119 120 122 125 129
77 75 73 74 75 75 72 74 74 73 76 78 79 77 76 77 78 80 81 82 85 84 87 92 97 101 101 101 102 107 111 116 122 120 118 118 117 117 118 119 124 129 129
76 73 75 76 76 75 75 77 76 76 77 78 81 81 80 82 87 89 89 89 90 93 96 100 100 106 106 107 110 115 119 123 122 117 116 118 118 117 120 127 128 130 131
82 79 77 76 80 83 82 81 82 81 82 85 89 86 82 85 88 90 90 93 96 100 104 104 107 109 108 114 120 117 115 112 112 112 114 116 120 122 125 126 128 127 129
78 75 76 78 81 80 80 83 85 86 90 91 86 84 84 86 90 93 96 99 104 107 109 109 111 117 117 109 107 108 109 108 106 107 110 112 115 119 123 124 125 124 119
84 79 79 80 80 83 84 91 84 84 91 88 86 89 93 96 98 100 104 105 109 109 109 117 116 107 103 105 106 106 103 102 104 109 113 116 118 121 121 115 117 114 111
93 95 94 91 93 91 86 88 93 93 87 88 91 95 98 99 101 103 105 106 109 116 112 104 104 105 104 103 102 104 106 108 109 114 115 118 120 119 117 111 108 105 104
95 92 88 88 90 96 98 94 93 94 94 94 95 97 100 101 102 106 110 110 104 102 102 102 100 99 100 101 103 106 107 110 113 113 116 116 111 108 106 102 101 100 96
90 91 94 95 93 93 92 92 91 93 93 95 96 99 102 103 102 99 97 95 93 94 94 96 98 99 102 104 105 108 110 111 112 114 110 107 105 101 98 98 96 93 90
80 80 82 85 85 86 87 87 88 90 90 90 91 91 90 89 88 86 86 87 88 90 94 97 100 103 104 105 105 106 108 107 105 103 101 99 95 96 96 94 92 87 86
72 74 76 78 80 81 83 84 84 84 84 84 83 82 82 83 84 86 88 89 91 94 96 96 98 99 99 99 99 101 101 99 98 96 92 93 94 93 91 89 86 83 80

GFSGL_250_spd_117.txt.gz
Wind_Speed
45 40 31 26 21 21 22 23 30 36 58 62 62 61 63 65 60 55 52 54 53 55 57 56 57 59 61 60 64 62 60 59 54 57 59 62 66 66 66 67 69 72 74
46 42 35 27 22 21 21 18 22 25 44 66 66 65 63 60 60 58 56 52 57 54 57 58 60 62 60 61 60 62 59 55 57 65 64 66 69 70 72 76 76 76 77
49 44 36 30 24 20 18 18 18 21 20 45 71 72 62 56 47 46 50 53 52 54 54 55 58 62 66 61 61 59 56 60 62 65 67 69 72 77 79 79 78 78 81
52 46 37 32 28 22 18 15 14 16 13 22 36 60 68 67 66 63 62 62 56 52 54 54 63 63 55 54 62 64 67 70 65 68 72 76 81 81 76 77 81 85 86
52 49 40 36 33 28 24 21 15 14 15 10 34 45 52 53 50 49 48 48 52 57 58 59 58 56 58 59 60 64 69 69 71 74 77 76 76 77 80 85 84 81 80
53 51 43 38 36 33 29 26 22 18 18 16 18 42 50 50 51 51 49 50 47 53 58 58 63 65 65 65 62 68 73 78 75 75 76 76 76 77 81 78 78 82 84
53 53 47 41 39 40 36 31 26 23 22 19 22 22 34 47 45 50 50 50 53 56 59 58 61 61 66 66 71 73 72 73 74 75 79 77 75 73 74 79 84 87 91
55 54 50 46 42 40 41 35 29 28 28 27 29 26 28 31 40 54 55 55 58 61 65 65 67 70 73 73 71 69 72 74 74 74 72 75 77 80 81 87 90 92 94
61 58 54 51 48 42 42 41 35 33 35 32 34 34 34 33 35 40 49 57 62 63 66 68 72 71 68 66 66 69 71 74 76 79 83 85 86 89 91 92 94 95 98
59 57 55 54 52 50 46 44 43 41 41 39 36 39 37 36 38 40 41 44 46 48 49 53 56 59 62 65 69 73 77 78 79 81 84 84 88 91 94 95 96 96 100
50 57 56 57 56 55 52 50 47 46 47 45 43 39 41 43 44 44 46 48 48 49 51 57 60 61 65 69 67 64 67 70 74 76 77 79 84 87 93 94 98 102 103
41 46 50 58 55 58 58 50 48 46 49 50 49 45 44 46 47 49 50 46 47 51 54 55 58 64 65 67 69 71 76 71 73 80 81 87 91 96 99 101 106 106 111
51 43 51 55 60 56 54 51 48 47 49 51 52 51 53 47 45 50 49 51 54 53 53 57 65 69 71 74 75 77 79 83 84 87 90 95 99 103 105 109 112 113 116
54 41 54 62 58 57 54 56 55 53 56 58 58 56 59 55 50 50 57 62 64 65 65 66 71 75 80 80 81 80 85 89 92 95 97 101 105 108 112 116 115 120 126
64 59 44 46 61 62 61 58 58 59 62 62 60 60 59 64 61 58 63 64 66 72 74 75 76 79 84 85 84 86 87 93 97 97 99 107 113 117 117 120 124 127 122
74 73 67 69 60 65 64 62 61 62 63 62 62 60 64 68 69 69 70 74 77 80 78 79 83 84 84 87 90 93 97 101 100 103 110 116 120 123 123 129 129 122 119
85 79 71 67 72 68 68 68 55 55 61 66 68 69 70 67 68 70 76 80 82 84 85 87 87 86 88 92 96 100 101 103 108 112 117 122 125 126 131 131 120 118 114
78 80 77 77 80 83 80 79 73 74 75 75 71 72 73 78 80 81 80 82 83 85 89 90 91 93 96 98 100 102 106 109 113 118 123 125 126 131 127 119 116 116 117
79 80 84 81 83 84 83 79 77 78 76 75 77 79 81 83 85 86 87 87 88 92 94 97 99 99 97 99 103 107 111 115 120 124 124 128 128 118 116 115 115 114 114
84 82 83 80 84 85 87 86 87 86 83 81 82 86 89 91 91 91 94 94 94 97 99 99 100 100 102 106 109 113 117 119 123 126 126 119 116 114 113 113 113 113 114
79 83 82 85 84 84 86 89 88 86 89 88 90 95 98 90 89 91 91 94 102 98 99 104 106 106 109 112 114 117 119 122 123 116 115 111 110 112 112 111 112 108 105
84 80 81 84 85 86 89 91 93 92 95 96 90 90 89 90 91 95 100 99 98 103 108 107 108 110 110 112 114 115 115 112 110 107 108 110 110 109 109 106 103 104 100
84 89 91 91 90 93 95 98 98 96 90 94 91 93 95 101 101 101 100 101 107 108 107 108 110 109 112 115 110 109 106 105 105 106 106 105 104 103 102 101 100 97 97
83 81 84 87 90 94 98 96 95 98 100 102 103 107 105 101 103 104 108 108 107 107 107 109 109 107 106 104 103 101 102 103 103 102 100 100 100 99 99 96 95 95 95
99 99 97 96 98 101 102 102 103 104 107 111 112 110 109 109 108 107 106 108 108 105 103 104 101 99 98 98 99 99 99 98 97 97 98 98 97 95 92 93 93 92 92
99 99 99 100 104 105 107 109 110 107 105 105 103 102 102 104 103 102 101 98 97 97 97 96 96 95 95 95 93 93 93 94 95 95 94 92 91 92 93 93 91 89 87

GFSGL_250_spd_120.txt.gz
Wind_Speed
45 49 49 41 42 39 33 28 25 20 33 45 48 46 55 61 67 68 69 69 67 65 60 53 48 51 52 55 55 56 59 59 61 63 64 64 63 60 63 65 66 67 70
49 55 53 44 45 40 34 29 20 20 25 32 54 54 52 57 68 66 64 62 63 58 55 50 52 57 58 57 56 57 60 64 67 64 63 66 65 67 69 68 75 72 74
53 60 55 47 45 40 34 29 25 23 21 27 38 63 59 64 68 72 74 71 62 58 57 60 56 56 58 63 64 65 65 67 63 63 63 65 70 72 77 82 80 78 82
58 63 56 51 45 40 34 30 26 24 22 24 31 44 68 65 72 76 74 69 64 63 61 56 54 59 62 66 65 65 65 65 65 59 60 65 73 78 79 81 83 85 82
62 64 60 53 48 42 36 31 27 24 22 22 23 27 44 73 71 73 72 67 62 60 62 59 60 63 56 64 65 65 64 63 64 66 72 76 78 78 81 84 85 85 86
64 67 63 56 49 46 42 35 32 29 23 20 19 17 22 34 71 76 67 62 61 57 63 59 61 65 63 66 63 62 67 67 71 76 79 77 75 80 84 88 86 81 79
68 67 61 57 52 48 45 39 36 32 29 24 23 20 28 33 37 47 60 64 59 55 55 60 63 62 64 67 66 69 71 72 76 80 76 80 84 89 89 79 79 85 87
70 65 60 58 54 51 46 43 39 36 31 27 23 25 25 39 43 46 50 53 54 57 59 61 59 61 66 69 71 66 72 74 75 79 86 89 90 85 82 84 88 89 85
68 61 60 58 57 54 49 42 41 38 35 31 30 30 30 30 43 52 53 56 56 61 61 62 65 65 67 71 72 74 78 83 85 83 79 83 81 83 86 82 79 78 85
68 60 59 60 60 57 50 43 39 40 42 39 37 35 35 35 39 42 55 56 56 60 56 55 58 63 67 70 74 78 77 76 81 83 80 82 84 86 88 90 89 93 93
68 63 61 60 59 60 54 49 44 46 46 47 45 42 42 41 40 45 45 45 50 56 64 69 72 71 73 75 76 77 77 78 79 79 81 83 87 92 94 94 95 94 95
68 66 64 63 61 60 57 56 53 51 51 50 50 49 47 44 44 43 38 39 44 50 57 62 65 68 70 69 68 69 72 74 73 80 81 83 86 90 94 96 96 97 100
65 69 66 60 58 59 60 58 55 55 55 55 55 53 51 46 46 48 50 53 49 48 52 59 62 67 70 71 72 75 76 74 80 84 86 87 90 93 92 92 95 102 107
61 62 62 57 58 56 60 58 59 56 58 60 57 56 53 51 51 53 58 59 58 54 56 56 56 60 65 68 70 73 75 79 83 86 91 93 95 97 98 98 104 108 116
54 59 57 48 48 51 51 55 59 60 57 58 59 57 56 56 58 61 64 65 67 66 67 64 64 70 72 72 72 74 78 82 86 90 94 96 99 103 101 105 112 117 120
69 65 66 60 53 52 55 53 59 63 64 63 67 66 64 61 63 65 68 69 70 71 71 73 76 77 77 79 80 84 88 91 94 97 100 100 103 105 108 110 113 118 123
70 66 66 61 55 55 51 54 62 70 69 70 65 64 66 68 68 69 70 72 74 74 76 79 79 78 79 81 88 90 93 96 97 104 103 107 107 111 109 113 117 123 128
75 67 59 66 61 59 59 52 57 58 55 51 54 61 69 75 77 74 73 75 77 79 75 74 75 81 86 89 93 97 99 103 105 104 109 107 110 114 119 122 124 128 127
81 83 76 73 73 74 68 67 65 64 65 67 62 64 62 68 70 73 73 74 73 78 81 86 88 91 94 99 100 102 102 103 103 110 110 112 118 122 123 123 123 124 122
85 82 86 86 78 80 81 86 82 77 76 74 77 79 80 82 88 93 87 85 86 88 92 96 97 100 102 105 104 101 107 108 111 113 113 119 124 123 122 121 118 118 116
89 90 93 94 87 87 88 88 88 84 86 89 90 92 94 96 97 97 97 95 97 99 103 104 105 106 110 108 103 109 112 111 112 117 121 123 121 122 116 115 115 113 112
91 93 93 93 92 93 95 95 96 96 94 97 99 98 98 99 98 99 100 103 107 108 107 108 110 111 111 112 112 115 117 118 120 119 118 119 116 114 113 111 110 108 105
90 92 94 96 95 96 95 95 96 98 98 99 98 98 100 101 100 101 104 106 109 112 111 114 117 117 114 116 118 125 121 118 117 117 114 113 111 109 107 105 103 103 102
94 96 97 97 99 99 100 100 101 101 101 102 105 106 103 103 105 105 106 108 109 112 117 118 118 119 118 124 124 119 116 113 113 112 110 108 107 104 101 102 101 101 99
87 93 98 100 102 103 104 109 106 105 101 103 100 101 104 104 103 107 110 115 116 115 116 118 117 122 126 117 114 112 111 109 108 105 104 103 101 99 99 100 98 95 95
81 86 87 88 89 90 93 95 97 99 98 100 103 102 103 104 107 109 109 112 116 116 114 119 117 111 110 109 108 106 104 102 101 101 98 97 96 97 98 96 94 94 92

GFSGL_250_spd_123.txt.gz
Wind_Speed
48 52 46 39 36 44 44 45 44 38 35 36 35 45 42 38 44 50 51 58 55 55 54 53 50 50 44 50 51 51 53 54 61 59 60 62 61 63 65 62 60 62 66
57 53 48 39 42 47 47 47 44 37 34 30 36 45 45 44 40 48 53 52 59 61 51 53 56 56 55 58 60 60 57 58 58 59 61 60 61 66 72 66 63 64 68
62 53 47 38 49 53 49 50 47 41 35 38 38 36 50 48 46 49 58 57 56 60 65 65 66 65 65 64 62 57 58 58 62 64 65 65 69 72 68 67 68 69 74
59 53 49 40 54 55 53 52 48 43 38 35 33 44 38 54 53 52 53 60 63 63 66 65 65 65 64 65 58 60 63 68 69 67 67 71 72 71 70 70 74 78 83
57 58 56 44 60 58 56 53 50 43 38 37 36 34 42 42 58 58 55 60 63 68 68 68 70 67 65 64 62 63 67 68 67 67 73 71 69 71 74 78 80 84 86
63 60 54 50 64 61 59 55 50 45 39 37 37 33 30 38 50 54 62 61 64 65 68 69 69 62 61 62 63 65 68 69 69 68 70 67 72 73 79 78 79 82 82
61 59 49 54 69 65 62 57 50 45 41 38 38 34 28 29 32 41 63 69 62 73 73 77 74 71 68 69 65 70 72 72 72 75 75 78 79 82 82 79 80 85 90
60 59 48 57 73 66 63 58 51 47 44 42 39 34 31 25 26 28 26 40 67 74 72 71 67 69 70 66 67 67 69 71 75 76 77 80 83 79 80 85 89 88 87
60 51 52 59 73 64 63 61 55 50 47 44 39 37 33 34 29 33 34 34 38 46 52 66 70 71 72 70 68 70 71 69 74 80 81 77 79 85 87 89 88 88 90
49 48 54 61 72 66 64 62 55 53 50 47 42 39 36 36 34 34 41 42 41 41 48 56 59 61 61 66 67 68 72 76 76 78 81 85 90 94 93 89 92 92 93
46 50 55 66 69 66 65 63 56 51 51 49 45 42 40 37 35 35 32 44 48 52 53 53 56 58 63 69 73 74 76 78 81 85 88 90 88 87 90 92 95 96 98
49 51 59 66 67 66 65 62 60 54 50 49 46 46 45 44 42 40 36 34 41 46 51 56 60 62 63 66 69 75 79 81 82 82 83 87 89 91 93 97 99 99 97
51 54 51 57 66 69 67 66 57 62 59 56 52 48 47 50 51 49 48 45 40 42 47 51 57 57 58 60 62 66 70 73 76 80 80 80 83 85 86 87 88 95 98
55 64 59 66 65 66 66 64 67 62 59 57 56 54 55 52 52 53 53 54 50 50 50 53 55 60 62 64 65 66 68 70 74 76 80 83 85 86 88 92 97 100 109
69 65 72 60 65 61 62 64 61 61 62 63 60 58 56 54 55 54 56 58 58 57 59 59 63 62 62 68 71 74 77 79 80 83 85 84 87 92 96 99 105 109 111
68 66 68 58 56 62 63 64 62 61 60 60 62 58 56 60 60 60 60 61 61 62 65 65 66 69 69 69 70 75 80 81 84 85 85 86 92 98 102 104 110 114 116
85 77 69 66 68 66 68 64 64 60 58 61 63 61 61 64 64 64 66 67 67 71 71 74 76 75 75 78 78 78 83 83 84 82 87 95 101 103 109 114 117 121 119
80 81 82 72 65 56 52 61 59 57 59 60 62 64 66 65 65 63 64 66 72 74 74 74 77 79 81 78 77 78 77 81 85 94 99 104 108 112 118 119 124 122 124
80 75 68 66 68 61 61 65 68 65 66 68 66 65 68 68 71 70 71 73 78 80 76 75 76 72 73 71 76 81 92 99 102 105 109 113 119 122 123 127 130 133 130
85 77 74 70 70 73 73 69 71 71 74 71 73 75 77 70 69 69 69 72 74 76 70 69 70 74 81 90 93 98 103 106 110 114 116 120 124 125 127 128 133 129 130
90 87 77 76 75 76 78 80 79 78 78 77 77 73 69 68 69 69 74 75 78 75 77 81 87 93 95 99 105 107 109 112 115 119 122 122 122 126 128 131 131 128 127
94 88 89 91 85 79 78 79 79 83 85 83 80 78 79 80 82 82 84 89 85 85 91 99 101 105 110 112 111 112 116 120 122 123 124 125 128 131 129 129 128 127 119
96 94 92 93 91 90 88 86 85 84 84 86 85 88 86 91 88 85 89 93 94 97 105 108 112 115 116 115 118 119 122 124 125 124 124 126 128 129 126 127 123 116 115
101 97 94 97 97 99 97 94 91 93 91 92 92 96 94 94 94 95 98 102 103 105 108 112 115 117 119 123 125 124 122 125 123 122 122 125 126 126 122 116 115 113 109
103 104 101 102 101 105 106 102 99 103 99 99 99 102 101 99 99 102 105 110 113 117 117 118 122 125 126 127 129 126 124 123 123 126 123 124 123 115 114 114 111 105 101
94 103 109 106 108 110 111 111 112 111 111 109 111 110 111 114 117 116 119 118 118 121 123 127 126 126 132 126 124 124 122 124 124 131 119 113 112 112 110 106 102 99 99